| time (UTC) | temp C | wind direction | speed KPH | gust KPH | rain 1hr cm | rain 24hr cm | rain mn cm | humidity % | barometer mb |
| 20260507230939 | 28 | 350 | 1.6 | 6.4 | 0.00 | 0.00 | 0.00 | 53 | 1014.1 |
| 20260507230905 | 28 | 6 | 1.6 | 6.4 | 0.00 | 0.00 | 0.00 | 53 | 1014.2 |
| 20260507230740 | 28 | 235 | 1.6 | 6.4 | 0.00 | 0.00 | 0.00 | 53 | 1014.2 |
| 20260507230641 | 28 | 256 | 1.6 | 8.0 | 0.00 | 0.00 | 0.00 | 53 | 1014.2 |
| 20260507230537 | 28 | 194 | 1.6 | 8.0 | 0.00 | 0.00 | 0.00 | 53 | 1014.2 |
| 20260507230435 | 28 | 316 | 3.2 | 8.0 | 0.00 | 0.00 | 0.00 | 53 | 1014.2 |
| 20260507230334 | 28 | 316 | 3.2 | 8.0 | 0.00 | 0.00 | 0.00 | 53 | 1014.2 |
| 20260507230251 | 28 | 316 | 3.2 | 8.0 | 0.00 | 0.00 | 0.00 | 52 | 1014.2 |
| 20260507230242 | 28 | 316 | 3.2 | 8.0 | 0.00 | 0.00 | 0.00 | 52 | 1014.3 |
| 20260507230134 | 28 | 316 | 3.2 | 9.7 | 0.00 | 0.00 | 0.00 | 52 | 1014.3 |
| 20260507230035 | 28 | 239 | 4.8 | 9.7 | 0.00 | 0.00 | 0.00 | 53 | 1014.3 |
| 20260507225935 | 28 | 238 | 4.8 | 9.7 | 0.00 | 0.00 | 0.00 | 53 | 1014.3 |
| 20260507225839 | 28 | 228 | 4.8 | 9.7 | 0.00 | 0.00 | 0.00 | 53 | 1014.4 |
| 20260507225739 | 28 | 228 | 4.8 | 9.7 | 0.00 | 0.00 | 0.00 | 52 | 1014.4 |
| 20260507225635 | 28 | 210 | 4.8 | 9.7 | 0.00 | 0.00 | 0.00 | 52 | 1014.4 |
| 20260507225535 | 28 | 221 | 4.8 | 9.7 | 0.00 | 0.00 | 0.00 | 53 | 1014.4 |
| 20260507225435 | 28 | 208 | 4.8 | 9.7 | 0.00 | 0.00 | 0.00 | 53 | 1014.4 |
| 20260507225336 | 28 | 243 | 4.8 | 9.7 | 0.00 | 0.00 | 0.00 | 54 | 1014.4 |
| 20260507225245 | 28 | 141 | 4.8 | 9.7 | 0.00 | 0.00 | 0.00 | 53 | 1014.4 |
| 20260507225235 | 28 | 156 | 4.8 | 9.7 | 0.00 | 0.00 | 0.00 | 53 | 1014.4 |
| 20260507225135 | 28 | 215 | 4.8 | 12.9 | 0.00 | 0.00 | 0.00 | 52 | 1014.4 |
| 20260507225035 | 28 | 235 | 4.8 | 12.9 | 0.00 | 0.00 | 0.00 | 52 | 1014.5 |
| 20260507224934 | 29 | 214 | 3.2 | 12.9 | 0.00 | 0.00 | 0.00 | 52 | 1014.5 |
| 20260507224835 | 29 | 236 | 3.2 | 12.9 | 0.00 | 0.00 | 0.00 | 52 | 1014.5 |
| 20260507224735 | 29 | 225 | 3.2 | 12.9 | 0.00 | 0.00 | 0.00 | 52 | 1014.5 |
| 20260507224630 | 29 | 231 | 3.2 | 12.9 | 0.00 | 0.00 | 0.00 | 53 | 1014.5 |
| 20260507224531 | 29 | 255 | 3.2 | 12.9 | 0.00 | 0.00 | 0.00 | 52 | 1014.5 |
| 20260507224431 | 29 | 256 | 3.2 | 12.9 | 0.00 | 0.00 | 0.00 | 53 | 1014.6 |
| 20260507224331 | 29 | 250 | 3.2 | 12.9 | 0.00 | 0.00 | 0.00 | 52 | 1014.5 |
| 20260507224242 | 29 | 242 | 3.2 | 12.9 | 0.00 | 0.00 | 0.00 | 52 | 1014.6 |
| 20260507224235 | 29 | 217 | 3.2 | 12.9 | 0.00 | 0.00 | 0.00 | 52 | 1014.6 |
| 20260507224131 | 28 | 207 | 3.2 | 9.7 | 0.00 | 0.00 | 0.00 | 55 | 1014.6 |
| 20260507224031 | 28 | 224 | 3.2 | 9.7 | 0.00 | 0.00 | 0.00 | 55 | 1014.6 |
| 20260507223931 | 28 | 224 | 3.2 | 9.7 | 0.00 | 0.00 | 0.00 | 54 | 1014.6 |
| 20260507223831 | 28 | 224 | 3.2 | 9.7 | 0.00 | 0.00 | 0.00 | 54 | 1014.6 |
| 20260507223731 | 28 | 224 | 3.2 | 9.7 | 0.00 | 0.00 | 0.00 | 54 | 1014.6 |
| 20260507223631 | 28 | 224 | 3.2 | 9.7 | 0.00 | 0.00 | 0.00 | 53 | 1014.6 |
| 20260507223531 | 28 | 275 | 3.2 | 9.7 | 0.00 | 0.00 | 0.00 | 52 | 1014.6 |
| 20260507223431 | 29 | 236 | 3.2 | 9.7 | 0.00 | 0.00 | 0.00 | 51 | 1014.7 |
| 20260507223331 | 29 | 226 | 1.6 | 9.7 | 0.00 | 0.00 | 0.00 | 51 | 1014.7 |
| 20260507223231 | 29 | 218 | 1.6 | 8.0 | 0.00 | 0.00 | 0.00 | 51 | 1014.7 |
| 20260507223131 | 29 | 281 | 1.6 | 8.0 | 0.00 | 0.00 | 0.00 | 51 | 1014.8 |
| 20260507223031 | 30 | 224 | 0.0 | 8.0 | 0.00 | 0.00 | 0.00 | 50 | 1014.8 |
| 20260507222930 | 30 | 237 | 0.0 | 4.8 | 0.00 | 0.00 | 0.00 | 51 | 1014.7 |
| 20260507222831 | 30 | 235 | 0.0 | 4.8 | 0.00 | 0.00 | 0.00 | 52 | 1014.8 |
| 20260507222741 | 30 | 235 | 0.0 | 3.2 | 0.00 | 0.00 | 0.00 | 52 | 1014.8 |
| 20260507222727 | 30 | 245 | 0.0 | 3.2 | 0.00 | 0.00 | 0.00 | 52 | 1014.8 |
| 20260507222627 | 30 | 245 | 0.0 | 3.2 | 0.00 | 0.00 | 0.00 | 51 | 1014.8 |
| 20260507222527 | 30 | 245 | 1.6 | 6.4 | 0.00 | 0.00 | 0.00 | 51 | 1014.8 |
| 20260507222427 | 30 | 246 | 1.6 | 6.4 | 0.00 | 0.00 | 0.00 | 51 | 1014.9 |
| 20260507222327 | 30 | 243 | 1.6 | 9.7 | 0.00 | 0.00 | 0.00 | 51 | 1014.9 |
| 20260507222227 | 30 | 271 | 1.6 | 9.7 | 0.00 | 0.00 | 0.00 | 52 | 1014.9 |
| 20260507222126 | 30 | 262 | 1.6 | 9.7 | 0.00 | 0.00 | 0.00 | 53 | 1015.0 |
| 20260507222028 | 29 | 139 | 1.6 | 9.7 | 0.00 | 0.00 | 0.00 | 54 | 1015.0 |
| 20260507222000 | 29 | 226 | 1.6 | 9.7 | 0.00 | 0.00 | 0.00 | 53 | 1015.0 |
| 20260507221926 | 29 | 226 | 1.6 | 9.7 | 0.00 | 0.00 | 0.00 | 53 | 1015.0 |
| 20260507221851 | 29 | 226 | 1.6 | 9.7 | 0.00 | 0.00 | 0.00 | 53 | 1015.0 |
| 20260507221728 | 29 | 226 | 1.6 | 9.7 | 0.00 | 0.00 | 0.00 | 53 | 1015.0 |
| 20260507221627 | 29 | 277 | 1.6 | 9.7 | 0.00 | 0.00 | 0.00 | 53 | 1015.0 |
| 20260507221527 | 29 | 276 | 1.6 | 9.7 | 0.00 | 0.00 | 0.00 | 52 | 1015.0 |
| 20260507221427 | 29 | 218 | 1.6 | 9.7 | 0.00 | 0.00 | 0.00 | 51 | 1015.1 |
| 20260507221327 | 29 | 125 | 1.6 | 8.0 | 0.00 | 0.00 | 0.00 | 51 | 1015.1 |
| 20260507221240 | 29 | 205 | 1.6 | 8.0 | 0.00 | 0.00 | 0.00 | 52 | 1015.1 |
| 20260507221233 | 28 | 204 | 1.6 | 6.4 | 0.00 | 0.00 | 0.00 | 53 | 1015.2 |
| 20260507221227 | 29 | 177 | 1.6 | 6.4 | 0.00 | 0.00 | 0.00 | 52 | 1015.1 |
| 20260507221126 | 28 | 194 | 1.6 | 6.4 | 0.00 | 0.00 | 0.00 | 54 | 1015.2 |
| 20260507221114 | 28 | 93 | 1.6 | 6.4 | 0.00 | 0.00 | 0.00 | 54 | 1015.2 |
| 20260507220927 | 28 | 63 | 1.6 | 6.4 | 0.00 | 0.00 | 0.00 | 54 | 1015.2 |
| 20260507220851 | 28 | 63 | 1.6 | 6.4 | 0.00 | 0.00 | 0.00 | 54 | 1015.2 |
| 20260507220723 | 28 | 174 | 1.6 | 6.4 | 0.00 | 0.00 | 0.00 | 53 | 1015.2 |
| 20260507220623 | 28 | 304 | 1.6 | 6.4 | 0.00 | 0.00 | 0.00 | 54 | 1015.2 |
| 20260507220523 | 28 | 325 | 1.6 | 6.4 | 0.00 | 0.00 | 0.00 | 53 | 1015.3 |
| 20260507220423 | 28 | 312 | 1.6 | 6.4 | 0.00 | 0.00 | 0.00 | 54 | 1015.3 |
| 20260507220323 | 28 | 231 | 1.6 | 6.4 | 0.00 | 0.00 | 0.00 | 54 | 1015.3 |
| 20260507220225 | 28 | 231 | 1.6 | 6.4 | 0.00 | 0.00 | 0.00 | 54 | 1015.3 |
| 20260507220123 | 28 | 218 | 1.6 | 8.0 | 0.00 | 0.00 | 0.00 | 53 | 1015.3 |
| 20260507220023 | 28 | 221 | 1.6 | 8.0 | 0.00 | 0.00 | 0.00 | 54 | 1015.4 |
| 20260507215924 | 28 | 219 | 1.6 | 8.0 | 0.00 | 0.00 | 0.00 | 54 | 1015.4 |
| 20260507215823 | 28 | 219 | 1.6 | 8.0 | 0.00 | 0.00 | 0.00 | 54 | 1015.4 |
| 20260507215723 | 28 | 219 | 1.6 | 8.0 | 0.00 | 0.00 | 0.00 | 55 | 1015.4 |
| 20260507215623 | 28 | 219 | 1.6 | 8.0 | 0.00 | 0.00 | 0.00 | 54 | 1015.4 |
| 20260507215523 | 28 | 219 | 1.6 | 8.0 | 0.00 | 0.00 | 0.00 | 53 | 1015.5 |
| 20260507215424 | 28 | 219 | 1.6 | 8.0 | 0.00 | 0.00 | 0.00 | 53 | 1015.4 |
| 20260507215322 | 28 | 160 | 1.6 | 8.0 | 0.00 | 0.00 | 0.00 | 52 | 1015.4 |
| 20260507215237 | 28 | 332 | 1.6 | 8.0 | 0.00 | 0.00 | 0.00 | 52 | 1015.5 |
| 20260507215223 | 28 | 321 | 1.6 | 8.0 | 0.00 | 0.00 | 0.00 | 52 | 1015.5 |
| 20260507215122 | 28 | 307 | 1.6 | 8.0 | 0.00 | 0.00 | 0.00 | 51 | 1015.5 |
| 20260507215024 | 28 | 319 | 1.6 | 8.0 | 0.00 | 0.00 | 0.00 | 52 | 1015.5 |
| 20260507214919 | 28 | 117 | 1.6 | 8.0 | 0.00 | 0.00 | 0.00 | 52 | 1015.4 |
| 20260507214820 | 28 | 141 | 0.0 | 6.4 | 0.00 | 0.00 | 0.00 | 54 | 1015.5 |
| 20260507214736 | 28 | 239 | 1.6 | 4.8 | 0.00 | 0.00 | 0.00 | 54 | 1015.5 |
| 20260507214719 | 28 | 238 | 1.6 | 4.8 | 0.00 | 0.00 | 0.00 | 54 | 1015.5 |
| 20260507214619 | 28 | 239 | 1.6 | 4.8 | 0.00 | 0.00 | 0.00 | 53 | 1015.5 |
| 20260507214519 | 28 | 238 | 1.6 | 4.8 | 0.00 | 0.00 | 0.00 | 53 | 1015.6 |
| 20260507214419 | 28 | 218 | 1.6 | 6.4 | 0.00 | 0.00 | 0.00 | 53 | 1015.6 |
| 20260507214320 | 28 | 226 | 1.6 | 6.4 | 0.00 | 0.00 | 0.00 | 54 | 1015.6 |
| 20260507214237 | 28 | 214 | 1.6 | 6.4 | 0.00 | 0.00 | 0.00 | 55 | 1015.6 |
| 20260507214220 | 28 | 153 | 1.6 | 6.4 | 0.00 | 0.00 | 0.00 | 55 | 1015.6 |
| 20260507214119 | 27 | 160 | 1.6 | 9.7 | 0.00 | 0.00 | 0.00 | 55 | 1015.6 |
| 20260507214019 | 27 | 49 | 1.6 | 9.7 | 0.00 | 0.00 | 0.00 | 55 | 1015.6 |
| 20260507213920 | 27 | 49 | 1.6 | 9.7 | 0.00 | 0.00 | 0.00 | 56 | 1015.6 |
| 20260507213819 | 27 | 53 | 3.2 | 9.7 | 0.00 | 0.00 | 0.00 | 55 | 1015.6 |
| 20260507213736 | 27 | 58 | 3.2 | 9.7 | 0.00 | 0.00 | 0.00 | 55 | 1015.6 |
| 20260507213718 | 27 | 53 | 3.2 | 9.7 | 0.00 | 0.00 | 0.00 | 55 | 1015.6 |
| 20260507213619 | 27 | 345 | 3.2 | 9.7 | 0.00 | 0.00 | 0.00 | 54 | 1015.7 |
| 20260507213519 | 27 | 317 | 1.6 | 9.7 | 0.00 | 0.00 | 0.00 | 55 | 1015.7 |
| 20260507213419 | 27 | 332 | 1.6 | 9.7 | 0.00 | 0.00 | 0.00 | 55 | 1015.7 |
| 20260507213319 | 27 | 43 | 1.6 | 9.7 | 0.00 | 0.00 | 0.00 | 54 | 1015.7 |
| 20260507213237 | 27 | 346 | 1.6 | 9.7 | 0.00 | 0.00 | 0.00 | 54 | 1015.8 |
| 20260507213219 | 27 | 318 | 1.6 | 9.7 | 0.00 | 0.00 | 0.00 | 55 | 1015.8 |
| 20260507213120 | 27 | 335 | 1.6 | 6.4 | 0.00 | 0.00 | 0.00 | 55 | 1015.8 |
| 20260507213014 | 27 | 318 | 1.6 | 6.4 | 0.00 | 0.00 | 0.00 | 53 | 1015.8 |
| 20260507212954 | 27 | 314 | 1.6 | 6.4 | 0.00 | 0.00 | 0.00 | 54 | 1015.8 |
| 20260507212916 | 27 | 318 | 1.6 | 6.4 | 0.00 | 0.00 | 0.00 | 53 | 1015.8 |
| 20260507212849 | 27 | 318 | 1.6 | 6.4 | 0.00 | 0.00 | 0.00 | 54 | 1015.8 |
| 20260507212715 | 27 | 314 | 1.6 | 6.4 | 0.00 | 0.00 | 0.00 | 54 | 1015.8 |
| 20260507212615 | 27 | 330 | 1.6 | 6.4 | 0.00 | 0.00 | 0.00 | 53 | 1015.8 |
| 20260507212515 | 27 | 330 | 1.6 | 6.4 | 0.00 | 0.00 | 0.00 | 55 | 1015.9 |
| 20260507212414 | 27 | 325 | 1.6 | 6.4 | 0.00 | 0.00 | 0.00 | 55 | 1015.8 |
| 20260507212315 | 27 | 341 | 1.6 | 6.4 | 0.00 | 0.00 | 0.00 | 55 | 1015.9 |
| 20260507212250 | 27 | 342 | 1.6 | 6.4 | 0.00 | 0.00 | 0.00 | 55 | 1015.9 |
| 20260507212215 | 27 | 342 | 1.6 | 6.4 | 0.00 | 0.00 | 0.00 | 55 | 1015.9 |
| 20260507212115 | 27 | 342 | 1.6 | 6.4 | 0.00 | 0.00 | 0.00 | 53 | 1015.9 |
| 20260507212015 | 27 | 104 | 1.6 | 6.4 | 0.00 | 0.00 | 0.00 | 53 | 1015.9 |
| 20260507211915 | 28 | 225 | 1.6 | 6.4 | 0.00 | 0.00 | 0.00 | 53 | 1016.0 |
| 20260507211815 | 28 | 225 | 1.6 | 6.4 | 0.00 | 0.00 | 0.00 | 53 | 1016.0 |
| 20260507211714 | 28 | 217 | 1.6 | 6.4 | 0.00 | 0.00 | 0.00 | 55 | 1016.0 |
| 20260507211615 | 28 | 192 | 1.6 | 6.4 | 0.00 | 0.00 | 0.00 | 53 | 1016.0 |
| 20260507211515 | 28 | 49 | 1.6 | 6.4 | 0.00 | 0.00 | 0.00 | 53 | 1016.0 |
| 20260507211414 | 28 | 316 | 1.6 | 6.4 | 0.00 | 0.00 | 0.00 | 54 | 1016.1 |
| 20260507211315 | 28 | 288 | 1.6 | 8.0 | 0.00 | 0.00 | 0.00 | 54 | 1016.1 |
| 20260507211215 | 28 | 288 | 1.6 | 8.0 | 0.00 | 0.00 | 0.00 | 54 | 1016.1 |
| 20260507211111 | 28 | 253 | 1.6 | 8.0 | 0.00 | 0.00 | 0.00 | 55 | 1016.1 |
| 20260507211011 | 28 | 253 | 1.6 | 8.0 | 0.00 | 0.00 | 0.00 | 53 | 1016.1 |
| 20260507210917 | 28 | 225 | 1.6 | 8.0 | 0.00 | 0.00 | 0.00 | 54 | 1016.1 |
| 20260507210811 | 28 | 115 | 1.6 | 8.0 | 0.00 | 0.00 | 0.00 | 54 | 1016.1 |
| 20260507210746 | 28 | 96 | 1.6 | 8.0 | 0.00 | 0.00 | 0.00 | 54 | 1016.1 |
| 20260507210711 | 28 | 96 | 1.6 | 8.0 | 0.00 | 0.00 | 0.00 | 54 | 1016.1 |
| 20260507210611 | 28 | 236 | 1.6 | 8.0 | 0.00 | 0.00 | 0.00 | 53 | 1016.1 |
| 20260507210515 | 27 | 150 | 1.6 | 8.0 | 0.00 | 0.00 | 0.00 | 56 | 1016.2 |
| 20260507210411 | 27 | 145 | 1.6 | 8.0 | 0.00 | 0.00 | 0.00 | 55 | 1016.2 |
| 20260507210311 | 27 | 223 | 1.6 | 6.4 | 0.00 | 0.00 | 0.00 | 54 | 1016.2 |
| 20260507210233 | 27 | 124 | 1.6 | 6.4 | 0.00 | 0.00 | 0.00 | 54 | 1016.2 |
| 20260507210211 | 27 | 133 | 1.6 | 6.4 | 0.00 | 0.00 | 0.00 | 55 | 1016.2 |
| 20260507210111 | 27 | 134 | 1.6 | 6.4 | 0.00 | 0.00 | 0.00 | 54 | 1016.2 |
| 20260507210011 | 27 | 228 | 1.6 | 6.4 | 0.00 | 0.00 | 0.00 | 54 | 1016.2 |
| 20260507205911 | 27 | 218 | 0.0 | 6.4 | 0.00 | 0.00 | 0.00 | 56 | 1016.3 |
| 20260507205810 | 27 | 305 | 1.6 | 6.4 | 0.00 | 0.00 | 0.00 | 56 | 1016.2 |
| 20260507205733 | 27 | 305 | 1.6 | 6.4 | 0.00 | 0.00 | 0.00 | 56 | 1016.2 |
| 20260507205712 | 27 | 305 | 1.6 | 6.4 | 0.00 | 0.00 | 0.00 | 55 | 1016.2 |
| 20260507205611 | 27 | 305 | 1.6 | 6.4 | 0.00 | 0.00 | 0.00 | 56 | 1016.3 |
| 20260507205511 | 27 | 240 | 1.6 | 4.8 | 0.00 | 0.00 | 0.00 | 56 | 1016.3 |
| 20260507205411 | 27 | 240 | 1.6 | 4.8 | 0.00 | 0.00 | 0.00 | 57 | 1016.3 |
| 20260507205311 | 27 | 240 | 1.6 | 4.8 | 0.00 | 0.00 | 0.00 | 57 | 1016.4 |
| 20260507205232 | 27 | 240 | 1.6 | 4.8 | 0.00 | 0.00 | 0.00 | 56 | 1016.4 |
| 20260507205207 | 27 | 240 | 1.6 | 4.8 | 0.00 | 0.00 | 0.00 | 57 | 1016.4 |
| 20260507205107 | 27 | 99 | 1.6 | 3.2 | 0.00 | 0.00 | 0.00 | 56 | 1016.4 |
| 20260507205007 | 26 | 271 | 1.6 | 4.8 | 0.00 | 0.00 | 0.00 | 56 | 1016.3 |
| 20260507204907 | 26 | 150 | 1.6 | 4.8 | 0.00 | 0.00 | 0.00 | 57 | 1016.4 |
| 20260507204807 | 26 | 134 | 1.6 | 9.7 | 0.00 | 0.00 | 0.00 | 57 | 1016.4 |
| 20260507204733 | 26 | 127 | 1.6 | 9.7 | 0.00 | 0.00 | 0.00 | 57 | 1016.4 |
| 20260507204708 | 26 | 302 | 1.6 | 9.7 | 0.00 | 0.00 | 0.00 | 57 | 1016.4 |
| 20260507204607 | 26 | 304 | 1.6 | 9.7 | 0.00 | 0.00 | 0.00 | 58 | 1016.4 |
| 20260507204508 | 26 | 304 | 3.2 | 9.7 | 0.00 | 0.00 | 0.00 | 59 | 1016.4 |
| 20260507204407 | 26 | 99 | 3.2 | 9.7 | 0.00 | 0.00 | 0.00 | 58 | 1016.4 |
| 20260507204307 | 26 | 41 | 1.6 | 9.7 | 0.00 | 0.00 | 0.00 | 57 | 1016.4 |
| 20260507204232 | 26 | 43 | 1.6 | 9.7 | 0.00 | 0.00 | 0.00 | 57 | 1016.4 |
| 20260507204207 | 26 | 322 | 1.6 | 9.7 | 0.00 | 0.00 | 0.00 | 57 | 1016.4 |
| 20260507204108 | 26 | 323 | 1.6 | 9.7 | 0.00 | 0.00 | 0.00 | 57 | 1016.4 |
| 20260507204007 | 26 | 342 | 1.6 | 9.7 | 0.00 | 0.00 | 0.00 | 57 | 1016.4 |
| 20260507203908 | 26 | 358 | 1.6 | 9.7 | 0.00 | 0.00 | 0.00 | 56 | 1016.4 |
| 20260507203807 | 26 | 338 | 1.6 | 9.7 | 0.00 | 0.00 | 0.00 | 56 | 1016.4 |
| 20260507203734 | 27 | 355 | 1.6 | 9.7 | 0.00 | 0.00 | 0.00 | 57 | 1016.4 |
| 20260507203708 | 27 | 5 | 1.6 | 9.7 | 0.00 | 0.00 | 0.00 | 57 | 1016.4 |
| 20260507203607 | 26 | 291 | 1.6 | 9.7 | 0.00 | 0.00 | 0.00 | 58 | 1016.5 |
| 20260507203511 | 26 | 153 | 3.2 | 9.7 | 0.00 | 0.00 | 0.00 | 58 | 1016.4 |
| 20260507203407 | 26 | 154 | 3.2 | 9.7 | 0.00 | 0.00 | 0.00 | 59 | 1016.4 |
| 20260507203303 | 26 | 158 | 3.2 | 9.7 | 0.00 | 0.00 | 0.00 | 59 | 1016.5 |
| 20260507203230 | 26 | 159 | 3.2 | 9.7 | 0.00 | 0.00 | 0.00 | 59 | 1016.5 |
| 20260507203214 | 26 | 231 | 3.2 | 9.7 | 0.00 | 0.00 | 0.00 | 58 | 1016.5 |
| 20260507203203 | 26 | 330 | 3.2 | 9.7 | 0.00 | 0.00 | 0.00 | 59 | 1016.5 |
| 20260507203111 | 26 | 330 | 3.2 | 9.7 | 0.00 | 0.00 | 0.00 | 60 | 1016.5 |
| 20260507203103 | 26 | 330 | 3.2 | 9.7 | 0.00 | 0.00 | 0.00 | 60 | 1016.5 |
| 20260507202903 | 26 | 16 | 3.2 | 9.7 | 0.00 | 0.00 | 0.00 | 58 | 1016.5 |
| 20260507202841 | 26 | 126 | 3.2 | 9.7 | 0.00 | 0.00 | 0.00 | 58 | 1016.5 |
| 20260507202703 | 26 | 221 | 3.2 | 9.7 | 0.00 | 0.00 | 0.00 | 57 | 1016.5 |
| 20260507202604 | 26 | 235 | 3.2 | 9.7 | 0.00 | 0.00 | 0.00 | 58 | 1016.6 |
| 20260507202503 | 26 | 231 | 3.2 | 9.7 | 0.00 | 0.00 | 0.00 | 58 | 1016.6 |
| 20260507202402 | 26 | 138 | 3.2 | 8.0 | 0.00 | 0.00 | 0.00 | 59 | 1016.6 |
| 20260507202306 | 26 | 153 | 3.2 | 8.0 | 0.00 | 0.00 | 0.00 | 59 | 1016.6 |
| 20260507202229 | 26 | 303 | 3.2 | 8.0 | 0.00 | 0.00 | 0.00 | 59 | 1016.7 |
| 20260507202203 | 26 | 27 | 3.2 | 8.0 | 0.00 | 0.00 | 0.00 | 58 | 1016.7 |
| 20260507202104 | 26 | 11 | 3.2 | 8.0 | 0.00 | 0.00 | 0.00 | 58 | 1016.6 |
| 20260507202004 | 26 | 332 | 3.2 | 8.0 | 0.00 | 0.00 | 0.00 | 58 | 1016.6 |
| 20260507201903 | 26 | 267 | 3.2 | 8.0 | 0.00 | 0.00 | 0.00 | 59 | 1016.7 |
| 20260507201803 | 26 | 245 | 1.6 | 8.0 | 0.00 | 0.00 | 0.00 | 57 | 1016.7 |
| 20260507201729 | 26 | 231 | 1.6 | 8.0 | 0.00 | 0.00 | 0.00 | 57 | 1016.7 |
| 20260507201703 | 26 | 208 | 1.6 | 8.0 | 0.00 | 0.00 | 0.00 | 57 | 1016.7 |
| 20260507201603 | 26 | 211 | 1.6 | 4.8 | 0.00 | 0.00 | 0.00 | 57 | 1016.7 |
| 20260507201504 | 26 | 216 | 1.6 | 4.8 | 0.00 | 0.00 | 0.00 | 56 | 1016.7 |
| 20260507201359 | 26 | 225 | 1.6 | 4.8 | 0.00 | 0.00 | 0.00 | 57 | 1016.7 |
| 20260507201259 | 26 | 158 | 1.6 | 4.8 | 0.00 | 0.00 | 0.00 | 58 | 1016.7 |
| 20260507201230 | 26 | 120 | 1.6 | 4.8 | 0.00 | 0.00 | 0.00 | 59 | 1016.7 |
| 20260507201222 | 26 | 319 | 3.2 | 11.3 | 0.00 | 0.00 | 0.00 | 60 | 1016.7 |
| 20260507201159 | 26 | 207 | 1.6 | 6.4 | 0.00 | 0.00 | 0.00 | 60 | 1016.7 |
| 20260507201111 | 26 | 229 | 1.6 | 8.0 | 0.00 | 0.00 | 0.00 | 60 | 1016.7 |
| 20260507201102 | 26 | 236 | 3.2 | 11.3 | 0.00 | 0.00 | 0.00 | 60 | 1016.7 |
| 20260507200859 | 26 | 200 | 3.2 | 11.3 | 0.00 | 0.00 | 0.00 | 60 | 1016.8 |
| 20260507200840 | 26 | 319 | 3.2 | 11.3 | 0.00 | 0.00 | 0.00 | 60 | 1016.7 |
| 20260507200659 | 26 | 321 | 3.2 | 11.3 | 0.00 | 0.00 | 0.00 | 59 | 1016.7 |
| 20260507200559 | 26 | 340 | 3.2 | 11.3 | 0.00 | 0.00 | 0.00 | 59 | 1016.7 |
| 20260507200458 | 26 | 316 | 3.2 | 11.3 | 0.00 | 0.00 | 0.00 | 59 | 1016.8 |
| 20260507200359 | 26 | 235 | 4.8 | 11.3 | 0.00 | 0.00 | 0.00 | 60 | 1016.8 |
| 20260507200259 | 26 | 238 | 4.8 | 11.3 | 0.00 | 0.00 | 0.00 | 59 | 1016.8 |
| 20260507200242 | 26 | 316 | 4.8 | 11.3 | 0.00 | 0.00 | 0.00 | 59 | 1016.8 |
| 20260507200159 | 26 | 212 | 4.8 | 11.3 | 0.00 | 0.00 | 0.00 | 59 | 1016.8 |
| 20260507200100 | 26 | 217 | 4.8 | 11.3 | 0.00 | 0.00 | 0.00 | 59 | 1016.8 |
| 20260507195958 | 25 | 127 | 4.8 | 11.3 | 0.00 | 0.00 | 0.00 | 60 | 1016.8 |
| 20260507195859 | 25 | 176 | 4.8 | 11.3 | 0.00 | 0.00 | 0.00 | 59 | 1016.8 |
| 20260507195759 | 25 | 176 | 4.8 | 11.3 | 0.00 | 0.00 | 0.00 | 59 | 1016.8 |
| 20260507195733 | 25 | 150 | 4.8 | 11.3 | 0.00 | 0.00 | 0.00 | 59 | 1016.8 |
| 20260507195718 | 25 | 228 | 4.8 | 11.3 | 0.00 | 0.00 | 0.00 | 62 | 1017.0 |
| 20260507195659 | 25 | 240 | 4.8 | 11.3 | 0.00 | 0.00 | 0.00 | 59 | 1016.8 |
| 20260507195608 | 25 | 131 | 6.4 | 11.3 | 0.00 | 0.00 | 0.00 | 60 | 1016.8 |
| 20260507195454 | 25 | 146 | 4.8 | 11.3 | 0.00 | 0.00 | 0.00 | 61 | 1016.9 |
| 20260507195355 | 25 | 156 | 4.8 | 11.3 | 0.00 | 0.00 | 0.00 | 61 | 1016.9 |
| 20260507195344 | 25 | 191 | 4.8 | 11.3 | 0.00 | 0.00 | 0.00 | 62 | 1016.9 |
| 20260507195200 | 25 | 229 | 4.8 | 11.3 | 0.00 | 0.00 | 0.00 | 61 | 1017.0 |
| 20260507195055 | 25 | 229 | 4.8 | 11.3 | 0.00 | 0.00 | 0.00 | 61 | 1017.0 |
| 20260507194954 | 25 | 224 | 3.2 | 11.3 | 0.00 | 0.00 | 0.00 | 60 | 1017.0 |
| 20260507194945 | 25 | 243 | 3.2 | 9.7 | 0.00 | 0.00 | 0.00 | 59 | 1017.1 |
| 20260507194855 | 25 | 225 | 3.2 | 11.3 | 0.00 | 0.00 | 0.00 | 59 | 1017.0 |
| 20260507194836 | 25 | 228 | 3.2 | 11.3 | 0.00 | 0.00 | 0.00 | 59 | 1017.1 |
| 20260507194655 | 25 | 229 | 3.2 | 8.0 | 0.00 | 0.00 | 0.00 | 59 | 1017.1 |
| 20260507194555 | 25 | 228 | 1.6 | 8.0 | 0.00 | 0.00 | 0.00 | 60 | 1017.1 |
| 20260507194454 | 25 | 236 | 1.6 | 8.0 | 0.00 | 0.00 | 0.00 | 61 | 1017.0 |
| 20260507194355 | 25 | 236 | 3.2 | 8.0 | 0.00 | 0.00 | 0.00 | 59 | 1017.1 |
| 20260507194255 | 25 | 214 | 3.2 | 8.0 | 0.00 | 0.00 | 0.00 | 60 | 1017.1 |
| 20260507194225 | 25 | 236 | 3.2 | 8.0 | 0.00 | 0.00 | 0.00 | 60 | 1017.1 |
| 20260507194155 | 25 | 238 | 3.2 | 9.7 | 0.00 | 0.00 | 0.00 | 60 | 1017.1 |
| 20260507194054 | 25 | 228 | 3.2 | 9.7 | 0.00 | 0.00 | 0.00 | 61 | 1017.1 |
| 20260507193955 | 25 | 216 | 3.2 | 9.7 | 0.00 | 0.00 | 0.00 | 62 | 1017.1 |
| 20260507193855 | 25 | 215 | 3.2 | 9.7 | 0.00 | 0.00 | 0.00 | 61 | 1017.1 |
| 20260507193756 | 25 | 208 | 3.2 | 9.7 | 0.00 | 0.00 | 0.00 | 61 | 1017.1 |
| 20260507193724 | 25 | 208 | 3.2 | 9.7 | 0.00 | 0.00 | 0.00 | 61 | 1017.1 |
| 20260507193655 | 25 | 203 | 3.2 | 9.7 | 0.00 | 0.00 | 0.00 | 61 | 1017.1 |
| 20260507193551 | 25 | 197 | 3.2 | 9.7 | 0.00 | 0.00 | 0.00 | 61 | 1017.2 |
| 20260507193451 | 25 | 225 | 3.2 | 9.7 | 0.00 | 0.00 | 0.00 | 61 | 1017.2 |
| 20260507193351 | 25 | 249 | 3.2 | 9.7 | 0.00 | 0.00 | 0.00 | 60 | 1017.2 |
| 20260507193251 | 25 | 226 | 3.2 | 9.7 | 0.00 | 0.00 | 0.00 | 60 | 1017.2 |
| 20260507193225 | 25 | 240 | 3.2 | 9.7 | 0.00 | 0.00 | 0.00 | 61 | 1017.2 |
| 20260507193151 | 25 | 250 | 3.2 | 11.3 | 0.00 | 0.00 | 0.00 | 62 | 1017.2 |
| 20260507193054 | 25 | 204 | 3.2 | 11.3 | 0.00 | 0.00 | 0.00 | 63 | 1017.3 |
| 20260507192950 | 25 | 204 | 3.2 | 11.3 | 0.00 | 0.00 | 0.00 | 63 | 1017.3 |
| 20260507192851 | 24 | 204 | 3.2 | 11.3 | 0.00 | 0.00 | 0.00 | 63 | 1017.2 |
| 20260507192751 | 24 | 245 | 3.2 | 11.3 | 0.00 | 0.00 | 0.00 | 63 | 1017.2 |
| 20260507192730 | 24 | 233 | 3.2 | 11.3 | 0.00 | 0.00 | 0.00 | 63 | 1017.3 |
| 20260507192651 | 24 | 238 | 3.2 | 11.3 | 0.00 | 0.00 | 0.00 | 63 | 1017.3 |
| 20260507192551 | 24 | 229 | 3.2 | 11.3 | 0.00 | 0.00 | 0.00 | 61 | 1017.3 |
| 20260507192451 | 24 | 233 | 1.6 | 11.3 | 0.00 | 0.00 | 0.00 | 62 | 1017.3 |
| 20260507192350 | 24 | 248 | 1.6 | 11.3 | 0.00 | 0.00 | 0.00 | 61 | 1017.4 |
| 20260507192251 | 25 | 257 | 1.6 | 11.3 | 0.00 | 0.00 | 0.00 | 62 | 1017.4 |
| 20260507192225 | 25 | 236 | 1.6 | 11.3 | 0.00 | 0.00 | 0.00 | 62 | 1017.3 |
| 20260507192151 | 25 | 321 | 1.6 | 4.8 | 0.00 | 0.00 | 0.00 | 62 | 1017.3 |
| 20260507192051 | 25 | 44 | 0.0 | 4.8 | 0.00 | 0.00 | 0.00 | 62 | 1017.3 |
| 20260507191956 | 24 | 286 | 1.6 | 6.4 | 0.00 | 0.00 | 0.00 | 62 | 1017.4 |
| 20260507191951 | 24 | 309 | 1.6 | 4.8 | 0.00 | 0.00 | 0.00 | 63 | 1017.4 |
| 20260507191851 | 24 | 53 | 1.6 | 4.8 | 0.00 | 0.00 | 0.00 | 62 | 1017.4 |
| 20260507191834 | 24 | 61 | 1.6 | 6.4 | 0.00 | 0.00 | 0.00 | 62 | 1017.4 |
| 20260507191650 | 24 | 44 | 1.6 | 6.4 | 0.00 | 0.00 | 0.00 | 61 | 1017.4 |
| 20260507191546 | 24 | 30 | 1.6 | 6.4 | 0.00 | 0.00 | 0.00 | 62 | 1017.5 |
| 20260507191446 | 24 | 314 | 1.6 | 6.4 | 0.00 | 0.00 | 0.00 | 63 | 1017.5 |
| 20260507191347 | 24 | 207 | 1.6 | 11.3 | 0.00 | 0.00 | 0.00 | 63 | 1017.5 |
| 20260507191247 | 24 | 197 | 3.2 | 11.3 | 0.00 | 0.00 | 0.00 | 62 | 1017.5 |
| 20260507191226 | 24 | 198 | 3.2 | 11.3 | 0.00 | 0.00 | 0.00 | 62 | 1017.6 |
| 20260507191147 | 24 | 198 | 3.2 | 11.3 | 0.00 | 0.00 | 0.00 | 63 | 1017.6 |
| 20260507191047 | 23 | 235 | 3.2 | 11.3 | 0.00 | 0.00 | 0.00 | 65 | 1017.5 |
| 20260507190955 | 23 | 238 | 4.8 | 11.3 | 0.00 | 0.00 | 0.00 | 65 | 1017.5 |
| 20260507190947 | 23 | 235 | 3.2 | 11.3 | 0.00 | 0.00 | 0.00 | 65 | 1017.5 |
| 20260507190847 | 23 | 218 | 3.2 | 11.3 | 0.00 | 0.00 | 0.00 | 66 | 1017.6 |
| 20260507190836 | 23 | 238 | 3.2 | 11.3 | 0.00 | 0.00 | 0.00 | 65 | 1017.6 |
| 20260507190650 | 23 | 241 | 4.8 | 11.3 | 0.00 | 0.00 | 0.00 | 67 | 1017.5 |
| 20260507190547 | 23 | 150 | 4.8 | 11.3 | 0.00 | 0.00 | 0.00 | 66 | 1017.5 |
| 20260507190447 | 22 | 211 | 4.8 | 11.3 | 0.00 | 0.00 | 0.00 | 66 | 1017.6 |
| 20260507190347 | 22 | 195 | 4.8 | 11.3 | 0.00 | 0.00 | 0.00 | 66 | 1017.6 |
| 20260507190247 | 22 | 208 | 4.8 | 11.3 | 0.00 | 0.00 | 0.00 | 65 | 1017.6 |
| 20260507190223 | 22 | 232 | 3.2 | 11.3 | 0.00 | 0.00 | 0.00 | 65 | 1017.6 |
| 20260507190147 | 22 | 235 | 3.2 | 11.3 | 0.00 | 0.00 | 0.00 | 66 | 1017.6 |
| 20260507190047 | 22 | 226 | 3.2 | 11.3 | 0.00 | 0.00 | 0.00 | 65 | 1017.6 |
| 20260507185947 | 22 | 218 | 3.2 | 11.3 | 0.00 | 0.00 | 0.00 | 65 | 1017.6 |
| 20260507185847 | 23 | 218 | 3.2 | 11.3 | 0.00 | 0.00 | 0.00 | 64 | 1017.7 |
| 20260507185746 | 23 | 248 | 3.2 | 11.3 | 0.00 | 0.00 | 0.00 | 65 | 1017.6 |
| 20260507185721 | 23 | 240 | 3.2 | 11.3 | 0.00 | 0.00 | 0.00 | 65 | 1017.6 |
| 20260507185643 | 23 | 224 | 3.2 | 9.7 | 0.00 | 0.00 | 0.00 | 67 | 1017.7 |
| 20260507185544 | 22 | 232 | 3.2 | 9.7 | 0.00 | 0.00 | 0.00 | 66 | 1017.7 |
| 20260507185443 | 22 | 259 | 3.2 | 9.7 | 0.00 | 0.00 | 0.00 | 65 | 1017.7 |
| 20260507185343 | 22 | 225 | 3.2 | 9.7 | 0.00 | 0.00 | 0.00 | 64 | 1017.7 |
| 20260507185243 | 22 | 233 | 3.2 | 9.7 | 0.00 | 0.00 | 0.00 | 65 | 1017.7 |
| 20260507185221 | 22 | 260 | 3.2 | 9.7 | 0.00 | 0.00 | 0.00 | 65 | 1017.7 |
| 20260507185143 | 22 | 233 | 3.2 | 9.7 | 0.00 | 0.00 | 0.00 | 66 | 1017.7 |
| 20260507185043 | 22 | 228 | 3.2 | 9.7 | 0.00 | 0.00 | 0.00 | 66 | 1017.7 |
| 20260507184947 | 22 | 278 | 3.2 | 11.3 | 0.00 | 0.00 | 0.00 | 66 | 1017.8 |
| 20260507184942 | 22 | 231 | 3.2 | 9.7 | 0.00 | 0.00 | 0.00 | 67 | 1017.8 |
| 20260507184843 | 22 | 242 | 3.2 | 11.3 | 0.00 | 0.00 | 0.00 | 67 | 1017.8 |
| 20260507184833 | 22 | 278 | 3.2 | 11.3 | 0.00 | 0.00 | 0.00 | 67 | 1017.8 |
| 20260507184643 | 22 | 226 | 3.2 | 11.3 | 0.00 | 0.00 | 0.00 | 66 | 1017.7 |
| 20260507184542 | 22 | 250 | 3.2 | 11.3 | 0.00 | 0.00 | 0.00 | 65 | 1017.8 |
| 20260507184443 | 22 | 211 | 3.2 | 11.3 | 0.00 | 0.00 | 0.00 | 65 | 1017.8 |
| 20260507184343 | 22 | 208 | 3.2 | 11.3 | 0.00 | 0.00 | 0.00 | 65 | 1017.8 |
| 20260507184243 | 22 | 233 | 3.2 | 11.3 | 0.00 | 0.00 | 0.00 | 66 | 1017.8 |
| 20260507184221 | 22 | 224 | 3.2 | 11.3 | 0.00 | 0.00 | 0.00 | 67 | 1017.8 |
| 20260507184145 | 22 | 228 | 3.2 | 11.3 | 0.00 | 0.00 | 0.00 | 67 | 1017.7 |
| 20260507184043 | 22 | 226 | 3.2 | 11.3 | 0.00 | 0.00 | 0.00 | 68 | 1017.8 |
| 20260507183944 | 22 | 226 | 3.2 | 11.3 | 0.00 | 0.00 | 0.00 | 67 | 1017.8 |
| 20260507183839 | 22 | 224 | 3.2 | 9.7 | 0.00 | 0.00 | 0.00 | 67 | 1017.8 |
| 20260507183721 | 22 | 207 | 3.2 | 9.7 | 0.00 | 0.00 | 0.00 | 67 | 1017.8 |
| 20260507183639 | 22 | 200 | 3.2 | 9.7 | 0.00 | 0.00 | 0.00 | 67 | 1017.8 |
| 20260507183539 | 22 | 231 | 3.2 | 9.7 | 0.00 | 0.00 | 0.00 | 66 | 1017.8 |
| 20260507183439 | 22 | 235 | 3.2 | 9.7 | 0.00 | 0.00 | 0.00 | 67 | 1017.9 |
| 20260507183339 | 22 | 221 | 4.8 | 9.7 | 0.00 | 0.00 | 0.00 | 67 | 1017.9 |
| 20260507183239 | 22 | 233 | 4.8 | 12.9 | 0.00 | 0.00 | 0.00 | 67 | 1017.9 |
| 20260507183222 | 22 | 252 | 4.8 | 12.9 | 0.00 | 0.00 | 0.00 | 67 | 1017.9 |
| 20260507183144 | 22 | 217 | 4.8 | 12.9 | 0.00 | 0.00 | 0.00 | 67 | 1017.9 |
| 20260507183039 | 22 | 216 | 4.8 | 12.9 | 0.00 | 0.00 | 0.00 | 66 | 1017.9 |
| 20260507182940 | 22 | 233 | 3.2 | 12.9 | 0.00 | 0.00 | 0.00 | 67 | 1017.9 |
| 20260507182839 | 22 | 239 | 3.2 | 12.9 | 0.00 | 0.00 | 0.00 | 68 | 1017.9 |
| 20260507182721 | 22 | 155 | 3.2 | 12.9 | 0.00 | 0.00 | 0.00 | 69 | 1017.9 |
| 20260507182639 | 22 | 155 | 3.2 | 12.9 | 0.00 | 0.00 | 0.00 | 67 | 1017.9 |
| 20260507182541 | 22 | 146 | 3.2 | 12.9 | 0.00 | 0.00 | 0.00 | 68 | 1017.9 |
| 20260507182445 | 22 | 150 | 1.6 | 9.7 | 0.00 | 0.00 | 0.00 | 65 | 1017.9 |
| 20260507182439 | 22 | 243 | 3.2 | 12.9 | 0.00 | 0.00 | 0.00 | 67 | 1017.9 |
| 20260507182342 | 22 | 205 | 3.2 | 12.9 | 0.00 | 0.00 | 0.00 | 66 | 1017.9 |
| 20260507182333 | 22 | 201 | 1.6 | 9.7 | 0.00 | 0.00 | 0.00 | 65 | 1017.9 |
| 20260507182139 | 22 | 153 | 1.6 | 9.7 | 0.00 | 0.00 | 0.00 | 66 | 1017.9 |
| 20260507182039 | 22 | 210 | 1.6 | 9.7 | 0.00 | 0.00 | 0.00 | 67 | 1018.0 |
| 20260507181944 | 22 | 314 | 3.2 | 9.7 | 0.00 | 0.00 | 0.00 | 69 | 1018.0 |
| 20260507181935 | 22 | 314 | 3.2 | 9.7 | 0.00 | 0.00 | 0.00 | 67 | 1018.0 |
| 20260507181835 | 22 | 314 | 3.2 | 9.7 | 0.00 | 0.00 | 0.00 | 68 | 1018.0 |
| 20260507181827 | 22 | 314 | 3.2 | 9.7 | 0.00 | 0.00 | 0.00 | 69 | 1018.0 |
| 20260507181635 | 22 | 262 | 3.2 | 9.7 | 0.00 | 0.00 | 0.00 | 68 | 1018.0 |
| 20260507181535 | 22 | 240 | 3.2 | 9.7 | 0.00 | 0.00 | 0.00 | 68 | 1017.9 |
| 20260507181435 | 22 | 216 | 3.2 | 9.7 | 0.00 | 0.00 | 0.00 | 67 | 1017.9 |
| 20260507181335 | 22 | 186 | 3.2 | 9.7 | 0.00 | 0.00 | 0.00 | 68 | 1017.9 |
| 20260507181235 | 21 | 234 | 3.2 | 11.3 | 0.00 | 0.00 | 0.00 | 69 | 1018.0 |
| 20260507181217 | 21 | 231 | 3.2 | 11.3 | 0.00 | 0.00 | 0.00 | 69 | 1018.0 |
| 20260507181135 | 21 | 74 | 4.8 | 11.3 | 0.00 | 0.00 | 0.00 | 68 | 1018.0 |
| 20260507181035 | 21 | 139 | 3.2 | 11.3 | 0.00 | 0.00 | 0.00 | 68 | 1018.0 |
| 20260507180934 | 21 | 242 | 3.2 | 11.3 | 0.00 | 0.00 | 0.00 | 68 | 1018.0 |
| 20260507180835 | 21 | 252 | 3.2 | 11.3 | 0.00 | 0.00 | 0.00 | 69 | 1018.0 |
| 20260507180740 | 21 | 212 | 3.2 | 11.3 | 0.00 | 0.00 | 0.00 | 69 | 1017.9 |
| 20260507180730 | 21 | 208 | 3.2 | 11.3 | 0.00 | 0.00 | 0.00 | 69 | 1017.9 |
| 20260507180638 | 21 | 143 | 3.2 | 11.3 | 0.00 | 0.00 | 0.00 | 69 | 1018.0 |
| 20260507180535 | 21 | 225 | 3.2 | 11.3 | 0.00 | 0.00 | 0.00 | 69 | 1018.0 |
| 20260507180439 | 21 | 212 | 1.6 | 8.0 | 0.00 | 0.00 | 0.00 | 67 | 1018.0 |
| 20260507180434 | 21 | 187 | 3.2 | 11.3 | 0.00 | 0.00 | 0.00 | 67 | 1018.0 |
| 20260507180336 | 21 | 233 | 1.6 | 11.3 | 0.00 | 0.00 | 0.00 | 67 | 1018.0 |
| 20260507180327 | 21 | 236 | 1.6 | 8.0 | 0.00 | 0.00 | 0.00 | 67 | 1018.0 |
| 20260507180135 | 21 | 163 | 1.6 | 8.0 | 0.00 | 0.00 | 0.00 | 67 | 1018.0 |
| 20260507180031 | 21 | 219 | 1.6 | 8.0 | 0.00 | 0.00 | 0.00 | 69 | 1018.0 |
| 20260507175931 | 21 | 224 | 1.6 | 8.0 | 0.00 | 0.00 | 0.00 | 68 | 1018.0 |
| 20260507175831 | 21 | 224 | 1.6 | 8.0 | 0.00 | 0.00 | 0.00 | 68 | 1018.0 |
| 20260507175731 | 21 | 226 | 1.6 | 8.0 | 0.00 | 0.00 | 0.00 | 68 | 1018.0 |
| 20260507175720 | 21 | 229 | 1.6 | 8.0 | 0.00 | 0.00 | 0.00 | 68 | 1018.0 |
| 20260507175631 | 21 | 233 | 1.6 | 8.0 | 0.00 | 0.00 | 0.00 | 67 | 1018.1 |
| 20260507175531 | 21 | 232 | 1.6 | 6.4 | 0.00 | 0.00 | 0.00 | 68 | 1018.1 |
| 20260507175431 | 21 | 238 | 1.6 | 8.0 | 0.00 | 0.00 | 0.00 | 69 | 1018.1 |
| 20260507175331 | 21 | 143 | 1.6 | 8.0 | 0.00 | 0.00 | 0.00 | 69 | 1018.1 |
| 20260507175234 | 21 | 138 | 1.6 | 8.0 | 0.00 | 0.00 | 0.00 | 68 | 1018.1 |
| 20260507175216 | 21 | 139 | 1.6 | 8.0 | 0.00 | 0.00 | 0.00 | 68 | 1018.1 |
| 20260507175131 | 21 | 232 | 1.6 | 8.0 | 0.00 | 0.00 | 0.00 | 68 | 1018.1 |
| 20260507175031 | 21 | 233 | 1.6 | 8.0 | 0.00 | 0.00 | 0.00 | 68 | 1018.1 |
| 20260507174931 | 21 | 233 | 1.6 | 8.0 | 0.00 | 0.00 | 0.00 | 68 | 1018.1 |
| 20260507174830 | 21 | 218 | 1.6 | 8.0 | 0.00 | 0.00 | 0.00 | 68 | 1018.1 |
| 20260507174732 | 21 | 217 | 1.6 | 8.0 | 0.00 | 0.00 | 0.00 | 69 | 1018.0 |
| 20260507174719 | 21 | 298 | 1.6 | 8.0 | 0.00 | 0.00 | 0.00 | 69 | 1018.0 |
| 20260507174631 | 21 | 219 | 1.6 | 8.0 | 0.00 | 0.00 | 0.00 | 69 | 1018.1 |
| 20260507174532 | 21 | 233 | 0.0 | 8.0 | 0.00 | 0.00 | 0.00 | 69 | 1018.1 |
| 20260507174431 | 21 | 223 | 0.0 | 3.2 | 0.00 | 0.00 | 0.00 | 70 | 1018.1 |
| 20260507174331 | 21 | 222 | 0.0 | 3.2 | 0.00 | 0.00 | 0.00 | 70 | 1018.1 |
| 20260507174217 | 21 | 222 | 0.0 | 3.2 | 0.00 | 0.00 | 0.00 | 70 | 1018.1 |
| 20260507174126 | 21 | 278 | 0.0 | 3.2 | 0.00 | 0.00 | 0.00 | 70 | 1018.1 |
| 20260507174027 | 21 | 278 | 0.0 | 3.2 | 0.00 | 0.00 | 0.00 | 70 | 1018.1 |
| 20260507173927 | 21 | 278 | 0.0 | 3.2 | 0.00 | 0.00 | 0.00 | 70 | 1018.1 |
| 20260507173828 | 21 | 139 | 0.0 | 3.2 | 0.00 | 0.00 | 0.00 | 70 | 1018.1 |
| 20260507173716 | 21 | 138 | 0.0 | 3.2 | 0.00 | 0.00 | 0.00 | 71 | 1018.1 |
| 20260507173626 | 21 | 283 | 0.0 | 3.2 | 0.00 | 0.00 | 0.00 | 71 | 1018.1 |
| 20260507173527 | 21 | 283 | 1.6 | 6.4 | 0.00 | 0.00 | 0.00 | 72 | 1018.1 |
| 20260507173427 | 21 | 283 | 1.6 | 9.7 | 0.00 | 0.00 | 0.00 | 72 | 1018.1 |
| 20260507173327 | 20 | 232 | 1.6 | 9.7 | 0.00 | 0.00 | 0.00 | 72 | 1018.1 |
| 20260507173227 | 20 | 226 | 1.6 | 9.7 | 0.00 | 0.00 | 0.00 | 72 | 1018.1 |
| 20260507173213 | 20 | 226 | 1.6 | 9.7 | 0.00 | 0.00 | 0.00 | 73 | 1018.1 |
| 20260507173127 | 20 | 226 | 1.6 | 9.7 | 0.00 | 0.00 | 0.00 | 73 | 1018.1 |
| 20260507173027 | 20 | 226 | 1.6 | 9.7 | 0.00 | 0.00 | 0.00 | 73 | 1018.1 |
| 20260507172927 | 20 | 226 | 1.6 | 9.7 | 0.00 | 0.00 | 0.00 | 73 | 1018.1 |
| 20260507172827 | 20 | 226 | 3.2 | 9.7 | 0.00 | 0.00 | 0.00 | 73 | 1018.1 |
| 20260507172714 | 20 | 214 | 3.2 | 9.7 | 0.00 | 0.00 | 0.00 | 73 | 1018.2 |
| 20260507172627 | 20 | 260 | 3.2 | 9.7 | 0.00 | 0.00 | 0.00 | 73 | 1018.2 |
| 20260507172527 | 20 | 235 | 1.6 | 11.3 | 0.00 | 0.00 | 0.00 | 73 | 1018.1 |
| 20260507172428 | 20 | 231 | 1.6 | 11.3 | 0.00 | 0.00 | 0.00 | 74 | 1018.1 |
| 20260507172328 | 20 | 214 | 1.6 | 11.3 | 0.00 | 0.00 | 0.00 | 74 | 1018.1 |
| 20260507172213 | 20 | 238 | 1.6 | 11.3 | 0.00 | 0.00 | 0.00 | 74 | 1018.2 |
| 20260507172158 | 19 | 285 | 4.8 | 11.3 | 0.00 | 0.00 | 0.00 | 75 | 1018.2 |
| 20260507172123 | 20 | 238 | 3.2 | 11.3 | 0.00 | 0.00 | 0.00 | 75 | 1018.1 |
| 20260507172042 | 19 | 200 | 3.2 | 11.3 | 0.00 | 0.00 | 0.00 | 75 | 1018.2 |
| 20260507171924 | 19 | 250 | 3.2 | 11.3 | 0.00 | 0.00 | 0.00 | 74 | 1018.1 |
| 20260507171832 | 19 | 250 | 3.2 | 11.3 | 0.00 | 0.00 | 0.00 | 75 | 1018.2 |
| 20260507171824 | 19 | 285 | 4.8 | 11.3 | 0.00 | 0.00 | 0.00 | 75 | 1018.2 |
| 20260507171623 | 19 | 285 | 3.2 | 11.3 | 0.00 | 0.00 | 0.00 | 74 | 1018.1 |
| 20260507171523 | 19 | 238 | 3.2 | 11.3 | 0.00 | 0.00 | 0.00 | 75 | 1018.2 |
| 20260507171423 | 19 | 232 | 3.2 | 11.3 | 0.00 | 0.00 | 0.00 | 76 | 1018.2 |
| 20260507171323 | 19 | 235 | 3.2 | 11.3 | 0.00 | 0.00 | 0.00 | 76 | 1018.2 |
| 20260507171215 | 18 | 233 | 3.2 | 11.3 | 0.00 | 0.00 | 0.00 | 76 | 1018.2 |
| 20260507171123 | 18 | 233 | 3.2 | 11.3 | 0.00 | 0.00 | 0.00 | 75 | 1018.3 |
| 20260507171023 | 18 | 221 | 1.6 | 11.3 | 0.00 | 0.00 | 0.00 | 75 | 1018.2 |
| 20260507170923 | 19 | 215 | 1.6 | 11.3 | 0.00 | 0.00 | 0.00 | 74 | 1018.3 |
| 20260507170823 | 19 | 214 | 1.6 | 11.3 | 0.00 | 0.00 | 0.00 | 75 | 1018.3 |
| 20260507170724 | 19 | 217 | 1.6 | 6.4 | 0.00 | 0.00 | 0.00 | 76 | 1018.3 |
| 20260507170714 | 19 | 219 | 1.6 | 6.4 | 0.00 | 0.00 | 0.00 | 76 | 1018.3 |
| 20260507170623 | 18 | 251 | 1.6 | 8.0 | 0.00 | 0.00 | 0.00 | 77 | 1018.2 |
| 20260507170522 | 18 | 250 | 3.2 | 9.7 | 0.00 | 0.00 | 0.00 | 77 | 1018.3 |
| 20260507170423 | 18 | 250 | 3.2 | 9.7 | 0.00 | 0.00 | 0.00 | 77 | 1018.3 |
| 20260507170319 | 18 | 314 | 3.2 | 9.7 | 0.00 | 0.00 | 0.00 | 77 | 1018.3 |
| 20260507170223 | 18 | 314 | 3.2 | 9.7 | 0.00 | 0.00 | 0.00 | 78 | 1018.3 |
| 20260507170213 | 18 | 315 | 3.2 | 9.7 | 0.00 | 0.00 | 0.00 | 78 | 1018.3 |
| 20260507170119 | 18 | 270 | 3.2 | 9.7 | 0.00 | 0.00 | 0.00 | 78 | 1018.3 |
| 20260507170019 | 18 | 270 | 3.2 | 9.7 | 0.00 | 0.00 | 0.00 | 79 | 1018.3 |
| 20260507165919 | 18 | 270 | 4.8 | 9.7 | 0.00 | 0.00 | 0.00 | 78 | 1018.3 |
| 20260507165819 | 18 | 235 | 4.8 | 9.7 | 0.00 | 0.00 | 0.00 | 78 | 1018.3 |
| 20260507165723 | 18 | 146 | 4.8 | 9.7 | 0.00 | 0.00 | 0.00 | 77 | 1018.2 |
| 20260507165713 | 18 | 161 | 4.8 | 9.7 | 0.00 | 0.00 | 0.00 | 77 | 1018.2 |
| 20260507165620 | 18 | 225 | 4.8 | 9.7 | 0.00 | 0.00 | 0.00 | 78 | 1018.3 |
| 20260507165519 | 18 | 245 | 3.2 | 9.7 | 0.00 | 0.00 | 0.00 | 78 | 1018.3 |
| 20260507165419 | 18 | 221 | 3.2 | 9.7 | 0.00 | 0.00 | 0.00 | 79 | 1018.3 |
| 20260507165319 | 18 | 236 | 3.2 | 9.7 | 0.00 | 0.00 | 0.00 | 79 | 1018.2 |
| 20260507165213 | 18 | 236 | 3.2 | 9.7 | 0.00 | 0.00 | 0.00 | 79 | 1018.3 |
| 20260507165119 | 18 | 256 | 3.2 | 9.7 | 0.00 | 0.00 | 0.00 | 78 | 1018.3 |
| 20260507165019 | 18 | 269 | 3.2 | 9.7 | 0.00 | 0.00 | 0.00 | 77 | 1018.3 |
| 20260507164918 | 18 | 212 | 1.6 | 9.7 | 0.00 | 0.00 | 0.00 | 77 | 1018.3 |
| 20260507164819 | 18 | 218 | 1.6 | 9.7 | 0.00 | 0.00 | 0.00 | 77 | 1018.3 |
| 20260507164719 | 18 | 256 | 1.6 | 9.7 | 0.00 | 0.00 | 0.00 | 78 | 1018.3 |
| 20260507164709 | 18 | 250 | 1.6 | 9.7 | 0.00 | 0.00 | 0.00 | 78 | 1018.3 |
| 20260507164619 | 18 | 238 | 1.6 | 8.0 | 0.00 | 0.00 | 0.00 | 78 | 1018.3 |
| 20260507164519 | 18 | 238 | 1.6 | 8.0 | 0.00 | 0.00 | 0.00 | 77 | 1018.3 |
| 20260507164415 | 18 | 238 | 1.6 | 8.0 | 0.00 | 0.00 | 0.00 | 79 | 1018.3 |
| 20260507164315 | 18 | 304 | 1.6 | 6.4 | 0.00 | 0.00 | 0.00 | 79 | 1018.3 |
| 20260507164218 | 18 | 305 | 1.6 | 6.4 | 0.00 | 0.00 | 0.00 | 79 | 1018.3 |
| 20260507164208 | 18 | 242 | 1.6 | 6.4 | 0.00 | 0.00 | 0.00 | 79 | 1018.3 |
| 20260507164115 | 18 | 207 | 1.6 | 6.4 | 0.00 | 0.00 | 0.00 | 80 | 1018.2 |
| 20260507164015 | 18 | 207 | 1.6 | 6.4 | 0.00 | 0.00 | 0.00 | 79 | 1018.3 |
| 20260507163915 | 17 | 207 | 1.6 | 6.4 | 0.00 | 0.00 | 0.00 | 79 | 1018.2 |
| 20260507163815 | 17 | 207 | 1.6 | 6.4 | 0.00 | 0.00 | 0.00 | 78 | 1018.2 |
| 20260507163709 | 17 | 224 | 1.6 | 6.4 | 0.00 | 0.00 | 0.00 | 79 | 1018.2 |
| 20260507163615 | 17 | 212 | 1.6 | 6.4 | 0.00 | 0.00 | 0.00 | 79 | 1018.2 |
| 20260507163515 | 17 | 219 | 0.0 | 6.4 | 0.00 | 0.00 | 0.00 | 80 | 1018.2 |
| 20260507163415 | 17 | 233 | 0.0 | 6.4 | 0.00 | 0.00 | 0.00 | 80 | 1018.3 |
| 20260507163316 | 17 | 233 | 1.6 | 6.4 | 0.00 | 0.00 | 0.00 | 80 | 1018.3 |
| 20260507163221 | 17 | 231 | 0.0 | 6.4 | 0.00 | 0.00 | 0.00 | 81 | 1018.3 |
| 20260507163211 | 17 | 232 | 0.0 | 6.4 | 0.00 | 0.00 | 0.00 | 81 | 1018.3 |
| 20260507163015 | 17 | 232 | 1.6 | 6.4 | 0.00 | 0.00 | 0.00 | 81 | 1018.3 |
| 20260507162915 | 17 | 232 | 1.6 | 6.4 | 0.00 | 0.00 | 0.00 | 81 | 1018.3 |
| 20260507162815 | 17 | 231 | 1.6 | 6.4 | 0.00 | 0.00 | 0.00 | 82 | 1018.3 |
| 20260507162718 | 17 | 230 | 1.6 | 6.4 | 0.00 | 0.00 | 0.00 | 82 | 1018.3 |
| 20260507162708 | 17 | 231 | 1.6 | 6.4 | 0.00 | 0.00 | 0.00 | 82 | 1018.3 |
| 20260507162615 | 17 | 253 | 1.6 | 4.8 | 0.00 | 0.00 | 0.00 | 83 | 1018.3 |
| 20260507162510 | 17 | 49 | 1.6 | 6.4 | 0.00 | 0.00 | 0.00 | 83 | 1018.3 |
| 20260507162411 | 17 | 179 | 3.2 | 6.4 | 0.00 | 0.00 | 0.00 | 82 | 1018.3 |
| 20260507162311 | 17 | 222 | 3.2 | 6.4 | 0.00 | 0.00 | 0.00 | 84 | 1018.4 |
| 20260507162212 | 16 | 222 | 3.2 | 6.4 | 0.00 | 0.00 | 0.00 | 83 | 1018.4 |
| 20260507162111 | 16 | 222 | 3.2 | 6.4 | 0.00 | 0.00 | 0.00 | 83 | 1018.4 |
| 20260507162011 | 16 | 238 | 3.2 | 6.4 | 0.00 | 0.00 | 0.00 | 82 | 1018.4 |
| 20260507161911 | 16 | 225 | 3.2 | 6.4 | 0.00 | 0.00 | 0.00 | 82 | 1018.4 |
| 20260507161811 | 16 | 224 | 3.2 | 6.4 | 0.00 | 0.00 | 0.00 | 82 | 1018.4 |
| 20260507161713 | 16 | 172 | 1.6 | 6.4 | 0.00 | 0.00 | 0.00 | 82 | 1018.4 |
| 20260507161611 | 16 | 215 | 1.6 | 6.4 | 0.00 | 0.00 | 0.00 | 82 | 1018.4 |
| 20260507161510 | 16 | 164 | 1.6 | 6.4 | 0.00 | 0.00 | 0.00 | 82 | 1018.4 |
| 20260507161411 | 16 | 200 | 1.6 | 8.0 | 0.00 | 0.00 | 0.00 | 82 | 1018.4 |
| 20260507161310 | 16 | 225 | 1.6 | 8.0 | 0.00 | 0.00 | 0.00 | 82 | 1018.4 |
| 20260507161213 | 16 | 226 | 1.6 | 8.0 | 0.00 | 0.00 | 0.00 | 82 | 1018.4 |
| 20260507161111 | 16 | 226 | 1.6 | 8.0 | 0.00 | 0.00 | 0.00 | 84 | 1018.4 |
| 20260507161011 | 16 | 228 | 1.6 | 8.0 | 0.00 | 0.00 | 0.00 | 84 | 1018.4 |
| 20260507160911 | 16 | 222 | 1.6 | 8.0 | 0.00 | 0.00 | 0.00 | 84 | 1018.4 |
| 20260507160810 | 16 | 232 | 1.6 | 8.0 | 0.00 | 0.00 | 0.00 | 84 | 1018.4 |
| 20260507160713 | 16 | 232 | 1.6 | 8.0 | 0.00 | 0.00 | 0.00 | 84 | 1018.4 |
| 20260507160607 | 16 | 232 | 1.6 | 8.0 | 0.00 | 0.00 | 0.00 | 84 | 1018.4 |
| 20260507160507 | 16 | 232 | 1.6 | 8.0 | 0.00 | 0.00 | 0.00 | 84 | 1018.4 |
| 20260507160407 | 16 | 231 | 0.0 | 6.4 | 0.00 | 0.00 | 0.00 | 85 | 1018.4 |
| 20260507160307 | 16 | 219 | 0.0 | 3.2 | 0.00 | 0.00 | 0.00 | 86 | 1018.4 |
| 20260507160210 | 16 | 228 | 0.0 | 4.8 | 0.00 | 0.00 | 0.00 | 86 | 1018.4 |
| 20260507160107 | 16 | 228 | 0.0 | 4.8 | 0.00 | 0.00 | 0.00 | 86 | 1018.4 |
| 20260507160007 | 16 | 240 | 1.6 | 4.8 | 0.00 | 0.00 | 0.00 | 86 | 1018.4 |
| 20260507155907 | 16 | 240 | 1.6 | 4.8 | 0.00 | 0.00 | 0.00 | 86 | 1018.4 |
| 20260507155807 | 15 | 231 | 1.6 | 4.8 | 0.00 | 0.00 | 0.00 | 87 | 1018.4 |
| 20260507155710 | 15 | 229 | 1.6 | 4.8 | 0.00 | 0.00 | 0.00 | 87 | 1018.5 |
| 20260507155607 | 15 | 248 | 1.6 | 4.8 | 0.00 | 0.00 | 0.00 | 88 | 1018.5 |
| 20260507155507 | 15 | 248 | 1.6 | 4.8 | 0.00 | 0.00 | 0.00 | 88 | 1018.5 |
| 20260507155407 | 15 | 243 | 1.6 | 4.8 | 0.00 | 0.00 | 0.00 | 88 | 1018.5 |
| 20260507155307 | 15 | 240 | 1.6 | 4.8 | 0.00 | 0.00 | 0.00 | 88 | 1018.5 |
| 20260507155209 | 15 | 221 | 1.6 | 6.4 | 0.00 | 0.00 | 0.00 | 88 | 1018.5 |
| 20260507155107 | 15 | 218 | 1.6 | 6.4 | 0.00 | 0.00 | 0.00 | 88 | 1018.5 |
| 20260507155007 | 15 | 210 | 1.6 | 6.4 | 0.00 | 0.00 | 0.00 | 89 | 1018.5 |
| 20260507154927 | 15 | 226 | 1.6 | 6.4 | 0.00 | 0.00 | 0.00 | 90 | 1018.5 |
| 20260507154907 | 15 | 156 | 1.6 | 6.4 | 0.00 | 0.00 | 0.00 | 89 | 1018.5 |
| 20260507154823 | 15 | 149 | 1.6 | 6.4 | 0.00 | 0.00 | 0.00 | 90 | 1018.5 |
| 20260507154703 | 15 | 228 | 1.6 | 6.4 | 0.00 | 0.00 | 0.00 | 90 | 1018.5 |
| 20260507154603 | 15 | 229 | 1.6 | 6.4 | 0.00 | 0.00 | 0.00 | 90 | 1018.5 |
| 20260507154504 | 14 | 230 | 3.2 | 6.4 | 0.00 | 0.00 | 0.00 | 90 | 1018.5 |
| 20260507154403 | 14 | 229 | 3.2 | 6.4 | 0.00 | 0.00 | 0.00 | 90 | 1018.5 |
| 20260507154303 | 14 | 231 | 3.2 | 6.4 | 0.00 | 0.00 | 0.00 | 90 | 1018.5 |
| 20260507154209 | 14 | 232 | 3.2 | 6.4 | 0.00 | 0.00 | 0.00 | 91 | 1018.5 |
| 20260507154203 | 14 | 232 | 3.2 | 6.4 | 0.00 | 0.00 | 0.00 | 91 | 1018.5 |
| 20260507154103 | 14 | 142 | 3.2 | 6.4 | 0.00 | 0.00 | 0.00 | 91 | 1018.5 |
| 20260507154003 | 14 | 221 | 3.2 | 6.4 | 0.00 | 0.00 | 0.00 | 91 | 1018.5 |
| 20260507153904 | 14 | 228 | 3.2 | 6.4 | 0.00 | 0.00 | 0.00 | 91 | 1018.5 |
| 20260507153803 | 14 | 216 | 3.2 | 6.4 | 0.00 | 0.00 | 0.00 | 91 | 1018.5 |
| 20260507153710 | 13 | 235 | 3.2 | 6.4 | 0.00 | 0.00 | 0.00 | 91 | 1018.5 |
| 20260507153703 | 13 | 235 | 3.2 | 6.4 | 0.00 | 0.00 | 0.00 | 91 | 1018.5 |
| 20260507153647 | 13 | 132 | 1.6 | 6.4 | 0.00 | 0.00 | 0.00 | 92 | 1018.5 |
| 20260507153603 | 13 | 235 | 3.2 | 6.4 | 0.00 | 0.00 | 0.00 | 92 | 1018.5 |
| 20260507153539 | 13 | 230 | 1.6 | 6.4 | 0.00 | 0.00 | 0.00 | 92 | 1018.5 |
| 20260507153403 | 13 | 222 | 1.6 | 6.4 | 0.00 | 0.00 | 0.00 | 92 | 1018.5 |
| 20260507153320 | 13 | 243 | 1.6 | 6.4 | 0.00 | 0.00 | 0.00 | 92 | 1018.5 |
| 20260507153203 | 13 | 132 | 1.6 | 6.4 | 0.00 | 0.00 | 0.00 | 92 | 1018.5 |
| 20260507153103 | 13 | 235 | 3.2 | 8.0 | 0.00 | 0.00 | 0.00 | 92 | 1018.5 |
| 20260507153004 | 13 | 233 | 3.2 | 8.0 | 0.00 | 0.00 | 0.00 | 92 | 1018.5 |
| 20260507152902 | 13 | 232 | 3.2 | 8.0 | 0.00 | 0.00 | 0.00 | 92 | 1018.5 |
| 20260507152759 | 13 | 240 | 3.2 | 11.3 | 0.00 | 0.00 | 0.00 | 93 | 1018.5 |
| 20260507152706 | 13 | 233 | 3.2 | 11.3 | 0.00 | 0.00 | 0.00 | 93 | 1018.5 |
| 20260507152659 | 13 | 232 | 3.2 | 11.3 | 0.00 | 0.00 | 0.00 | 93 | 1018.5 |
| 20260507152559 | 13 | 235 | 3.2 | 11.3 | 0.00 | 0.00 | 0.00 | 92 | 1018.6 |
| 20260507152458 | 13 | 235 | 4.8 | 11.3 | 0.00 | 0.00 | 0.00 | 92 | 1018.5 |
| 20260507152359 | 13 | 237 | 4.8 | 11.3 | 0.00 | 0.00 | 0.00 | 92 | 1018.5 |
| 20260507152259 | 13 | 226 | 4.8 | 11.3 | 0.00 | 0.00 | 0.00 | 92 | 1018.5 |
| 20260507152205 | 13 | 187 | 4.8 | 11.3 | 0.00 | 0.00 | 0.00 | 92 | 1018.5 |
| 20260507152159 | 13 | 208 | 4.8 | 11.3 | 0.00 | 0.00 | 0.00 | 92 | 1018.5 |
| 20260507152059 | 13 | 233 | 4.8 | 11.3 | 0.00 | 0.00 | 0.00 | 92 | 1018.5 |
| 20260507151959 | 13 | 238 | 4.8 | 11.3 | 0.00 | 0.00 | 0.00 | 92 | 1018.5 |
| 20260507151858 | 13 | 243 | 4.8 | 11.3 | 0.00 | 0.00 | 0.00 | 92 | 1018.5 |
| 20260507151759 | 13 | 219 | 4.8 | 11.3 | 0.00 | 0.00 | 0.00 | 93 | 1018.5 |
| 20260507151705 | 13 | 245 | 4.8 | 11.3 | 0.00 | 0.00 | 0.00 | 93 | 1018.5 |
| 20260507151659 | 13 | 243 | 4.8 | 11.3 | 0.00 | 0.00 | 0.00 | 93 | 1018.5 |
| 20260507151559 | 13 | 235 | 4.8 | 11.3 | 0.00 | 0.00 | 0.00 | 93 | 1018.5 |
| 20260507151459 | 13 | 214 | 4.8 | 11.3 | 0.00 | 0.00 | 0.00 | 92 | 1018.5 |
| 20260507151359 | 13 | 228 | 4.8 | 11.3 | 0.00 | 0.00 | 0.00 | 92 | 1018.6 |
| 20260507151258 | 13 | 240 | 4.8 | 11.3 | 0.00 | 0.00 | 0.00 | 93 | 1018.6 |
| 20260507151205 | 13 | 245 | 4.8 | 11.3 | 0.00 | 0.00 | 0.00 | 93 | 1018.5 |
| 20260507151159 | 13 | 229 | 4.8 | 11.3 | 0.00 | 0.00 | 0.00 | 93 | 1018.5 |
| 20260507151059 | 13 | 257 | 4.8 | 11.3 | 0.00 | 0.00 | 0.00 | 93 | 1018.5 |
| 20260507150959 | 13 | 238 | 4.8 | 11.3 | 0.00 | 0.00 | 0.00 | 93 | 1018.5 |
| 20260507150855 | 13 | 228 | 4.8 | 11.3 | 0.00 | 0.00 | 0.00 | 93 | 1018.5 |
| 20260507150755 | 13 | 229 | 3.2 | 9.7 | 0.00 | 0.00 | 0.00 | 93 | 1018.5 |
| 20260507150701 | 12 | 226 | 3.2 | 9.7 | 0.00 | 0.00 | 0.00 | 93 | 1018.4 |
| 20260507150655 | 12 | 228 | 3.2 | 9.7 | 0.00 | 0.00 | 0.00 | 93 | 1018.4 |
| 20260507150556 | 12 | 222 | 3.2 | 9.7 | 0.00 | 0.00 | 0.00 | 93 | 1018.5 |
| 20260507150455 | 12 | 224 | 3.2 | 9.7 | 0.00 | 0.00 | 0.00 | 93 | 1018.5 |
| 20260507150355 | 12 | 207 | 3.2 | 9.7 | 0.00 | 0.00 | 0.00 | 93 | 1018.5 |
| 20260507150255 | 12 | 259 | 3.2 | 11.3 | 0.00 | 0.00 | 0.00 | 93 | 1018.5 |
| 20260507150203 | 12 | 212 | 3.2 | 11.3 | 0.00 | 0.00 | 0.00 | 93 | 1018.5 |
| 20260507150155 | 12 | 233 | 3.2 | 12.9 | 0.00 | 0.00 | 0.00 | 93 | 1018.5 |
| 20260507150055 | 12 | 186 | 4.8 | 12.9 | 0.00 | 0.00 | 0.00 | 93 | 1018.5 |
| 20260507145955 | 12 | 198 | 4.8 | 12.9 | 0.00 | 0.00 | 0.00 | 93 | 1018.5 |
| 20260507145855 | 12 | 228 | 4.8 | 12.9 | 0.00 | 0.00 | 0.00 | 93 | 1018.5 |
| 20260507145755 | 12 | 228 | 4.8 | 12.9 | 0.00 | 0.00 | 0.00 | 93 | 1018.5 |
| 20260507145655 | 12 | 228 | 6.4 | 12.9 | 0.00 | 0.00 | 0.00 | 93 | 1018.6 |
| 20260507145555 | 12 | 158 | 6.4 | 12.9 | 0.00 | 0.00 | 0.00 | 93 | 1018.5 |
| 20260507145455 | 12 | 195 | 6.4 | 12.9 | 0.00 | 0.00 | 0.00 | 93 | 1018.5 |
| 20260507145355 | 12 | 244 | 6.4 | 12.9 | 0.00 | 0.00 | 0.00 | 93 | 1018.5 |
| 20260507145256 | 12 | 238 | 6.4 | 12.9 | 0.00 | 0.00 | 0.00 | 93 | 1018.5 |
| 20260507145203 | 12 | 248 | 6.4 | 12.9 | 0.00 | 0.00 | 0.00 | 93 | 1018.6 |
| 20260507145155 | 12 | 248 | 6.4 | 11.3 | 0.00 | 0.00 | 0.00 | 93 | 1018.6 |
| 20260507145056 | 12 | 239 | 4.8 | 11.3 | 0.00 | 0.00 | 0.00 | 93 | 1018.5 |
| 20260507144951 | 12 | 230 | 4.8 | 11.3 | 0.00 | 0.00 | 0.00 | 93 | 1018.5 |
| 20260507144851 | 12 | 167 | 4.8 | 11.3 | 0.00 | 0.00 | 0.00 | 93 | 1018.6 |
| 20260507144751 | 12 | 222 | 4.8 | 11.3 | 0.00 | 0.00 | 0.00 | 93 | 1018.6 |
| 20260507144706 | 12 | 236 | 3.2 | 11.3 | 0.00 | 0.00 | 0.00 | 93 | 1018.5 |
| 20260507144651 | 12 | 224 | 3.2 | 11.3 | 0.00 | 0.00 | 0.00 | 93 | 1018.5 |
| 20260507144551 | 12 | 174 | 3.2 | 11.3 | 0.00 | 0.00 | 0.00 | 93 | 1018.6 |
| 20260507144451 | 12 | 233 | 3.2 | 11.3 | 0.00 | 0.00 | 0.00 | 93 | 1018.5 |
| 20260507144351 | 12 | 233 | 3.2 | 11.3 | 0.00 | 0.00 | 0.00 | 93 | 1018.5 |
| 20260507144250 | 12 | 215 | 3.2 | 8.0 | 0.00 | 0.00 | 0.00 | 93 | 1018.5 |
| 20260507144202 | 12 | 224 | 3.2 | 8.0 | 0.00 | 0.00 | 0.00 | 93 | 1018.6 |
| 20260507144151 | 12 | 226 | 3.2 | 9.7 | 0.00 | 0.00 | 0.00 | 93 | 1018.6 |
| 20260507144051 | 12 | 236 | 3.2 | 9.7 | 0.00 | 0.00 | 0.00 | 93 | 1018.5 |
| 20260507143950 | 12 | 234 | 4.8 | 11.3 | 0.00 | 0.00 | 0.00 | 93 | 1018.6 |
| 20260507143851 | 12 | 260 | 4.8 | 11.3 | 0.00 | 0.00 | 0.00 | 93 | 1018.6 |
| 20260507143751 | 12 | 239 | 4.8 | 11.3 | 0.00 | 0.00 | 0.00 | 93 | 1018.5 |
| 20260507143701 | 12 | 238 | 4.8 | 12.9 | 0.00 | 0.00 | 0.00 | 93 | 1018.5 |
| 20260507143651 | 12 | 250 | 4.8 | 12.9 | 0.00 | 0.00 | 0.00 | 93 | 1018.5 |
| 20260507143551 | 12 | 273 | 4.8 | 12.9 | 0.00 | 0.00 | 0.00 | 93 | 1018.5 |
| 20260507143451 | 12 | 219 | 4.8 | 12.9 | 0.00 | 0.00 | 0.00 | 93 | 1018.5 |
| 20260507143353 | 12 | 248 | 4.8 | 12.9 | 0.00 | 0.00 | 0.00 | 93 | 1018.6 |
| 20260507143251 | 12 | 233 | 4.8 | 12.9 | 0.00 | 0.00 | 0.00 | 93 | 1018.5 |
| 20260507143157 | 12 | 219 | 3.2 | 12.9 | 0.00 | 0.00 | 0.00 | 93 | 1018.5 |
| 20260507143151 | 12 | 221 | 3.2 | 12.9 | 0.00 | 0.00 | 0.00 | 93 | 1018.5 |
| 20260507143047 | 12 | 259 | 3.2 | 12.9 | 0.00 | 0.00 | 0.00 | 93 | 1018.5 |
| 20260507142947 | 12 | 269 | 3.2 | 12.9 | 0.00 | 0.00 | 0.00 | 93 | 1018.5 |
| 20260507142847 | 12 | 217 | 3.2 | 12.9 | 0.00 | 0.00 | 0.00 | 93 | 1018.4 |
| 20260507142747 | 12 | 249 | 1.6 | 12.9 | 0.00 | 0.00 | 0.00 | 93 | 1018.4 |
| 20260507142658 | 12 | 259 | 1.6 | 8.0 | 0.00 | 0.00 | 0.00 | 93 | 1018.4 |
| 20260507142650 | 12 | 155 | 1.6 | 8.0 | 0.00 | 0.00 | 0.00 | 93 | 1018.4 |
| 20260507142547 | 12 | 184 | 1.6 | 8.0 | 0.00 | 0.00 | 0.00 | 93 | 1018.4 |
| 20260507142447 | 12 | 217 | 3.2 | 8.0 | 0.00 | 0.00 | 0.00 | 93 | 1018.4 |
| 20260507142347 | 12 | 205 | 3.2 | 8.0 | 0.00 | 0.00 | 0.00 | 93 | 1018.3 |
| 20260507142247 | 12 | 186 | 3.2 | 8.0 | 0.00 | 0.00 | 0.00 | 93 | 1018.3 |
| 20260507142147 | 12 | 186 | 3.2 | 8.0 | 0.00 | 0.00 | 0.00 | 93 | 1018.3 |
| 20260507142137 | 12 | 221 | 3.2 | 8.0 | 0.00 | 0.00 | 0.00 | 93 | 1018.3 |
| 20260507142047 | 12 | 226 | 3.2 | 8.0 | 0.00 | 0.00 | 0.00 | 93 | 1018.3 |
| 20260507142024 | 12 | 238 | 3.2 | 8.0 | 0.00 | 0.00 | 0.00 | 93 | 1018.3 |
| 20260507141846 | 12 | 214 | 3.2 | 8.0 | 0.00 | 0.00 | 0.00 | 93 | 1018.3 |
| 20260507141807 | 12 | 226 | 3.2 | 8.0 | 0.00 | 0.00 | 0.00 | 93 | 1018.3 |
| 20260507141650 | 12 | 219 | 3.2 | 8.0 | 0.00 | 0.00 | 0.00 | 93 | 1018.3 |
| 20260507141547 | 12 | 231 | 4.8 | 8.0 | 0.00 | 0.00 | 0.00 | 93 | 1018.4 |
| 20260507141447 | 12 | 221 | 4.8 | 8.0 | 0.00 | 0.00 | 0.00 | 93 | 1018.4 |
| 20260507141349 | 12 | 212 | 4.8 | 8.0 | 0.00 | 0.00 | 0.00 | 93 | 1018.4 |
| 20260507141247 | 12 | 232 | 4.8 | 8.0 | 0.00 | 0.00 | 0.00 | 93 | 1018.4 |
| 20260507141159 | 12 | 222 | 4.8 | 8.0 | 0.00 | 0.00 | 0.00 | 93 | 1018.4 |
| 20260507141142 | 12 | 123 | 4.8 | 8.0 | 0.00 | 0.00 | 0.00 | 93 | 1018.4 |
| 20260507141043 | 12 | 173 | 4.8 | 8.0 | 0.00 | 0.00 | 0.00 | 93 | 1018.4 |
| 20260507140943 | 12 | 195 | 3.2 | 8.0 | 0.00 | 0.00 | 0.00 | 93 | 1018.4 |
| 20260507140917 | 12 | 241 | 3.2 | 8.0 | 0.00 | 0.00 | 0.00 | 93 | 1018.4 |
| 20260507140843 | 12 | 217 | 3.2 | 8.0 | 0.00 | 0.00 | 0.00 | 93 | 1018.4 |
| 20260507140808 | 12 | 236 | 3.2 | 8.0 | 0.00 | 0.00 | 0.00 | 93 | 1018.4 |
| 20260507140643 | 12 | 248 | 3.2 | 8.0 | 0.00 | 0.00 | 0.00 | 93 | 1018.3 |
| 20260507140544 | 12 | 240 | 3.2 | 8.0 | 0.00 | 0.00 | 0.00 | 93 | 1018.3 |
| 20260507140443 | 12 | 238 | 3.2 | 8.0 | 0.00 | 0.00 | 0.00 | 93 | 1018.4 |
| 20260507140343 | 12 | 231 | 1.6 | 8.0 | 0.00 | 0.00 | 0.00 | 93 | 1018.3 |
| 20260507140243 | 12 | 232 | 1.6 | 8.0 | 0.00 | 0.00 | 0.00 | 93 | 1018.4 |
| 20260507140156 | 12 | 236 | 1.6 | 6.4 | 0.00 | 0.00 | 0.00 | 93 | 1018.4 |
| 20260507140144 | 12 | 207 | 1.6 | 6.4 | 0.00 | 0.00 | 0.00 | 93 | 1018.3 |
| 20260507140043 | 12 | 188 | 1.6 | 6.4 | 0.00 | 0.00 | 0.00 | 93 | 1018.4 |
| 20260507135943 | 12 | 200 | 1.6 | 6.4 | 0.00 | 0.00 | 0.00 | 93 | 1018.3 |
| 20260507135843 | 12 | 200 | 1.6 | 6.4 | 0.00 | 0.00 | 0.00 | 93 | 1018.4 |
| 20260507135744 | 12 | 238 | 1.6 | 9.7 | 0.00 | 0.00 | 0.00 | 93 | 1018.3 |
| 20260507135657 | 12 | 224 | 1.6 | 9.7 | 0.00 | 0.00 | 0.00 | 93 | 1018.3 |
| 20260507135644 | 12 | 242 | 1.6 | 9.7 | 0.00 | 0.00 | 0.00 | 93 | 1018.3 |
| 20260507135542 | 12 | 158 | 1.6 | 9.7 | 0.00 | 0.00 | 0.00 | 93 | 1018.2 |
| 20260507135443 | 12 | 150 | 3.2 | 9.7 | 0.00 | 0.00 | 0.00 | 93 | 1018.2 |
| 20260507135344 | 12 | 203 | 3.2 | 9.7 | 0.00 | 0.00 | 0.00 | 93 | 1018.2 |
| 20260507135238 | 12 | 139 | 3.2 | 9.7 | 0.00 | 0.00 | 0.00 | 93 | 1018.2 |
| 20260507135157 | 12 | 140 | 3.2 | 9.7 | 0.00 | 0.00 | 0.00 | 93 | 1018.2 |
| 20260507135139 | 12 | 143 | 3.2 | 9.7 | 0.00 | 0.00 | 0.00 | 93 | 1018.2 |
| 20260507135039 | 12 | 212 | 3.2 | 9.7 | 0.00 | 0.00 | 0.00 | 93 | 1018.2 |
| 20260507134939 | 12 | 230 | 3.2 | 9.7 | 0.00 | 0.00 | 0.00 | 93 | 1018.2 |
| 20260507134839 | 12 | 155 | 3.2 | 9.7 | 0.00 | 0.00 | 0.00 | 93 | 1018.2 |
| 20260507134739 | 12 | 258 | 3.2 | 8.0 | 0.00 | 0.00 | 0.00 | 93 | 1018.2 |
| 20260507134653 | 12 | 238 | 3.2 | 8.0 | 0.00 | 0.00 | 0.00 | 93 | 1018.2 |
| 20260507134639 | 12 | 221 | 3.2 | 8.0 | 0.00 | 0.00 | 0.00 | 93 | 1018.2 |
| 20260507134539 | 12 | 232 | 3.2 | 8.0 | 0.00 | 0.00 | 0.00 | 93 | 1018.2 |
| 20260507134438 | 12 | 199 | 3.2 | 8.0 | 0.00 | 0.00 | 0.00 | 93 | 1018.2 |
| 20260507134339 | 12 | 177 | 3.2 | 8.0 | 0.00 | 0.00 | 0.00 | 93 | 1018.2 |
| 20260507134238 | 12 | 240 | 3.2 | 8.0 | 0.00 | 0.00 | 0.00 | 93 | 1018.1 |
| 20260507134153 | 12 | 245 | 3.2 | 8.0 | 0.00 | 0.00 | 0.00 | 93 | 1018.1 |
| 20260507134139 | 12 | 233 | 1.6 | 8.0 | 0.00 | 0.00 | 0.00 | 93 | 1018.1 |
| 20260507134038 | 12 | 238 | 1.6 | 8.0 | 0.00 | 0.00 | 0.00 | 93 | 1018.1 |
| 20260507133939 | 12 | 236 | 1.6 | 8.0 | 0.00 | 0.00 | 0.00 | 93 | 1018.1 |
| 20260507133839 | 12 | 236 | 3.2 | 8.0 | 0.00 | 0.00 | 0.00 | 93 | 1018.1 |
| 20260507133739 | 12 | 145 | 3.2 | 8.0 | 0.00 | 0.00 | 0.00 | 93 | 1018.1 |
| 20260507133653 | 12 | 145 | 3.2 | 8.0 | 0.00 | 0.00 | 0.00 | 93 | 1018.1 |
| 20260507133639 | 12 | 146 | 3.2 | 8.0 | 0.00 | 0.00 | 0.00 | 93 | 1018.1 |
| 20260507133540 | 12 | 229 | 3.2 | 8.0 | 0.00 | 0.00 | 0.00 | 93 | 1018.1 |
| 20260507133439 | 12 | 139 | 3.2 | 8.0 | 0.00 | 0.00 | 0.00 | 93 | 1018.1 |
| 20260507133336 | 12 | 228 | 3.2 | 8.0 | 0.00 | 0.00 | 0.00 | 93 | 1018.1 |
| 20260507133235 | 12 | 211 | 3.2 | 9.7 | 0.00 | 0.00 | 0.00 | 93 | 1018.1 |
| 20260507133153 | 12 | 243 | 3.2 | 9.7 | 0.00 | 0.00 | 0.00 | 93 | 1018.1 |
| 20260507133135 | 12 | 190 | 3.2 | 9.7 | 0.00 | 0.00 | 0.00 | 93 | 1018.1 |
| 20260507133035 | 12 | 141 | 3.2 | 9.7 | 0.00 | 0.00 | 0.00 | 93 | 1018.0 |
| 20260507132935 | 12 | 238 | 3.2 | 9.7 | 0.00 | 0.00 | 0.00 | 93 | 1018.0 |
| 20260507132834 | 12 | 252 | 3.2 | 9.7 | 0.00 | 0.00 | 0.00 | 93 | 1018.0 |
| 20260507132735 | 12 | 222 | 3.2 | 9.7 | 0.00 | 0.00 | 0.00 | 93 | 1017.9 |
| 20260507132652 | 12 | 222 | 3.2 | 9.7 | 0.00 | 0.00 | 0.00 | 93 | 1017.9 |
| 20260507132635 | 12 | 222 | 3.2 | 9.7 | 0.00 | 0.00 | 0.00 | 93 | 1018.0 |
| 20260507132535 | 12 | 222 | 3.2 | 9.7 | 0.00 | 0.00 | 0.00 | 93 | 1018.0 |
| 20260507132435 | 12 | 226 | 3.2 | 9.7 | 0.00 | 0.00 | 0.00 | 93 | 1018.0 |
| 20260507132334 | 12 | 242 | 3.2 | 9.7 | 0.00 | 0.00 | 0.00 | 93 | 1017.9 |
| 20260507132235 | 12 | 236 | 3.2 | 8.0 | 0.00 | 0.00 | 0.00 | 93 | 1018.0 |
| 20260507132154 | 12 | 225 | 3.2 | 8.0 | 0.00 | 0.00 | 0.00 | 93 | 1018.0 |
| 20260507132135 | 12 | 215 | 3.2 | 8.0 | 0.00 | 0.00 | 0.00 | 93 | 1017.9 |
| 20260507132035 | 12 | 215 | 3.2 | 8.0 | 0.00 | 0.00 | 0.00 | 93 | 1017.9 |
| 20260507131935 | 12 | 242 | 3.2 | 8.0 | 0.00 | 0.00 | 0.00 | 93 | 1017.9 |
| 20260507131835 | 12 | 232 | 3.2 | 8.0 | 0.00 | 0.00 | 0.00 | 93 | 1017.9 |
| 20260507131734 | 12 | 211 | 3.2 | 8.0 | 0.00 | 0.00 | 0.00 | 93 | 1017.9 |
| 20260507131653 | 12 | 235 | 3.2 | 8.0 | 0.00 | 0.00 | 0.00 | 93 | 1017.9 |
| 20260507131635 | 12 | 181 | 3.2 | 8.0 | 0.00 | 0.00 | 0.00 | 93 | 1017.9 |
| 20260507131535 | 12 | 145 | 3.2 | 8.0 | 0.00 | 0.00 | 0.00 | 93 | 1017.8 |
| 20260507131431 | 12 | 203 | 1.6 | 8.0 | 0.00 | 0.00 | 0.00 | 93 | 1017.8 |
| 20260507131409 | 12 | 233 | 1.6 | 8.0 | 0.00 | 0.00 | 0.00 | 93 | 1017.9 |
| 20260507131332 | 12 | 214 | 1.6 | 8.0 | 0.00 | 0.00 | 0.00 | 93 | 1017.9 |
| 20260507131304 | 12 | 211 | 1.6 | 8.0 | 0.00 | 0.00 | 0.00 | 93 | 1017.9 |
| 20260507131130 | 12 | 236 | 1.6 | 8.0 | 0.00 | 0.00 | 0.00 | 93 | 1017.8 |
| 20260507131031 | 12 | 210 | 1.6 | 8.0 | 0.00 | 0.00 | 0.00 | 93 | 1017.9 |
| 20260507130931 | 12 | 230 | 1.6 | 8.0 | 0.00 | 0.00 | 0.00 | 93 | 1017.8 |
| 20260507130832 | 12 | 207 | 1.6 | 4.8 | 0.00 | 0.00 | 0.00 | 93 | 1017.8 |
| 20260507130734 | 12 | 212 | 0.0 | 3.2 | 0.00 | 0.00 | 0.00 | 93 | 1017.9 |
| 20260507130652 | 12 | 214 | 0.0 | 3.2 | 0.00 | 0.00 | 0.00 | 93 | 1017.9 |
| 20260507130631 | 12 | 218 | 0.0 | 3.2 | 0.00 | 0.00 | 0.00 | 93 | 1017.8 |
| 20260507130532 | 12 | 218 | 1.6 | 3.2 | 0.00 | 0.00 | 0.00 | 93 | 1017.8 |
| 20260507130431 | 12 | 218 | 1.6 | 3.2 | 0.00 | 0.00 | 0.00 | 93 | 1017.8 |
| 20260507130330 | 12 | 218 | 1.6 | 3.2 | 0.00 | 0.00 | 0.00 | 93 | 1017.8 |
| 20260507130232 | 12 | 218 | 0.0 | 3.2 | 0.00 | 0.00 | 0.00 | 93 | 1017.8 |
| 20260507130148 | 12 | 218 | 0.0 | 3.2 | 0.00 | 0.00 | 0.00 | 92 | 1017.8 |
| 20260507130131 | 12 | 200 | 0.0 | 3.2 | 0.00 | 0.00 | 0.00 | 93 | 1017.8 |
| 20260507130030 | 12 | 139 | 0.0 | 3.2 | 0.00 | 0.00 | 0.00 | 92 | 1017.8 |
| 20260507125931 | 12 | 214 | 0.0 | 3.2 | 0.00 | 0.00 | 0.00 | 92 | 1017.8 |
| 20260507125914 | 12 | 214 | 0.0 | 3.2 | 0.00 | 0.00 | 0.00 | 92 | 1017.8 |
| 20260507125831 | 12 | 214 | 0.0 | 3.2 | 0.00 | 0.00 | 0.00 | 93 | 1017.8 |
| 20260507125759 | 12 | 214 | 0.0 | 3.2 | 0.00 | 0.00 | 0.00 | 92 | 1017.8 |
| 20260507125631 | 12 | 214 | 0.0 | 3.2 | 0.00 | 0.00 | 0.00 | 92 | 1017.8 |
| 20260507125527 | 12 | 214 | 0.0 | 3.2 | 0.00 | 0.00 | 0.00 | 92 | 1017.8 |
| 20260507125427 | 12 | 214 | 0.0 | 3.2 | 0.00 | 0.00 | 0.00 | 92 | 1017.8 |
| 20260507125327 | 12 | 214 | 0.0 | 3.2 | 0.00 | 0.00 | 0.00 | 92 | 1017.8 |
| 20260507125228 | 12 | 215 | 0.0 | 3.2 | 0.00 | 0.00 | 0.00 | 92 | 1017.8 |
| 20260507125138 | 12 | 198 | 0.0 | 3.2 | 0.00 | 0.00 | 0.00 | 92 | 1017.8 |
| 20260507125127 | 12 | 217 | 0.0 | 3.2 | 0.00 | 0.00 | 0.00 | 92 | 1017.8 |
| 20260507125037 | 12 | 217 | 0.0 | 3.2 | 0.00 | 0.00 | 0.00 | 92 | 1017.8 |
| 20260507125028 | 12 | 217 | 0.0 | 3.2 | 0.00 | 0.00 | 0.00 | 92 | 1017.8 |
| 20260507124827 | 12 | 223 | 0.0 | 3.2 | 0.00 | 0.00 | 0.00 | 92 | 1017.8 |
| 20260507124800 | 12 | 198 | 0.0 | 3.2 | 0.00 | 0.00 | 0.00 | 92 | 1017.8 |
| 20260507124627 | 12 | 198 | 0.0 | 3.2 | 0.00 | 0.00 | 0.00 | 92 | 1017.7 |
| 20260507124528 | 12 | 198 | 0.0 | 3.2 | 0.00 | 0.00 | 0.00 | 92 | 1017.7 |
| 20260507124427 | 12 | 198 | 0.0 | 3.2 | 0.00 | 0.00 | 0.00 | 92 | 1017.7 |
| 20260507124327 | 12 | 198 | 0.0 | 3.2 | 0.00 | 0.00 | 0.00 | 92 | 1017.7 |
| 20260507124227 | 12 | 198 | 0.0 | 3.2 | 0.00 | 0.00 | 0.00 | 92 | 1017.7 |
| 20260507124127 | 12 | 231 | 0.0 | 1.6 | 0.00 | 0.00 | 0.00 | 92 | 1017.7 |
| 20260507124027 | 12 | 231 | 0.0 | 1.6 | 0.00 | 0.00 | 0.00 | 92 | 1017.7 |
| 20260507123927 | 12 | 231 | 0.0 | 1.6 | 0.00 | 0.00 | 0.00 | 92 | 1017.7 |
| 20260507123827 | 12 | 231 | 0.0 | 1.6 | 0.00 | 0.00 | 0.00 | 92 | 1017.7 |
| 20260507123727 | 12 | 141 | 0.0 | 1.6 | 0.00 | 0.00 | 0.00 | 92 | 1017.7 |
| 20260507123649 | 12 | 139 | 0.0 | 1.6 | 0.00 | 0.00 | 0.00 | 92 | 1017.7 |
| 20260507123623 | 12 | 141 | 0.0 | 1.6 | 0.00 | 0.00 | 0.00 | 92 | 1017.7 |
| 20260507123523 | 12 | 141 | 0.0 | 1.6 | 0.00 | 0.00 | 0.00 | 92 | 1017.7 |
| 20260507123422 | 12 | 141 | 0.0 | 1.6 | 0.00 | 0.00 | 0.00 | 92 | 1017.7 |
| 20260507123323 | 12 | 139 | 0.0 | 1.6 | 0.00 | 0.00 | 0.00 | 92 | 1017.7 |
| 20260507123223 | 12 | 139 | 0.0 | 1.6 | 0.00 | 0.00 | 0.00 | 92 | 1017.7 |
| 20260507123149 | 12 | 139 | 0.0 | 1.6 | 0.00 | 0.00 | 0.00 | 92 | 1017.7 |
| 20260507123124 | 12 | 141 | 0.0 | 1.6 | 0.00 | 0.00 | 0.00 | 92 | 1017.7 |
| 20260507123023 | 12 | 141 | 0.0 | 1.6 | 0.00 | 0.00 | 0.00 | 92 | 1017.7 |
| 20260507122923 | 12 | 139 | 0.0 | 1.6 | 0.00 | 0.00 | 0.00 | 92 | 1017.7 |
| 20260507122823 | 12 | 139 | 0.0 | 1.6 | 0.00 | 0.00 | 0.00 | 92 | 1017.7 |
| 20260507122723 | 12 | 139 | 0.0 | 1.6 | 0.00 | 0.00 | 0.00 | 92 | 1017.7 |
| 20260507122623 | 12 | 139 | 0.0 | 3.2 | 0.00 | 0.00 | 0.00 | 92 | 1017.7 |
| 20260507122523 | 12 | 140 | 0.0 | 3.2 | 0.00 | 0.00 | 0.00 | 92 | 1017.7 |
| 20260507122423 | 12 | 140 | 0.0 | 3.2 | 0.00 | 0.00 | 0.00 | 92 | 1017.7 |
| 20260507122323 | 12 | 225 | 0.0 | 4.8 | 0.00 | 0.00 | 0.00 | 92 | 1017.7 |
| 20260507122223 | 12 | 225 | 1.6 | 6.4 | 0.00 | 0.00 | 0.00 | 92 | 1017.7 |
| 20260507122123 | 12 | 225 | 1.6 | 6.4 | 0.00 | 0.00 | 0.00 | 92 | 1017.7 |
| 20260507122023 | 12 | 225 | 1.6 | 6.4 | 0.00 | 0.00 | 0.00 | 92 | 1017.7 |
| 20260507121923 | 12 | 146 | 1.6 | 6.4 | 0.00 | 0.00 | 0.00 | 92 | 1017.7 |
| 20260507121823 | 12 | 148 | 1.6 | 6.4 | 0.00 | 0.00 | 0.00 | 92 | 1017.7 |
| 20260507121719 | 12 | 173 | 0.0 | 6.4 | 0.00 | 0.00 | 0.00 | 92 | 1017.7 |
| 20260507121648 | 12 | 200 | 0.0 | 6.4 | 0.00 | 0.00 | 0.00 | 92 | 1017.7 |
| 20260507121619 | 12 | 200 | 1.6 | 6.4 | 0.00 | 0.00 | 0.00 | 92 | 1017.7 |
| 20260507121518 | 12 | 200 | 1.6 | 6.4 | 0.00 | 0.00 | 0.00 | 92 | 1017.7 |
| 20260507121419 | 12 | 155 | 1.6 | 6.4 | 0.00 | 0.00 | 0.00 | 92 | 1017.7 |
| 20260507121319 | 12 | 207 | 0.0 | 6.4 | 0.00 | 0.00 | 0.00 | 92 | 1017.7 |
| 20260507121219 | 12 | 232 | 0.0 | 3.2 | 0.00 | 0.00 | 0.00 | 92 | 1017.7 |
| 20260507121119 | 12 | 232 | 0.0 | 3.2 | 0.00 | 0.00 | 0.00 | 92 | 1017.7 |
| 20260507121019 | 12 | 232 | 0.0 | 3.2 | 0.00 | 0.00 | 0.00 | 92 | 1017.7 |
| 20260507120920 | 12 | 233 | 0.0 | 3.2 | 0.00 | 0.00 | 0.00 | 92 | 1017.7 |
| 20260507120912 | 12 | 232 | 0.0 | 3.2 | 0.00 | 0.00 | 0.00 | 92 | 1017.7 |
| 20260507120819 | 12 | 232 | 0.0 | 3.2 | 0.00 | 0.00 | 0.00 | 92 | 1017.7 |
| 20260507120759 | 12 | 232 | 0.0 | 3.2 | 0.00 | 0.00 | 0.00 | 92 | 1017.7 |
| 20260507120619 | 12 | 232 | 0.0 | 3.2 | 0.00 | 0.00 | 0.00 | 92 | 1017.7 |
| 20260507120518 | 12 | 236 | 0.0 | 3.2 | 0.00 | 0.00 | 0.00 | 92 | 1017.6 |
| 20260507120419 | 12 | 236 | 0.0 | 3.2 | 0.00 | 0.00 | 0.00 | 92 | 1017.6 |
| 20260507120404 | 12 | 236 | 0.0 | 3.2 | 0.00 | 0.00 | 0.00 | 92 | 1017.6 |
| 20260507120319 | 12 | 236 | 0.0 | 3.2 | 0.00 | 0.00 | 0.00 | 92 | 1017.6 |
| 20260507120255 | 12 | 236 | 0.0 | 3.2 | 0.00 | 0.00 | 0.00 | 92 | 1017.6 |
| 20260507120119 | 12 | 236 | 0.0 | 3.2 | 0.00 | 0.00 | 0.00 | 92 | 1017.6 |
| 20260507120019 | 12 | 230 | 0.0 | 3.2 | 0.00 | 0.00 | 0.00 | 92 | 1017.6 |
| 20260507115920 | 12 | 198 | 0.0 | 3.2 | 0.00 | 0.00 | 0.00 | 92 | 1017.6 |
| 20260507115815 | 12 | 197 | 0.0 | 4.8 | 0.00 | 0.00 | 0.00 | 92 | 1017.6 |
| 20260507115715 | 12 | 197 | 0.0 | 4.8 | 0.00 | 0.00 | 0.00 | 92 | 1017.6 |
| 20260507115648 | 12 | 198 | 0.0 | 4.8 | 0.00 | 0.00 | 0.00 | 92 | 1017.6 |
| 20260507115614 | 12 | 197 | 1.6 | 4.8 | 0.00 | 0.00 | 0.00 | 92 | 1017.6 |
| 20260507115515 | 12 | 197 | 1.6 | 4.8 | 0.00 | 0.00 | 0.00 | 92 | 1017.6 |
| 20260507115417 | 12 | 197 | 1.6 | 4.8 | 0.00 | 0.00 | 0.00 | 92 | 1017.6 |
| 20260507115409 | 12 | 198 | 1.6 | 4.8 | 0.00 | 0.00 | 0.00 | 92 | 1017.7 |
| 20260507115315 | 12 | 198 | 1.6 | 4.8 | 0.00 | 0.00 | 0.00 | 92 | 1017.7 |
| 20260507115255 | 12 | 198 | 1.6 | 4.8 | 0.00 | 0.00 | 0.00 | 92 | 1017.7 |
| 20260507115015 | 12 | 197 | 1.6 | 4.8 | 0.00 | 0.00 | 0.00 | 92 | 1017.6 |
| 20260507114916 | 12 | 150 | 1.6 | 4.8 | 0.00 | 0.00 | 0.00 | 92 | 1017.6 |
| 20260507114816 | 12 | 203 | 1.6 | 4.8 | 0.00 | 0.00 | 0.00 | 92 | 1017.6 |
| 20260507114715 | 12 | 229 | 1.6 | 4.8 | 0.00 | 0.00 | 0.00 | 92 | 1017.6 |
| 20260507114647 | 12 | 211 | 1.6 | 4.8 | 0.00 | 0.00 | 0.00 | 92 | 1017.6 |
| 20260507114615 | 12 | 211 | 1.6 | 4.8 | 0.00 | 0.00 | 0.00 | 92 | 1017.6 |
| 20260507114515 | 12 | 229 | 1.6 | 4.8 | 0.00 | 0.00 | 0.00 | 92 | 1017.6 |
| 20260507114416 | 12 | 211 | 1.6 | 4.8 | 0.00 | 0.00 | 0.00 | 92 | 1017.6 |
| 20260507114407 | 12 | 198 | 1.6 | 3.2 | 0.00 | 0.00 | 0.00 | 92 | 1017.6 |
| 20260507114314 | 12 | 228 | 1.6 | 3.2 | 0.00 | 0.00 | 0.00 | 92 | 1017.6 |
| 20260507114258 | 12 | 198 | 1.6 | 3.2 | 0.00 | 0.00 | 0.00 | 92 | 1017.6 |
| 20260507114115 | 12 | 198 | 1.6 | 3.2 | 0.00 | 0.00 | 0.00 | 92 | 1017.6 |
| 20260507114015 | 12 | 243 | 1.6 | 3.2 | 0.00 | 0.00 | 0.00 | 92 | 1017.6 |
| 20260507113911 | 12 | 228 | 0.0 | 3.2 | 0.00 | 0.00 | 0.00 | 92 | 1017.6 |
| 20260507113811 | 12 | 217 | 0.0 | 3.2 | 0.00 | 0.00 | 0.00 | 92 | 1017.6 |
| 20260507113711 | 12 | 197 | 0.0 | 3.2 | 0.00 | 0.00 | 0.00 | 92 | 1017.6 |
| 20260507113648 | 12 | 217 | 0.0 | 3.2 | 0.00 | 0.00 | 0.00 | 92 | 1017.6 |
| 20260507113611 | 12 | 217 | 0.0 | 3.2 | 0.00 | 0.00 | 0.00 | 92 | 1017.6 |
| 20260507113511 | 12 | 214 | 0.0 | 3.2 | 0.00 | 0.00 | 0.00 | 92 | 1017.6 |
| 20260507113411 | 12 | 162 | 0.0 | 3.2 | 0.00 | 0.00 | 0.00 | 92 | 1017.6 |
| 20260507113311 | 12 | 214 | 0.0 | 1.6 | 0.00 | 0.00 | 0.00 | 92 | 1017.6 |
| 20260507113211 | 12 | 146 | 0.0 | 1.6 | 0.00 | 0.00 | 0.00 | 92 | 1017.6 |
| 20260507113142 | 12 | 146 | 0.0 | 1.6 | 0.00 | 0.00 | 0.00 | 92 | 1017.6 |
| 20260507113111 | 12 | 146 | 0.0 | 1.6 | 0.00 | 0.00 | 0.00 | 92 | 1017.6 |
| 20260507113011 | 12 | 146 | 0.0 | 1.6 | 0.00 | 0.00 | 0.00 | 92 | 1017.6 |
| 20260507112912 | 12 | 146 | 0.0 | 1.6 | 0.00 | 0.00 | 0.00 | 92 | 1017.6 |
| 20260507112903 | 12 | 146 | 0.0 | 1.6 | 0.00 | 0.00 | 0.00 | 92 | 1017.6 |
| 20260507112812 | 12 | 146 | 0.0 | 1.6 | 0.00 | 0.00 | 0.00 | 92 | 1017.6 |
| 20260507112754 | 12 | 146 | 0.0 | 1.6 | 0.00 | 0.00 | 0.00 | 92 | 1017.6 |
| 20260507112611 | 12 | 146 | 0.0 | 1.6 | 0.00 | 0.00 | 0.00 | 92 | 1017.6 |
| 20260507112511 | 12 | 146 | 0.0 | 1.6 | 0.00 | 0.00 | 0.00 | 92 | 1017.7 |
| 20260507112411 | 12 | 211 | 0.0 | 1.6 | 0.00 | 0.00 | 0.00 | 92 | 1017.7 |
| 20260507112311 | 12 | 211 | 0.0 | 1.6 | 0.00 | 0.00 | 0.00 | 92 | 1017.7 |
| 20260507112210 | 12 | 212 | 0.0 | 1.6 | 0.00 | 0.00 | 0.00 | 92 | 1017.7 |
| 20260507112111 | 12 | 211 | 0.0 | 0.0 | 0.00 | 0.00 | 0.00 | 92 | 1017.7 |
| 20260507112008 | 12 | 211 | 0.0 | 0.0 | 0.00 | 0.00 | 0.00 | 92 | 1017.7 |
| 20260507111907 | 12 | 211 | 0.0 | 0.0 | 0.00 | 0.00 | 0.00 | 92 | 1017.7 |
| 20260507111807 | 12 | 211 | 0.0 | 0.0 | 0.00 | 0.00 | 0.00 | 92 | 1017.6 |
| 20260507111708 | 12 | 211 | 0.0 | 0.0 | 0.00 | 0.00 | 0.00 | 92 | 1017.6 |
| 20260507111654 | 12 | 212 | 0.0 | 0.0 | 0.00 | 0.00 | 0.00 | 92 | 1017.6 |
| 20260507111606 | 12 | 212 | 0.0 | 0.0 | 0.00 | 0.00 | 0.00 | 92 | 1017.6 |
| 20260507111509 | 12 | 211 | 0.0 | 0.0 | 0.00 | 0.00 | 0.00 | 92 | 1017.6 |
| 20260507111411 | 12 | 212 | 0.0 | 0.0 | 0.00 | 0.00 | 0.00 | 92 | 1017.6 |
| 20260507111407 | 12 | 211 | 0.0 | 0.0 | 0.00 | 0.00 | 0.00 | 92 | 1017.6 |
| 20260507111307 | 12 | 211 | 0.0 | 0.0 | 0.00 | 0.00 | 0.00 | 92 | 1017.6 |
| 20260507111251 | 12 | 211 | 0.0 | 0.0 | 0.00 | 0.00 | 0.00 | 92 | 1017.6 |
| 20260507111107 | 12 | 211 | 0.0 | 0.0 | 0.00 | 0.00 | 0.00 | 92 | 1017.6 |
| 20260507111007 | 12 | 211 | 0.0 | 0.0 | 0.00 | 0.00 | 0.00 | 92 | 1017.6 |
| 20260507110907 | 12 | 211 | 0.0 | 0.0 | 0.00 | 0.00 | 0.00 | 92 | 1017.6 |
| 20260507110807 | 12 | 211 | 0.0 | 0.0 | 0.00 | 0.00 | 0.00 | 92 | 1017.6 |
| 20260507110707 | 12 | 211 | 0.0 | 0.0 | 0.00 | 0.00 | 0.00 | 92 | 1017.6 |
| 20260507110641 | 12 | 211 | 0.0 | 0.0 | 0.00 | 0.00 | 0.00 | 92 | 1017.6 |
| 20260507110607 | 12 | 212 | 0.0 | 0.0 | 0.00 | 0.00 | 0.00 | 92 | 1017.6 |
| 20260507110508 | 12 | 211 | 0.0 | 0.0 | 0.00 | 0.00 | 0.00 | 92 | 1017.6 |
| 20260507110407 | 12 | 211 | 0.0 | 0.0 | 0.00 | 0.00 | 0.00 | 92 | 1017.5 |
| 20260507110307 | 12 | 211 | 0.0 | 1.6 | 0.00 | 0.00 | 0.00 | 92 | 1017.5 |
| 20260507110207 | 12 | 212 | 0.0 | 1.6 | 0.00 | 0.00 | 0.00 | 92 | 1017.6 |
| 20260507110141 | 12 | 211 | 0.0 | 1.6 | 0.00 | 0.00 | 0.00 | 92 | 1017.5 |
| 20260507110103 | 12 | 210 | 0.0 | 1.6 | 0.00 | 0.00 | 0.00 | 92 | 1017.5 |
| 20260507110003 | 12 | 211 | 0.0 | 1.6 | 0.00 | 0.00 | 0.00 | 92 | 1017.5 |
| 20260507105903 | 12 | 211 | 0.0 | 1.6 | 0.00 | 0.00 | 0.00 | 91 | 1017.5 |
| 20260507105803 | 12 | 211 | 0.0 | 1.6 | 0.00 | 0.00 | 0.00 | 91 | 1017.5 |
| 20260507105641 | 12 | 211 | 0.0 | 1.6 | 0.00 | 0.00 | 0.00 | 91 | 1017.5 |
| 20260507105602 | 12 | 212 | 0.0 | 1.6 | 0.00 | 0.00 | 0.00 | 91 | 1017.5 |
| 20260507105503 | 12 | 211 | 0.0 | 1.6 | 0.00 | 0.00 | 0.00 | 91 | 1017.5 |
| 20260507105407 | 12 | 211 | 0.0 | 0.0 | 0.00 | 0.00 | 0.00 | 91 | 1017.5 |
| 20260507105403 | 12 | 211 | 0.0 | 1.6 | 0.00 | 0.00 | 0.00 | 91 | 1017.5 |
| 20260507105306 | 12 | 211 | 0.0 | 1.6 | 0.00 | 0.00 | 0.00 | 91 | 1017.5 |
| 20260507105252 | 12 | 211 | 0.0 | 1.6 | 0.00 | 0.00 | 0.00 | 91 | 1017.5 |
| 20260507105103 | 12 | 211 | 0.0 | 1.6 | 0.00 | 0.00 | 0.00 | 91 | 1017.5 |
| 20260507105003 | 12 | 211 | 0.0 | 1.6 | 0.00 | 0.00 | 0.00 | 91 | 1017.5 |
| 20260507104903 | 12 | 211 | 0.0 | 1.6 | 0.00 | 0.00 | 0.00 | 91 | 1017.5 |
| 20260507104804 | 13 | 212 | 0.0 | 1.6 | 0.00 | 0.00 | 0.00 | 91 | 1017.5 |
| 20260507104637 | 13 | 211 | 0.0 | 1.6 | 0.00 | 0.00 | 0.00 | 91 | 1017.5 |
| 20260507104602 | 13 | 211 | 0.0 | 1.6 | 0.00 | 0.00 | 0.00 | 91 | 1017.5 |
| 20260507104504 | 13 | 210 | 0.0 | 1.6 | 0.00 | 0.00 | 0.00 | 91 | 1017.5 |
| 20260507104404 | 13 | 211 | 0.0 | 1.6 | 0.00 | 0.00 | 0.00 | 91 | 1017.5 |
| 20260507104303 | 13 | 211 | 0.0 | 1.6 | 0.00 | 0.00 | 0.00 | 91 | 1017.5 |
| 20260507104159 | 13 | 211 | 0.0 | 1.6 | 0.00 | 0.00 | 0.00 | 91 | 1017.4 |
| 20260507104136 | 13 | 211 | 0.0 | 1.6 | 0.00 | 0.00 | 0.00 | 91 | 1017.5 |
| 20260507104059 | 13 | 210 | 0.0 | 1.6 | 0.00 | 0.00 | 0.00 | 91 | 1017.5 |
| 20260507103959 | 13 | 211 | 0.0 | 1.6 | 0.00 | 0.00 | 0.00 | 91 | 1017.5 |
| 20260507103906 | 13 | 211 | 0.0 | 1.6 | 0.00 | 0.00 | 0.00 | 91 | 1017.4 |
| 20260507103859 | 13 | 211 | 0.0 | 1.6 | 0.00 | 0.00 | 0.00 | 91 | 1017.5 |
| 20260507103800 | 13 | 211 | 0.0 | 1.6 | 0.00 | 0.00 | 0.00 | 91 | 1017.5 |
| 20260507103752 | 13 | 211 | 0.0 | 1.6 | 0.00 | 0.00 | 0.00 | 91 | 1017.5 |
| 20260507103559 | 13 | 211 | 0.0 | 1.6 | 0.00 | 0.00 | 0.00 | 91 | 1017.4 |
| 20260507103459 | 13 | 211 | 0.0 | 1.6 | 0.00 | 0.00 | 0.00 | 91 | 1017.5 |
| 20260507103403 | 13 | 211 | 0.0 | 4.8 | 0.00 | 0.00 | 0.00 | 90 | 1017.5 |
| 20260507103359 | 13 | 211 | 0.0 | 1.6 | 0.00 | 0.00 | 0.00 | 91 | 1017.5 |
| 20260507103259 | 13 | 210 | 0.0 | 3.2 | 0.00 | 0.00 | 0.00 | 91 | 1017.5 |
| 20260507103249 | 13 | 211 | 0.0 | 3.2 | 0.00 | 0.00 | 0.00 | 90 | 1017.6 |
| 20260507103059 | 13 | 212 | 0.0 | 4.8 | 0.00 | 0.00 | 0.00 | 90 | 1017.5 |
| 20260507102959 | 13 | 211 | 0.0 | 4.8 | 0.00 | 0.00 | 0.00 | 91 | 1017.5 |
| 20260507102859 | 13 | 211 | 0.0 | 4.8 | 0.00 | 0.00 | 0.00 | 90 | 1017.5 |
| 20260507102759 | 13 | 212 | 1.6 | 4.8 | 0.00 | 0.00 | 0.00 | 91 | 1017.6 |
| 20260507102637 | 13 | 211 | 1.6 | 4.8 | 0.00 | 0.00 | 0.00 | 90 | 1017.6 |
| 20260507102559 | 13 | 211 | 1.6 | 4.8 | 0.00 | 0.00 | 0.00 | 91 | 1017.6 |
| 20260507102459 | 13 | 211 | 1.6 | 4.8 | 0.00 | 0.00 | 0.00 | 91 | 1017.5 |
| 20260507102358 | 13 | 211 | 1.6 | 4.8 | 0.00 | 0.00 | 0.00 | 91 | 1017.6 |
| 20260507102255 | 13 | 235 | 1.6 | 4.8 | 0.00 | 0.00 | 0.00 | 91 | 1017.5 |
| 20260507102155 | 13 | 236 | 1.6 | 4.8 | 0.00 | 0.00 | 0.00 | 90 | 1017.5 |
| 20260507102138 | 13 | 225 | 1.6 | 3.2 | 0.00 | 0.00 | 0.00 | 90 | 1017.5 |
| 20260507102054 | 13 | 148 | 1.6 | 3.2 | 0.00 | 0.00 | 0.00 | 90 | 1017.5 |
| 20260507101955 | 13 | 148 | 1.6 | 3.2 | 0.00 | 0.00 | 0.00 | 90 | 1017.5 |
| 20260507101855 | 13 | 148 | 1.6 | 4.8 | 0.00 | 0.00 | 0.00 | 90 | 1017.5 |
| 20260507101754 | 13 | 236 | 1.6 | 4.8 | 0.00 | 0.00 | 0.00 | 90 | 1017.5 |
| 20260507101637 | 13 | 236 | 1.6 | 4.8 | 0.00 | 0.00 | 0.00 | 90 | 1017.5 |
| 20260507101555 | 13 | 236 | 1.6 | 4.8 | 0.00 | 0.00 | 0.00 | 90 | 1017.5 |
| 20260507101455 | 13 | 229 | 1.6 | 4.8 | 0.00 | 0.00 | 0.00 | 90 | 1017.4 |
| 20260507101400 | 13 | 226 | 3.2 | 6.4 | 0.00 | 0.00 | 0.00 | 91 | 1017.5 |
| 20260507101355 | 13 | 229 | 1.6 | 6.4 | 0.00 | 0.00 | 0.00 | 90 | 1017.4 |
| 20260507101255 | 13 | 229 | 1.6 | 6.4 | 0.00 | 0.00 | 0.00 | 90 | 1017.4 |
| 20260507101246 | 13 | 226 | 1.6 | 6.4 | 0.00 | 0.00 | 0.00 | 91 | 1017.4 |
| 20260507101055 | 13 | 226 | 3.2 | 6.4 | 0.00 | 0.00 | 0.00 | 91 | 1017.5 |
| 20260507100955 | 13 | 226 | 3.2 | 6.4 | 0.00 | 0.00 | 0.00 | 91 | 1017.4 |
| 20260507100855 | 13 | 174 | 1.6 | 6.4 | 0.00 | 0.00 | 0.00 | 91 | 1017.5 |
| 20260507100755 | 13 | 233 | 1.6 | 6.4 | 0.00 | 0.00 | 0.00 | 91 | 1017.5 |
| 20260507100655 | 13 | 198 | 1.6 | 6.4 | 0.00 | 0.00 | 0.00 | 91 | 1017.5 |
| 20260507100637 | 13 | 129 | 1.6 | 6.4 | 0.00 | 0.00 | 0.00 | 91 | 1017.5 |
| 20260507100555 | 13 | 236 | 1.6 | 6.4 | 0.00 | 0.00 | 0.00 | 91 | 1017.5 |
| 20260507100455 | 13 | 197 | 1.6 | 6.4 | 0.00 | 0.00 | 0.00 | 91 | 1017.5 |
| 20260507100351 | 13 | 228 | 0.0 | 4.8 | 0.00 | 0.00 | 0.00 | 91 | 1017.5 |
| 20260507100251 | 13 | 169 | 0.0 | 4.8 | 0.00 | 0.00 | 0.00 | 91 | 1017.4 |
| 20260507100151 | 13 | 221 | 0.0 | 4.8 | 0.00 | 0.00 | 0.00 | 91 | 1017.4 |
| 20260507100133 | 13 | 204 | 0.0 | 4.8 | 0.00 | 0.00 | 0.00 | 91 | 1017.5 |
| 20260507100051 | 13 | 231 | 0.0 | 4.8 | 0.00 | 0.00 | 0.00 | 90 | 1017.5 |
| 20260507095951 | 13 | 178 | 0.0 | 3.2 | 0.00 | 0.00 | 0.00 | 90 | 1017.5 |
| 20260507095851 | 13 | 203 | 0.0 | 3.2 | 0.00 | 0.00 | 0.00 | 90 | 1017.5 |
| 20260507095751 | 13 | 203 | 0.0 | 3.2 | 0.00 | 0.00 | 0.00 | 90 | 1017.5 |
| 20260507095632 | 13 | 203 | 0.0 | 3.2 | 0.00 | 0.00 | 0.00 | 90 | 1017.4 |
| 20260507095551 | 13 | 203 | 0.0 | 3.2 | 0.00 | 0.00 | 0.00 | 90 | 1017.4 |
| 20260507095451 | 13 | 203 | 1.6 | 3.2 | 0.00 | 0.00 | 0.00 | 90 | 1017.5 |
| 20260507095351 | 13 | 203 | 1.6 | 4.8 | 0.00 | 0.00 | 0.00 | 90 | 1017.5 |
| 20260507095251 | 13 | 203 | 1.6 | 4.8 | 0.00 | 0.00 | 0.00 | 90 | 1017.5 |
| 20260507095151 | 13 | 203 | 1.6 | 4.8 | 0.00 | 0.00 | 0.00 | 90 | 1017.5 |
| 20260507095132 | 13 | 203 | 1.6 | 4.8 | 0.00 | 0.00 | 0.00 | 90 | 1017.4 |
| 20260507095051 | 13 | 203 | 1.6 | 4.8 | 0.00 | 0.00 | 0.00 | 90 | 1017.4 |
| 20260507094951 | 13 | 210 | 1.6 | 4.8 | 0.00 | 0.00 | 0.00 | 90 | 1017.5 |
| 20260507094851 | 13 | 203 | 1.6 | 8.0 | 0.00 | 0.00 | 0.00 | 90 | 1017.5 |
| 20260507094750 | 13 | 203 | 1.6 | 8.0 | 0.00 | 0.00 | 0.00 | 90 | 1017.5 |
| 20260507094651 | 13 | 203 | 1.6 | 8.0 | 0.00 | 0.00 | 0.00 | 90 | 1017.4 |
| 20260507094633 | 13 | 203 | 1.6 | 8.0 | 0.00 | 0.00 | 0.00 | 90 | 1017.5 |
| 20260507094551 | 13 | 203 | 1.6 | 8.0 | 0.00 | 0.00 | 0.00 | 90 | 1017.5 |
| 20260507094447 | 13 | 198 | 1.6 | 8.0 | 0.00 | 0.00 | 0.00 | 90 | 1017.5 |
| 20260507094347 | 13 | 210 | 3.2 | 8.0 | 0.00 | 0.00 | 0.00 | 90 | 1017.5 |
| 20260507094247 | 13 | 231 | 3.2 | 8.0 | 0.00 | 0.00 | 0.00 | 90 | 1017.5 |
| 20260507094147 | 13 | 231 | 3.2 | 8.0 | 0.00 | 0.00 | 0.00 | 90 | 1017.5 |
| 20260507094133 | 13 | 230 | 3.2 | 8.0 | 0.00 | 0.00 | 0.00 | 90 | 1017.5 |
| 20260507094047 | 13 | 231 | 3.2 | 8.0 | 0.00 | 0.00 | 0.00 | 90 | 1017.5 |
| 20260507093946 | 13 | 219 | 3.2 | 8.0 | 0.00 | 0.00 | 0.00 | 90 | 1017.5 |
| 20260507093847 | 13 | 233 | 3.2 | 9.7 | 0.00 | 0.00 | 0.00 | 90 | 1017.5 |
| 20260507093747 | 13 | 232 | 3.2 | 9.7 | 0.00 | 0.00 | 0.00 | 90 | 1017.6 |
| 20260507093650 | 13 | 235 | 4.8 | 9.7 | 0.00 | 0.00 | 0.00 | 90 | 1017.6 |
| 20260507093633 | 13 | 235 | 3.2 | 9.7 | 0.00 | 0.00 | 0.00 | 90 | 1017.6 |
| 20260507093546 | 13 | 235 | 3.2 | 9.7 | 0.00 | 0.00 | 0.00 | 90 | 1017.6 |
| 20260507093447 | 13 | 240 | 3.2 | 9.7 | 0.00 | 0.00 | 0.00 | 90 | 1017.6 |
| 20260507093347 | 13 | 233 | 3.2 | 9.7 | 0.00 | 0.00 | 0.00 | 90 | 1017.6 |
| 20260507093246 | 13 | 203 | 3.2 | 9.7 | 0.00 | 0.00 | 0.00 | 90 | 1017.6 |
| 20260507093147 | 13 | 250 | 3.2 | 9.7 | 0.00 | 0.00 | 0.00 | 90 | 1017.6 |
| 20260507093132 | 13 | 233 | 3.2 | 9.7 | 0.00 | 0.00 | 0.00 | 90 | 1017.6 |
| 20260507093047 | 13 | 259 | 3.2 | 9.7 | 0.00 | 0.00 | 0.00 | 90 | 1017.6 |
| 20260507092947 | 13 | 232 | 3.2 | 9.7 | 0.00 | 0.00 | 0.00 | 90 | 1017.6 |
| 20260507092847 | 13 | 233 | 3.2 | 8.0 | 0.00 | 0.00 | 0.00 | 90 | 1017.6 |
| 20260507092747 | 13 | 233 | 3.2 | 8.0 | 0.00 | 0.00 | 0.00 | 90 | 1017.6 |
| 20260507092633 | 13 | 232 | 3.2 | 8.0 | 0.00 | 0.00 | 0.00 | 90 | 1017.6 |
| 20260507092543 | 13 | 193 | 3.2 | 8.0 | 0.00 | 0.00 | 0.00 | 90 | 1017.6 |
| 20260507092443 | 13 | 203 | 1.6 | 8.0 | 0.00 | 0.00 | 0.00 | 90 | 1017.6 |
| 20260507092343 | 13 | 212 | 1.6 | 8.0 | 0.00 | 0.00 | 0.00 | 90 | 1017.6 |
| 20260507092243 | 13 | 235 | 1.6 | 8.0 | 0.00 | 0.00 | 0.00 | 90 | 1017.6 |
| 20260507092132 | 13 | 233 | 1.6 | 8.0 | 0.00 | 0.00 | 0.00 | 90 | 1017.6 |
| 20260507092043 | 13 | 257 | 1.6 | 8.0 | 0.00 | 0.00 | 0.00 | 90 | 1017.6 |
| 20260507091943 | 13 | 222 | 1.6 | 8.0 | 0.00 | 0.00 | 0.00 | 90 | 1017.6 |
| 20260507091843 | 13 | 212 | 1.6 | 8.0 | 0.00 | 0.00 | 0.00 | 90 | 1017.6 |
| 20260507091743 | 13 | 217 | 1.6 | 8.0 | 0.00 | 0.00 | 0.00 | 90 | 1017.6 |
| 20260507091652 | 13 | 225 | 0.0 | 4.8 | 0.00 | 0.00 | 0.00 | 90 | 1017.6 |
| 20260507091641 | 13 | 203 | 0.0 | 3.2 | 0.00 | 0.00 | 0.00 | 90 | 1017.6 |
| 20260507091543 | 13 | 174 | 0.0 | 3.2 | 0.00 | 0.00 | 0.00 | 90 | 1017.6 |
| 20260507091444 | 13 | 174 | 0.0 | 3.2 | 0.00 | 0.00 | 0.00 | 90 | 1017.6 |
| 20260507091344 | 13 | 177 | 0.0 | 3.2 | 0.00 | 0.00 | 0.00 | 90 | 1017.6 |
| 20260507091243 | 13 | 177 | 0.0 | 3.2 | 0.00 | 0.00 | 0.00 | 90 | 1017.6 |
| 20260507091143 | 13 | 177 | 0.0 | 3.2 | 0.00 | 0.00 | 0.00 | 89 | 1017.7 |
| 20260507091129 | 13 | 205 | 0.0 | 3.2 | 0.00 | 0.00 | 0.00 | 89 | 1017.7 |
| 20260507091043 | 13 | 205 | 0.0 | 3.2 | 0.00 | 0.00 | 0.00 | 90 | 1017.7 |
| 20260507090943 | 13 | 205 | 0.0 | 3.2 | 0.00 | 0.00 | 0.00 | 89 | 1017.7 |
| 20260507090842 | 13 | 143 | 0.0 | 1.6 | 0.00 | 0.00 | 0.00 | 89 | 1017.7 |
| 20260507090743 | 13 | 143 | 0.0 | 1.6 | 0.00 | 0.00 | 0.00 | 89 | 1017.7 |
| 20260507090641 | 13 | 150 | 0.0 | 1.6 | 0.00 | 0.00 | 0.00 | 89 | 1017.7 |
| 20260507090539 | 13 | 150 | 0.0 | 1.6 | 0.00 | 0.00 | 0.00 | 89 | 1017.6 |
| 20260507090439 | 13 | 150 | 0.0 | 1.6 | 0.00 | 0.00 | 0.00 | 89 | 1017.6 |
| 20260507090339 | 13 | 136 | 0.0 | 1.6 | 0.00 | 0.00 | 0.00 | 89 | 1017.6 |
| 20260507090239 | 13 | 150 | 0.0 | 3.2 | 0.00 | 0.00 | 0.00 | 89 | 1017.6 |
| 20260507090128 | 13 | 151 | 0.0 | 3.2 | 0.00 | 0.00 | 0.00 | 89 | 1017.6 |
| 20260507090039 | 13 | 152 | 0.0 | 3.2 | 0.00 | 0.00 | 0.00 | 89 | 1017.6 |
| 20260507085939 | 13 | 167 | 0.0 | 3.2 | 0.00 | 0.00 | 0.00 | 89 | 1017.6 |
| 20260507085838 | 13 | 97 | 0.0 | 3.2 | 0.00 | 0.00 | 0.00 | 89 | 1017.7 |
| 20260507085739 | 13 | 98 | 0.0 | 3.2 | 0.00 | 0.00 | 0.00 | 89 | 1017.7 |
| 20260507085639 | 13 | 97 | 0.0 | 3.2 | 0.00 | 0.00 | 0.00 | 89 | 1017.7 |
| 20260507085628 | 13 | 98 | 0.0 | 3.2 | 0.00 | 0.00 | 0.00 | 89 | 1017.7 |
| 20260507085539 | 13 | 98 | 0.0 | 3.2 | 0.00 | 0.00 | 0.00 | 89 | 1017.7 |
| 20260507085439 | 13 | 98 | 0.0 | 3.2 | 0.00 | 0.00 | 0.00 | 89 | 1017.7 |
| 20260507085351 | 13 | 236 | 0.0 | 1.6 | 0.00 | 0.00 | 0.00 | 89 | 1017.7 |
| 20260507085339 | 13 | 152 | 0.0 | 3.2 | 0.00 | 0.00 | 0.00 | 89 | 1017.7 |
| 20260507085249 | 13 | 143 | 0.0 | 3.2 | 0.00 | 0.00 | 0.00 | 89 | 1017.7 |
| 20260507085240 | 13 | 236 | 0.0 | 1.6 | 0.00 | 0.00 | 0.00 | 89 | 1017.7 |
| 20260507085039 | 13 | 236 | 0.0 | 1.6 | 0.00 | 0.00 | 0.00 | 89 | 1017.7 |
| 20260507084939 | 13 | 236 | 0.0 | 1.6 | 0.00 | 0.00 | 0.00 | 89 | 1017.7 |
| 20260507084839 | 13 | 236 | 0.0 | 1.6 | 0.00 | 0.00 | 0.00 | 89 | 1017.7 |
| 20260507084735 | 13 | 236 | 0.0 | 1.6 | 0.00 | 0.00 | 0.00 | 89 | 1017.7 |
| 20260507084629 | 13 | 236 | 0.0 | 1.6 | 0.00 | 0.00 | 0.00 | 89 | 1017.7 |
| 20260507084535 | 13 | 236 | 0.0 | 1.6 | 0.00 | 0.00 | 0.00 | 88 | 1017.8 |
| 20260507084435 | 13 | 236 | 0.0 | 1.6 | 0.00 | 0.00 | 0.00 | 88 | 1017.7 |
| 20260507084351 | 13 | 236 | 0.0 | 1.6 | 0.00 | 0.00 | 0.00 | 88 | 1017.8 |
| 20260507084335 | 13 | 236 | 0.0 | 1.6 | 0.00 | 0.00 | 0.00 | 88 | 1017.8 |
| 20260507084248 | 13 | 236 | 0.0 | 1.6 | 0.00 | 0.00 | 0.00 | 88 | 1017.8 |
| 20260507084240 | 13 | 236 | 0.0 | 1.6 | 0.00 | 0.00 | 0.00 | 88 | 1017.8 |
| 20260507084035 | 13 | 236 | 0.0 | 1.6 | 0.00 | 0.00 | 0.00 | 88 | 1017.8 |
| 20260507083935 | 13 | 236 | 0.0 | 1.6 | 0.00 | 0.00 | 0.00 | 88 | 1017.8 |
| 20260507083835 | 13 | 237 | 0.0 | 1.6 | 0.00 | 0.00 | 0.00 | 88 | 1017.8 |
| 20260507083734 | 13 | 236 | 0.0 | 1.6 | 0.00 | 0.00 | 0.00 | 88 | 1017.8 |
| 20260507083630 | 13 | 236 | 0.0 | 1.6 | 0.00 | 0.00 | 0.00 | 88 | 1017.8 |
| 20260507083535 | 13 | 236 | 0.0 | 1.6 | 0.00 | 0.00 | 0.00 | 88 | 1017.8 |
| 20260507083435 | 13 | 236 | 0.0 | 1.6 | 0.00 | 0.00 | 0.00 | 88 | 1017.8 |
| 20260507083335 | 13 | 236 | 0.0 | 1.6 | 0.00 | 0.00 | 0.00 | 88 | 1017.8 |
| 20260507083235 | 13 | 236 | 0.0 | 1.6 | 0.00 | 0.00 | 0.00 | 87 | 1017.8 |
| 20260507083125 | 13 | 236 | 0.0 | 1.6 | 0.00 | 0.00 | 0.00 | 88 | 1017.8 |
| 20260507083035 | 14 | 237 | 0.0 | 1.6 | 0.00 | 0.00 | 0.00 | 88 | 1017.8 |
| 20260507082935 | 13 | 236 | 0.0 | 1.6 | 0.00 | 0.00 | 0.00 | 88 | 1017.7 |
| 20260507082831 | 14 | 236 | 0.0 | 1.6 | 0.00 | 0.00 | 0.00 | 88 | 1017.7 |
| 20260507082731 | 13 | 236 | 0.0 | 1.6 | 0.00 | 0.00 | 0.00 | 88 | 1017.8 |
| 20260507082626 | 13 | 236 | 0.0 | 1.6 | 0.00 | 0.00 | 0.00 | 88 | 1017.7 |
| 20260507082531 | 13 | 236 | 0.0 | 1.6 | 0.00 | 0.00 | 0.00 | 88 | 1017.7 |
| 20260507082431 | 13 | 236 | 0.0 | 1.6 | 0.00 | 0.00 | 0.00 | 87 | 1017.7 |
| 20260507082348 | 13 | 236 | 0.0 | 1.6 | 0.00 | 0.00 | 0.00 | 87 | 1017.8 |
| 20260507082331 | 13 | 236 | 0.0 | 1.6 | 0.00 | 0.00 | 0.00 | 87 | 1017.7 |
| 20260507082244 | 13 | 236 | 0.0 | 1.6 | 0.00 | 0.00 | 0.00 | 87 | 1017.8 |
| 20260507082236 | 13 | 236 | 0.0 | 1.6 | 0.00 | 0.00 | 0.00 | 87 | 1017.8 |
| 20260507082031 | 14 | 236 | 0.0 | 1.6 | 0.00 | 0.00 | 0.00 | 87 | 1017.7 |
| 20260507081931 | 14 | 236 | 0.0 | 1.6 | 0.00 | 0.00 | 0.00 | 87 | 1017.7 |
| 20260507081841 | 14 | 236 | 0.0 | 1.6 | 0.00 | 0.00 | 0.00 | 87 | 1017.7 |
| 20260507081831 | 14 | 236 | 0.0 | 1.6 | 0.00 | 0.00 | 0.00 | 87 | 1017.7 |
| 20260507081747 | 14 | 236 | 0.0 | 0.0 | 0.00 | 0.00 | 0.00 | 87 | 1017.7 |
| 20260507081735 | 14 | 236 | 0.0 | 1.6 | 0.00 | 0.00 | 0.00 | 87 | 1017.7 |
| 20260507081531 | 14 | 236 | 0.0 | 1.6 | 0.00 | 0.00 | 0.00 | 87 | 1017.7 |
| 20260507081431 | 14 | 236 | 0.0 | 1.6 | 0.00 | 0.00 | 0.00 | 87 | 1017.7 |
| 20260507081330 | 14 | 236 | 0.0 | 1.6 | 0.00 | 0.00 | 0.00 | 86 | 1017.7 |
| 20260507081234 | 14 | 237 | 0.0 | 1.6 | 0.00 | 0.00 | 0.00 | 86 | 1017.7 |
| 20260507081125 | 14 | 236 | 0.0 | 1.6 | 0.00 | 0.00 | 0.00 | 87 | 1017.7 |
| 20260507081031 | 14 | 236 | 0.0 | 1.6 | 0.00 | 0.00 | 0.00 | 86 | 1017.7 |
| 20260507080927 | 14 | 236 | 0.0 | 1.6 | 0.00 | 0.00 | 0.00 | 87 | 1017.7 |
| 20260507080826 | 14 | 236 | 0.0 | 1.6 | 0.00 | 0.00 | 0.00 | 86 | 1017.6 |
| 20260507080727 | 14 | 236 | 0.0 | 1.6 | 0.00 | 0.00 | 0.00 | 86 | 1017.6 |
| 20260507080628 | 14 | 236 | 0.0 | 1.6 | 0.00 | 0.00 | 0.00 | 86 | 1017.6 |
| 20260507080526 | 14 | 236 | 0.0 | 1.6 | 0.00 | 0.00 | 0.00 | 86 | 1017.7 |
| 20260507080428 | 14 | 236 | 0.0 | 1.6 | 0.00 | 0.00 | 0.00 | 86 | 1017.7 |
| 20260507080327 | 14 | 236 | 0.0 | 1.6 | 0.00 | 0.00 | 0.00 | 86 | 1017.7 |
| 20260507080227 | 14 | 236 | 0.0 | 1.6 | 0.00 | 0.00 | 0.00 | 86 | 1017.7 |
| 20260507080142 | 14 | 236 | 0.0 | 1.6 | 0.00 | 0.00 | 0.00 | 86 | 1017.6 |
| 20260507080027 | 14 | 236 | 0.0 | 1.6 | 0.00 | 0.00 | 0.00 | 86 | 1017.6 |
| 20260507075926 | 14 | 236 | 0.0 | 1.6 | 0.00 | 0.00 | 0.00 | 86 | 1017.7 |
| 20260507075827 | 14 | 236 | 0.0 | 1.6 | 0.00 | 0.00 | 0.00 | 86 | 1017.6 |
| 20260507075727 | 14 | 236 | 0.0 | 1.6 | 0.00 | 0.00 | 0.00 | 86 | 1017.6 |
| 20260507075633 | 14 | 236 | 0.0 | 1.6 | 0.00 | 0.00 | 0.00 | 86 | 1017.6 |
| 20260507075527 | 14 | 236 | 0.0 | 1.6 | 0.00 | 0.00 | 0.00 | 86 | 1017.6 |
| 20260507075427 | 14 | 236 | 0.0 | 1.6 | 0.00 | 0.00 | 0.00 | 86 | 1017.6 |
| 20260507075327 | 14 | 236 | 0.0 | 1.6 | 0.00 | 0.00 | 0.00 | 85 | 1017.6 |
| 20260507075227 | 14 | 236 | 0.0 | 1.6 | 0.00 | 0.00 | 0.00 | 85 | 1017.6 |
| 20260507075128 | 14 | 236 | 0.0 | 1.6 | 0.00 | 0.00 | 0.00 | 85 | 1017.6 |
| 20260507075023 | 14 | 236 | 0.0 | 1.6 | 0.00 | 0.00 | 0.00 | 85 | 1017.6 |
| 20260507074924 | 14 | 236 | 0.0 | 1.6 | 0.00 | 0.00 | 0.00 | 85 | 1017.6 |
| 20260507074823 | 14 | 236 | 0.0 | 1.6 | 0.00 | 0.00 | 0.00 | 85 | 1017.6 |
| 20260507074723 | 14 | 236 | 0.0 | 1.6 | 0.00 | 0.00 | 0.00 | 85 | 1017.6 |
| 20260507074625 | 14 | 236 | 0.0 | 1.6 | 0.00 | 0.00 | 0.00 | 85 | 1017.6 |
| 20260507074522 | 14 | 236 | 0.0 | 1.6 | 0.00 | 0.00 | 0.00 | 85 | 1017.6 |
| 20260507074423 | 14 | 236 | 0.0 | 1.6 | 0.00 | 0.00 | 0.00 | 85 | 1017.6 |
| 20260507074323 | 14 | 236 | 0.0 | 1.6 | 0.00 | 0.00 | 0.00 | 85 | 1017.6 |
| 20260507074223 | 14 | 236 | 0.0 | 1.6 | 0.00 | 0.00 | 0.00 | 85 | 1017.6 |
| 20260507074125 | 14 | 236 | 0.0 | 1.6 | 0.00 | 0.00 | 0.00 | 85 | 1017.6 |
| 20260507074023 | 14 | 236 | 0.0 | 1.6 | 0.00 | 0.00 | 0.00 | 84 | 1017.6 |
| 20260507073923 | 15 | 236 | 0.0 | 1.6 | 0.00 | 0.00 | 0.00 | 84 | 1017.6 |
| 20260507073823 | 15 | 237 | 0.0 | 1.6 | 0.00 | 0.00 | 0.00 | 84 | 1017.6 |
| 20260507073723 | 15 | 237 | 0.0 | 1.6 | 0.00 | 0.00 | 0.00 | 84 | 1017.6 |
| 20260507073624 | 15 | 236 | 0.0 | 1.6 | 0.00 | 0.00 | 0.00 | 84 | 1017.6 |
| 20260507073523 | 15 | 236 | 0.0 | 1.6 | 0.00 | 0.00 | 0.00 | 84 | 1017.6 |
| 20260507073424 | 15 | 236 | 0.0 | 1.6 | 0.00 | 0.00 | 0.00 | 84 | 1017.5 |
| 20260507073323 | 15 | 236 | 0.0 | 1.6 | 0.00 | 0.00 | 0.00 | 84 | 1017.6 |
| 20260507073223 | 15 | 236 | 0.0 | 1.6 | 0.00 | 0.00 | 0.00 | 83 | 1017.5 |
| 20260507073119 | 15 | 236 | 0.0 | 1.6 | 0.00 | 0.00 | 0.00 | 83 | 1017.6 |
| 20260507073018 | 15 | 236 | 0.0 | 3.2 | 0.00 | 0.00 | 0.00 | 83 | 1017.6 |
| 20260507072919 | 15 | 236 | 0.0 | 4.8 | 0.00 | 0.00 | 0.00 | 83 | 1017.5 |
| 20260507072819 | 15 | 236 | 0.0 | 6.4 | 0.00 | 0.00 | 0.00 | 83 | 1017.5 |
| 20260507072719 | 15 | 236 | 1.6 | 6.4 | 0.00 | 0.00 | 0.00 | 83 | 1017.5 |
| 20260507072619 | 15 | 236 | 1.6 | 6.4 | 0.00 | 0.00 | 0.00 | 83 | 1017.6 |
| 20260507072520 | 15 | 237 | 1.6 | 6.4 | 0.00 | 0.00 | 0.00 | 83 | 1017.5 |
| 20260507072419 | 15 | 236 | 1.6 | 6.4 | 0.00 | 0.00 | 0.00 | 83 | 1017.5 |
| 20260507072319 | 15 | 236 | 1.6 | 6.4 | 0.00 | 0.00 | 0.00 | 83 | 1017.5 |
| 20260507072219 | 15 | 236 | 1.6 | 6.4 | 0.00 | 0.00 | 0.00 | 83 | 1017.6 |
| 20260507072119 | 15 | 236 | 1.6 | 6.4 | 0.00 | 0.00 | 0.00 | 83 | 1017.6 |
| 20260507072019 | 15 | 236 | 1.6 | 6.4 | 0.00 | 0.00 | 0.00 | 83 | 1017.5 |
| 20260507071919 | 15 | 236 | 1.6 | 8.0 | 0.00 | 0.00 | 0.00 | 83 | 1017.6 |
| 20260507071819 | 15 | 210 | 1.6 | 8.0 | 0.00 | 0.00 | 0.00 | 83 | 1017.6 |
| 20260507071718 | 15 | 210 | 1.6 | 8.0 | 0.00 | 0.00 | 0.00 | 83 | 1017.6 |
| 20260507071619 | 15 | 203 | 1.6 | 8.0 | 0.00 | 0.00 | 0.00 | 83 | 1017.6 |
| 20260507071519 | 15 | 240 | 3.2 | 8.0 | 0.00 | 0.00 | 0.00 | 83 | 1017.6 |
| 20260507071419 | 15 | 228 | 3.2 | 8.0 | 0.00 | 0.00 | 0.00 | 82 | 1017.6 |
| 20260507071318 | 15 | 228 | 3.2 | 8.0 | 0.00 | 0.00 | 0.00 | 82 | 1017.6 |
| 20260507071215 | 15 | 228 | 3.2 | 8.0 | 0.00 | 0.00 | 0.00 | 82 | 1017.6 |
| 20260507071116 | 15 | 228 | 3.2 | 8.0 | 0.00 | 0.00 | 0.00 | 82 | 1017.6 |
| 20260507071016 | 15 | 236 | 3.2 | 8.0 | 0.00 | 0.00 | 0.00 | 82 | 1017.6 |
| 20260507070915 | 15 | 221 | 3.2 | 11.3 | 0.00 | 0.00 | 0.00 | 82 | 1017.6 |
| 20260507070815 | 15 | 221 | 4.8 | 11.3 | 0.00 | 0.00 | 0.00 | 82 | 1017.6 |
| 20260507070718 | 15 | 205 | 4.8 | 11.3 | 0.00 | 0.00 | 0.00 | 82 | 1017.6 |
| 20260507070621 | 15 | 218 | 4.8 | 14.5 | 0.00 | 0.00 | 0.00 | 82 | 1017.5 |
| 20260507070615 | 15 | 239 | 4.8 | 14.5 | 0.00 | 0.00 | 0.00 | 82 | 1017.5 |
| 20260507070515 | 15 | 225 | 4.8 | 14.5 | 0.00 | 0.00 | 0.00 | 82 | 1017.6 |
| 20260507070415 | 15 | 213 | 6.4 | 14.5 | 0.00 | 0.00 | 0.00 | 82 | 1017.6 |
| 20260507070341 | 15 | 219 | 6.4 | 14.5 | 0.00 | 0.00 | 0.00 | 82 | 1017.5 |
| 20260507070314 | 15 | 218 | 6.4 | 14.5 | 0.00 | 0.00 | 0.00 | 82 | 1017.6 |
| 20260507070232 | 15 | 221 | 6.4 | 14.5 | 0.00 | 0.00 | 0.00 | 82 | 1017.5 |
| 20260507070115 | 15 | 219 | 6.4 | 14.5 | 0.00 | 0.00 | 0.00 | 82 | 1017.5 |
| 20260507070015 | 15 | 225 | 6.4 | 14.5 | 0.00 | 0.00 | 0.00 | 82 | 1017.6 |
| 20260507065916 | 15 | 218 | 6.4 | 14.5 | 0.00 | 0.00 | 0.00 | 82 | 1017.5 |
| 20260507065816 | 15 | 235 | 4.8 | 14.5 | 0.00 | 0.00 | 0.00 | 82 | 1017.6 |
| 20260507065716 | 15 | 231 | 4.8 | 14.5 | 0.00 | 0.00 | 0.00 | 82 | 1017.5 |
| 20260507065622 | 15 | 212 | 4.8 | 12.9 | 0.00 | 0.00 | 0.00 | 82 | 1017.5 |
| 20260507065615 | 15 | 236 | 4.8 | 12.9 | 0.00 | 0.00 | 0.00 | 82 | 1017.5 |
| 20260507065515 | 15 | 206 | 3.2 | 12.9 | 0.00 | 0.00 | 0.00 | 82 | 1017.5 |
| 20260507065415 | 15 | 238 | 3.2 | 9.7 | 0.00 | 0.00 | 0.00 | 82 | 1017.6 |
| 20260507065309 | 15 | 148 | 3.2 | 9.7 | 0.00 | 0.00 | 0.00 | 82 | 1017.5 |
| 20260507065207 | 15 | 228 | 3.2 | 9.7 | 0.00 | 0.00 | 0.00 | 82 | 1017.6 |
| 20260507065107 | 15 | 219 | 3.2 | 9.7 | 0.00 | 0.00 | 0.00 | 82 | 1017.6 |
| 20260507065007 | 15 | 238 | 3.2 | 9.7 | 0.00 | 0.00 | 0.00 | 82 | 1017.6 |
| 20260507064909 | 15 | 242 | 3.2 | 9.7 | 0.00 | 0.00 | 0.00 | 81 | 1017.5 |
| 20260507064803 | 15 | 223 | 3.2 | 9.7 | 0.00 | 0.00 | 0.00 | 81 | 1017.6 |
| 20260507064703 | 15 | 224 | 4.8 | 16.1 | 0.00 | 0.00 | 0.00 | 81 | 1017.5 |
| 20260507064617 | 15 | 236 | 4.8 | 16.1 | 0.00 | 0.00 | 0.00 | 81 | 1017.5 |
| 20260507064601 | 15 | 236 | 4.8 | 16.1 | 0.00 | 0.00 | 0.00 | 81 | 1017.5 |
| 20260507064502 | 15 | 228 | 4.8 | 16.1 | 0.00 | 0.00 | 0.00 | 81 | 1017.5 |
| 20260507064359 | 15 | 242 | 4.8 | 16.1 | 0.00 | 0.00 | 0.00 | 81 | 1017.5 |
| 20260507064253 | 15 | 238 | 4.8 | 16.1 | 0.00 | 0.00 | 0.00 | 81 | 1017.5 |
| 20260507064153 | 15 | 219 | 4.8 | 16.1 | 0.00 | 0.00 | 0.00 | 81 | 1017.5 |
| 20260507064118 | 15 | 232 | 4.8 | 16.1 | 0.00 | 0.00 | 0.00 | 81 | 1017.4 |
| 20260507064053 | 15 | 225 | 4.8 | 16.1 | 0.00 | 0.00 | 0.00 | 81 | 1017.4 |
| 20260507063951 | 15 | 232 | 4.8 | 16.1 | 0.00 | 0.00 | 0.00 | 81 | 1017.4 |
| 20260507063851 | 15 | 238 | 4.8 | 16.1 | 0.00 | 0.00 | 0.00 | 81 | 1017.5 |
| 20260507063747 | 15 | 239 | 4.8 | 16.1 | 0.00 | 0.00 | 0.00 | 81 | 1017.5 |
| 20260507063647 | 15 | 229 | 3.2 | 11.3 | 0.00 | 0.00 | 0.00 | 81 | 1017.5 |
| 20260507063617 | 15 | 231 | 3.2 | 11.3 | 0.00 | 0.00 | 0.00 | 81 | 1017.4 |
| 20260507063547 | 15 | 233 | 3.2 | 11.3 | 0.00 | 0.00 | 0.00 | 81 | 1017.4 |
| 20260507063447 | 16 | 186 | 4.8 | 11.3 | 0.00 | 0.00 | 0.00 | 81 | 1017.5 |
| 20260507063348 | 16 | 216 | 3.2 | 9.7 | 0.00 | 0.00 | 0.00 | 81 | 1017.5 |
| 20260507063339 | 16 | 233 | 3.2 | 9.7 | 0.00 | 0.00 | 0.00 | 81 | 1017.4 |
| 20260507063239 | 16 | 266 | 3.2 | 9.7 | 0.00 | 0.00 | 0.00 | 81 | 1017.5 |
| 20260507063228 | 16 | 236 | 3.2 | 9.7 | 0.00 | 0.00 | 0.00 | 81 | 1017.4 |
| 20260507063039 | 16 | 225 | 3.2 | 9.7 | 0.00 | 0.00 | 0.00 | 81 | 1017.4 |
| 20260507062937 | 16 | 238 | 3.2 | 9.7 | 0.00 | 0.00 | 0.00 | 81 | 1017.4 |
| 20260507062837 | 16 | 238 | 3.2 | 9.7 | 0.00 | 0.00 | 0.00 | 80 | 1017.4 |
| 20260507062734 | 16 | 235 | 3.2 | 9.7 | 0.00 | 0.00 | 0.00 | 80 | 1017.5 |
| 20260507062631 | 16 | 252 | 3.2 | 9.7 | 0.00 | 0.00 | 0.00 | 80 | 1017.5 |
| 20260507062617 | 16 | 233 | 3.2 | 11.3 | 0.00 | 0.00 | 0.00 | 80 | 1017.5 |
| 20260507062531 | 16 | 233 | 4.8 | 11.3 | 0.00 | 0.00 | 0.00 | 80 | 1017.4 |
| 20260507062432 | 16 | 238 | 4.8 | 11.3 | 0.00 | 0.00 | 0.00 | 80 | 1017.4 |
| 20260507062331 | 16 | 235 | 4.8 | 12.9 | 0.00 | 0.00 | 0.00 | 80 | 1017.4 |
| 20260507062225 | 16 | 255 | 4.8 | 16.1 | 0.00 | 0.00 | 0.00 | 80 | 1017.4 |
| 20260507062125 | 16 | 238 | 4.8 | 16.1 | 0.00 | 0.00 | 0.00 | 80 | 1017.4 |
| 20260507062114 | 16 | 256 | 4.8 | 16.1 | 0.00 | 0.00 | 0.00 | 80 | 1017.4 |
| 20260507062025 | 16 | 236 | 6.4 | 16.1 | 0.00 | 0.00 | 0.00 | 80 | 1017.4 |
| 20260507061925 | 16 | 238 | 6.4 | 16.1 | 0.00 | 0.00 | 0.00 | 80 | 1017.4 |
| 20260507061839 | 16 | 259 | 6.4 | 16.1 | 0.00 | 0.00 | 0.00 | 80 | 1017.4 |
| 20260507061823 | 16 | 238 | 6.4 | 16.1 | 0.00 | 0.00 | 0.00 | 80 | 1017.5 |
| 20260507061737 | 16 | 225 | 6.4 | 16.1 | 0.00 | 0.00 | 0.00 | 80 | 1017.4 |
| 20260507061725 | 16 | 239 | 6.4 | 16.1 | 0.00 | 0.00 | 0.00 | 80 | 1017.4 |
| 20260507061521 | 16 | 201 | 4.8 | 16.1 | 0.00 | 0.00 | 0.00 | 80 | 1017.5 |
| 20260507061421 | 16 | 242 | 4.8 | 16.1 | 0.00 | 0.00 | 0.00 | 80 | 1017.5 |
| 20260507061321 | 16 | 259 | 4.8 | 14.5 | 0.00 | 0.00 | 0.00 | 80 | 1017.5 |
| 20260507061222 | 16 | 262 | 4.8 | 14.5 | 0.00 | 0.00 | 0.00 | 80 | 1017.5 |
| 20260507061116 | 16 | 235 | 4.8 | 14.5 | 0.00 | 0.00 | 0.00 | 80 | 1017.5 |
| 20260507061019 | 16 | 235 | 4.8 | 14.5 | 0.00 | 0.00 | 0.00 | 80 | 1017.5 |
| 20260507060919 | 16 | 195 | 4.8 | 14.5 | 0.00 | 0.00 | 0.00 | 80 | 1017.5 |
| 20260507060819 | 16 | 242 | 4.8 | 14.5 | 0.00 | 0.00 | 0.00 | 80 | 1017.5 |
| 20260507060719 | 16 | 197 | 4.8 | 14.5 | 0.00 | 0.00 | 0.00 | 80 | 1017.5 |
| 20260507060625 | 16 | 236 | 3.2 | 14.5 | 0.00 | 0.00 | 0.00 | 80 | 1017.4 |
| 20260507060615 | 16 | 214 | 3.2 | 14.5 | 0.00 | 0.00 | 0.00 | 80 | 1017.4 |
| 20260507060525 | 16 | 226 | 3.2 | 14.5 | 0.00 | 0.00 | 0.00 | 80 | 1017.5 |
| 20260507060418 | 16 | 193 | 3.2 | 14.5 | 0.00 | 0.00 | 0.00 | 80 | 1017.4 |
| 20260507060317 | 16 | 225 | 3.2 | 9.7 | 0.00 | 0.00 | 0.00 | 79 | 1017.5 |
| 20260507060218 | 16 | 225 | 3.2 | 9.7 | 0.00 | 0.00 | 0.00 | 80 | 1017.5 |
| 20260507060121 | 16 | 212 | 3.2 | 9.7 | 0.00 | 0.00 | 0.00 | 79 | 1017.5 |
| 20260507060018 | 16 | 222 | 3.2 | 9.7 | 0.00 | 0.00 | 0.00 | 80 | 1017.4 |
| 20260507055917 | 16 | 198 | 3.2 | 9.7 | 0.00 | 0.00 | 0.00 | 80 | 1017.4 |
| 20260507055835 | 16 | 230 | 4.8 | 9.7 | 0.00 | 0.00 | 0.00 | 79 | 1017.4 |
| 20260507055817 | 16 | 219 | 3.2 | 9.7 | 0.00 | 0.00 | 0.00 | 80 | 1017.4 |
| 20260507055732 | 16 | 233 | 4.8 | 9.7 | 0.00 | 0.00 | 0.00 | 79 | 1017.4 |
| 20260507055720 | 16 | 240 | 4.8 | 9.7 | 0.00 | 0.00 | 0.00 | 79 | 1017.4 |
| 20260507055518 | 16 | 229 | 4.8 | 9.7 | 0.00 | 0.00 | 0.00 | 79 | 1017.4 |
| 20260507055417 | 16 | 143 | 4.8 | 9.7 | 0.00 | 0.00 | 0.00 | 79 | 1017.4 |
| 20260507055317 | 16 | 243 | 4.8 | 9.7 | 0.00 | 0.00 | 0.00 | 79 | 1017.3 |
| 20260507055217 | 16 | 240 | 4.8 | 11.3 | 0.00 | 0.00 | 0.00 | 79 | 1017.3 |
| 20260507055129 | 16 | 239 | 4.8 | 12.9 | 0.00 | 0.00 | 0.00 | 79 | 1017.4 |
| 20260507055118 | 16 | 236 | 4.8 | 12.9 | 0.00 | 0.00 | 0.00 | 79 | 1017.4 |
| 20260507055017 | 16 | 253 | 4.8 | 12.9 | 0.00 | 0.00 | 0.00 | 79 | 1017.4 |
| 20260507054915 | 16 | 233 | 4.8 | 12.9 | 0.00 | 0.00 | 0.00 | 79 | 1017.3 |
| 20260507054824 | 16 | 235 | 4.8 | 12.9 | 0.00 | 0.00 | 0.00 | 79 | 1017.3 |
| 20260507054816 | 16 | 221 | 4.8 | 12.9 | 0.00 | 0.00 | 0.00 | 79 | 1017.3 |
| 20260507054725 | 16 | 236 | 4.8 | 12.9 | 0.00 | 0.00 | 0.00 | 79 | 1017.4 |
| 20260507054711 | 16 | 235 | 4.8 | 12.9 | 0.00 | 0.00 | 0.00 | 79 | 1017.3 |
| 20260507054515 | 16 | 242 | 4.8 | 12.9 | 0.00 | 0.00 | 0.00 | 79 | 1017.3 |
| 20260507054415 | 16 | 228 | 4.8 | 12.9 | 0.00 | 0.00 | 0.00 | 79 | 1017.3 |
| 20260507054314 | 16 | 224 | 4.8 | 12.9 | 0.00 | 0.00 | 0.00 | 79 | 1017.3 |
| 20260507054213 | 16 | 200 | 3.2 | 12.9 | 0.00 | 0.00 | 0.00 | 79 | 1017.3 |
| 20260507054113 | 16 | 269 | 3.2 | 8.0 | 0.00 | 0.00 | 0.00 | 79 | 1017.3 |
| 20260507054059 | 16 | 236 | 3.2 | 8.0 | 0.00 | 0.00 | 0.00 | 79 | 1017.3 |
| 20260507054014 | 16 | 239 | 3.2 | 8.0 | 0.00 | 0.00 | 0.00 | 79 | 1017.3 |
| 20260507053913 | 16 | 238 | 3.2 | 8.0 | 0.00 | 0.00 | 0.00 | 79 | 1017.3 |
| 20260507053813 | 16 | 240 | 4.8 | 12.9 | 0.00 | 0.00 | 0.00 | 79 | 1017.3 |
| 20260507053713 | 16 | 233 | 4.8 | 12.9 | 0.00 | 0.00 | 0.00 | 79 | 1017.3 |
| 20260507053611 | 16 | 232 | 4.8 | 12.9 | 0.00 | 0.00 | 0.00 | 79 | 1017.3 |
| 20260507053559 | 16 | 232 | 4.8 | 12.9 | 0.00 | 0.00 | 0.00 | 79 | 1017.3 |
| 20260507053511 | 16 | 229 | 4.8 | 12.9 | 0.00 | 0.00 | 0.00 | 79 | 1017.3 |
| 20260507053411 | 16 | 229 | 4.8 | 12.9 | 0.00 | 0.00 | 0.00 | 79 | 1017.4 |
| 20260507053311 | 16 | 174 | 4.8 | 12.9 | 0.00 | 0.00 | 0.00 | 79 | 1017.4 |
| 20260507053211 | 16 | 229 | 4.8 | 12.9 | 0.00 | 0.00 | 0.00 | 79 | 1017.3 |
| 20260507053111 | 17 | 212 | 4.8 | 12.9 | 0.00 | 0.00 | 0.00 | 79 | 1017.3 |
| 20260507053057 | 17 | 228 | 4.8 | 12.9 | 0.00 | 0.00 | 0.00 | 79 | 1017.3 |
| 20260507053011 | 17 | 215 | 4.8 | 12.9 | 0.00 | 0.00 | 0.00 | 79 | 1017.3 |
| 20260507052912 | 17 | 233 | 4.8 | 12.9 | 0.00 | 0.00 | 0.00 | 79 | 1017.3 |
| 20260507052812 | 17 | 221 | 4.8 | 11.3 | 0.00 | 0.00 | 0.00 | 79 | 1017.3 |
| 20260507052711 | 17 | 242 | 4.8 | 9.7 | 0.00 | 0.00 | 0.00 | 79 | 1017.3 |
| 20260507052607 | 17 | 229 | 4.8 | 9.7 | 0.00 | 0.00 | 0.00 | 79 | 1017.3 |
| 20260507052557 | 17 | 229 | 4.8 | 9.7 | 0.00 | 0.00 | 0.00 | 79 | 1017.3 |
| 20260507052505 | 17 | 201 | 4.8 | 9.7 | 0.00 | 0.00 | 0.00 | 78 | 1017.3 |
| 20260507052411 | 17 | 231 | 4.8 | 11.3 | 0.00 | 0.00 | 0.00 | 78 | 1017.3 |
| 20260507052306 | 17 | 253 | 4.8 | 11.3 | 0.00 | 0.00 | 0.00 | 78 | 1017.3 |
| 20260507052203 | 17 | 226 | 4.8 | 12.9 | 0.00 | 0.00 | 0.00 | 78 | 1017.3 |
| 20260507052100 | 17 | 236 | 4.8 | 12.9 | 0.00 | 0.00 | 0.00 | 78 | 1017.3 |
| 20260507051959 | 17 | 223 | 4.8 | 12.9 | 0.00 | 0.00 | 0.00 | 78 | 1017.3 |
| 20260507051900 | 17 | 210 | 4.8 | 12.9 | 0.00 | 0.00 | 0.00 | 78 | 1017.3 |
| 20260507051800 | 17 | 223 | 4.8 | 12.9 | 0.00 | 0.00 | 0.00 | 78 | 1017.3 |
| 20260507051700 | 17 | 221 | 4.8 | 12.9 | 0.00 | 0.00 | 0.00 | 78 | 1017.2 |
| 20260507051608 | 17 | 245 | 6.4 | 12.9 | 0.00 | 0.00 | 0.00 | 78 | 1017.2 |
| 20260507051558 | 17 | 229 | 6.4 | 12.9 | 0.00 | 0.00 | 0.00 | 78 | 1017.2 |
| 20260507051459 | 17 | 235 | 6.4 | 14.5 | 0.00 | 0.00 | 0.00 | 78 | 1017.2 |
| 20260507051359 | 17 | 217 | 6.4 | 14.5 | 0.00 | 0.00 | 0.00 | 78 | 1017.2 |
| 20260507051318 | 17 | 217 | 6.4 | 17.7 | 0.00 | 0.00 | 0.00 | 77 | 1017.2 |
| 20260507051259 | 17 | 231 | 6.4 | 17.7 | 0.00 | 0.00 | 0.00 | 78 | 1017.2 |
| 20260507051216 | 17 | 243 | 6.4 | 17.7 | 0.00 | 0.00 | 0.00 | 78 | 1017.2 |
| 20260507051208 | 17 | 217 | 6.4 | 17.7 | 0.00 | 0.00 | 0.00 | 78 | 1017.2 |
| 20260507051000 | 17 | 145 | 6.4 | 17.7 | 0.00 | 0.00 | 0.00 | 77 | 1017.2 |
| 20260507050859 | 17 | 224 | 8.0 | 17.7 | 0.00 | 0.00 | 0.00 | 77 | 1017.2 |
| 20260507050759 | 17 | 233 | 8.0 | 17.7 | 0.00 | 0.00 | 0.00 | 77 | 1017.2 |
| 20260507050659 | 17 | 242 | 8.0 | 17.7 | 0.00 | 0.00 | 0.00 | 77 | 1017.1 |
| 20260507050604 | 17 | 233 | 8.0 | 17.7 | 0.00 | 0.00 | 0.00 | 77 | 1017.2 |
| 20260507050554 | 17 | 231 | 8.0 | 17.7 | 0.00 | 0.00 | 0.00 | 77 | 1017.2 |
| 20260507050459 | 17 | 276 | 8.0 | 17.7 | 0.00 | 0.00 | 0.00 | 77 | 1017.2 |
| 20260507050359 | 17 | 236 | 6.4 | 17.7 | 0.00 | 0.00 | 0.00 | 77 | 1017.1 |
| 20260507050300 | 17 | 228 | 6.4 | 17.7 | 0.00 | 0.00 | 0.00 | 77 | 1017.1 |
| 20260507050159 | 17 | 195 | 6.4 | 17.7 | 0.00 | 0.00 | 0.00 | 77 | 1017.1 |
| 20260507050116 | 17 | 242 | 6.4 | 17.7 | 0.00 | 0.00 | 0.00 | 77 | 1017.1 |
| 20260507050105 | 17 | 236 | 6.4 | 17.7 | 0.00 | 0.00 | 0.00 | 77 | 1017.1 |
| 20260507045959 | 17 | 228 | 6.4 | 14.5 | 0.00 | 0.00 | 0.00 | 77 | 1017.1 |
| 20260507045859 | 17 | 236 | 6.4 | 14.5 | 0.00 | 0.00 | 0.00 | 77 | 1017.1 |
| 20260507045800 | 17 | 274 | 6.4 | 14.5 | 0.00 | 0.00 | 0.00 | 77 | 1017.1 |
| 20260507045659 | 17 | 238 | 6.4 | 14.5 | 0.00 | 0.00 | 0.00 | 77 | 1017.1 |
| 20260507045602 | 17 | 158 | 6.4 | 14.5 | 0.00 | 0.00 | 0.00 | 77 | 1017.2 |
| 20260507045552 | 17 | 193 | 6.4 | 14.5 | 0.00 | 0.00 | 0.00 | 77 | 1017.2 |
| 20260507045457 | 17 | 215 | 6.4 | 14.5 | 0.00 | 0.00 | 0.00 | 77 | 1017.1 |
| 20260507045357 | 17 | 250 | 6.4 | 14.5 | 0.00 | 0.00 | 0.00 | 77 | 1017.1 |
| 20260507045315 | 17 | 260 | 6.4 | 14.5 | 0.00 | 0.00 | 0.00 | 76 | 1017.1 |
| 20260507045255 | 17 | 229 | 6.4 | 14.5 | 0.00 | 0.00 | 0.00 | 76 | 1017.1 |
| 20260507045211 | 17 | 232 | 6.4 | 14.5 | 0.00 | 0.00 | 0.00 | 76 | 1017.1 |
| 20260507045203 | 17 | 260 | 6.4 | 14.5 | 0.00 | 0.00 | 0.00 | 76 | 1017.1 |
| 20260507044955 | 17 | 243 | 6.4 | 14.5 | 0.00 | 0.00 | 0.00 | 76 | 1017.1 |
| 20260507044855 | 18 | 225 | 6.4 | 14.5 | 0.00 | 0.00 | 0.00 | 76 | 1017.1 |
| 20260507044755 | 18 | 245 | 6.4 | 11.3 | 0.00 | 0.00 | 0.00 | 76 | 1017.1 |
| 20260507044655 | 18 | 233 | 6.4 | 14.5 | 0.00 | 0.00 | 0.00 | 76 | 1017.1 |
| 20260507044603 | 18 | 231 | 6.4 | 14.5 | 0.00 | 0.00 | 0.00 | 76 | 1017.0 |
| 20260507044552 | 18 | 257 | 6.4 | 14.5 | 0.00 | 0.00 | 0.00 | 76 | 1017.0 |
| 20260507044456 | 18 | 235 | 4.8 | 14.5 | 0.00 | 0.00 | 0.00 | 76 | 1017.0 |
| 20260507044355 | 18 | 248 | 4.8 | 14.5 | 0.00 | 0.00 | 0.00 | 76 | 1017.0 |
| 20260507044255 | 18 | 232 | 6.4 | 20.9 | 0.00 | 0.00 | 0.00 | 75 | 1017.0 |
| 20260507044153 | 18 | 212 | 6.4 | 20.9 | 0.00 | 0.00 | 0.00 | 75 | 1017.1 |
| 20260507044053 | 18 | 157 | 6.4 | 20.9 | 0.00 | 0.00 | 0.00 | 75 | 1017.0 |
| 20260507043952 | 18 | 232 | 6.4 | 20.9 | 0.00 | 0.00 | 0.00 | 75 | 1017.0 |
| 20260507043852 | 18 | 232 | 6.4 | 20.9 | 0.00 | 0.00 | 0.00 | 75 | 1017.0 |
| 20260507043751 | 18 | 218 | 6.4 | 20.9 | 0.00 | 0.00 | 0.00 | 75 | 1017.1 |
| 20260507043651 | 18 | 180 | 6.4 | 20.9 | 0.00 | 0.00 | 0.00 | 75 | 1017.1 |
| 20260507043554 | 18 | 228 | 6.4 | 20.9 | 0.00 | 0.00 | 0.00 | 75 | 1017.0 |
| 20260507043452 | 18 | 248 | 6.4 | 20.9 | 0.00 | 0.00 | 0.00 | 75 | 1017.0 |
| 20260507043351 | 18 | 219 | 4.8 | 20.9 | 0.00 | 0.00 | 0.00 | 75 | 1017.0 |
| 20260507043251 | 18 | 243 | 4.8 | 19.3 | 0.00 | 0.00 | 0.00 | 75 | 1017.0 |
| 20260507043151 | 18 | 250 | 4.8 | 19.3 | 0.00 | 0.00 | 0.00 | 75 | 1017.0 |
| 20260507043053 | 18 | 232 | 4.8 | 19.3 | 0.00 | 0.00 | 0.00 | 75 | 1017.0 |
| 20260507042945 | 18 | 231 | 4.8 | 19.3 | 0.00 | 0.00 | 0.00 | 75 | 1017.0 |
| 20260507042846 | 18 | 271 | 6.4 | 20.9 | 0.00 | 0.00 | 0.00 | 75 | 1016.9 |
| 20260507042745 | 18 | 257 | 6.4 | 20.9 | 0.00 | 0.00 | 0.00 | 75 | 1016.9 |
| 20260507042646 | 18 | 201 | 6.4 | 20.9 | 0.00 | 0.00 | 0.00 | 75 | 1016.9 |
| 20260507042547 | 18 | 232 | 8.0 | 20.9 | 0.00 | 0.00 | 0.00 | 75 | 1016.9 |
| 20260507042439 | 18 | 215 | 8.0 | 20.9 | 0.00 | 0.00 | 0.00 | 75 | 1016.8 |
| 20260507042340 | 18 | 264 | 8.0 | 20.9 | 0.00 | 0.00 | 0.00 | 75 | 1016.9 |
| 20260507042307 | 18 | 233 | 8.0 | 20.9 | 0.00 | 0.00 | 0.00 | 75 | 1016.9 |
| 20260507042240 | 18 | 243 | 8.0 | 20.9 | 0.00 | 0.00 | 0.00 | 75 | 1016.9 |
| 20260507042154 | 18 | 243 | 8.0 | 20.9 | 0.00 | 0.00 | 0.00 | 75 | 1016.9 |
| 20260507042037 | 18 | 233 | 8.0 | 20.9 | 0.00 | 0.00 | 0.00 | 75 | 1016.9 |
| 20260507041931 | 18 | 222 | 8.0 | 20.9 | 0.00 | 0.00 | 0.00 | 75 | 1016.9 |
| 20260507041831 | 18 | 246 | 8.0 | 20.9 | 0.00 | 0.00 | 0.00 | 75 | 1016.9 |
| 20260507041734 | 18 | 250 | 8.0 | 20.9 | 0.00 | 0.00 | 0.00 | 75 | 1016.9 |
| 20260507041631 | 18 | 249 | 6.4 | 19.3 | 0.00 | 0.00 | 0.00 | 75 | 1016.8 |
| 20260507041539 | 18 | 248 | 6.4 | 19.3 | 0.00 | 0.00 | 0.00 | 75 | 1016.9 |
| 20260507041531 | 18 | 252 | 6.4 | 19.3 | 0.00 | 0.00 | 0.00 | 75 | 1016.9 |
| 20260507041427 | 18 | 245 | 6.4 | 19.3 | 0.00 | 0.00 | 0.00 | 75 | 1016.9 |
| 20260507041325 | 18 | 232 | 6.4 | 19.3 | 0.00 | 0.00 | 0.00 | 75 | 1016.9 |
| 20260507041226 | 18 | 246 | 6.4 | 19.3 | 0.00 | 0.00 | 0.00 | 75 | 1016.9 |
| 20260507041125 | 18 | 248 | 6.4 | 19.3 | 0.00 | 0.00 | 0.00 | 75 | 1016.9 |
| 20260507041037 | 18 | 255 | 6.4 | 19.3 | 0.00 | 0.00 | 0.00 | 75 | 1016.9 |
| 20260507041023 | 18 | 246 | 6.4 | 19.3 | 0.00 | 0.00 | 0.00 | 75 | 1016.9 |
| 20260507040921 | 18 | 255 | 6.4 | 19.3 | 0.00 | 0.00 | 0.00 | 75 | 1016.9 |
| 20260507040821 | 18 | 231 | 6.4 | 19.3 | 0.00 | 0.00 | 0.00 | 75 | 1016.8 |
| 20260507040802 | 18 | 262 | 6.4 | 19.3 | 0.00 | 0.00 | 0.00 | 74 | 1016.8 |
| 20260507040722 | 18 | 242 | 6.4 | 19.3 | 0.00 | 0.00 | 0.00 | 74 | 1016.8 |
| 20260507040648 | 18 | 257 | 6.4 | 19.3 | 0.00 | 0.00 | 0.00 | 75 | 1016.8 |
| 20260507040521 | 18 | 267 | 6.4 | 19.3 | 0.00 | 0.00 | 0.00 | 74 | 1016.8 |
| 20260507040421 | 18 | 248 | 8.0 | 19.3 | 0.00 | 0.00 | 0.00 | 74 | 1016.8 |
| 20260507040322 | 19 | 250 | 8.0 | 19.3 | 0.00 | 0.00 | 0.00 | 75 | 1016.7 |
| 20260507040220 | 19 | 226 | 8.0 | 19.3 | 0.00 | 0.00 | 0.00 | 75 | 1016.7 |
| 20260507040119 | 19 | 250 | 8.0 | 19.3 | 0.00 | 0.00 | 0.00 | 75 | 1016.8 |
| 20260507040020 | 19 | 238 | 8.0 | 19.3 | 0.00 | 0.00 | 0.00 | 75 | 1016.7 |
| 20260507035920 | 19 | 226 | 8.0 | 19.3 | 0.00 | 0.00 | 0.00 | 75 | 1016.7 |
| 20260507035819 | 19 | 210 | 6.4 | 19.3 | 0.00 | 0.00 | 0.00 | 75 | 1016.7 |
| 20260507035719 | 19 | 252 | 6.4 | 19.3 | 0.00 | 0.00 | 0.00 | 75 | 1016.8 |
| 20260507035619 | 19 | 257 | 6.4 | 19.3 | 0.00 | 0.00 | 0.00 | 75 | 1016.7 |
| 20260507035539 | 19 | 190 | 6.4 | 14.5 | 0.00 | 0.00 | 0.00 | 75 | 1016.7 |
| 20260507035518 | 19 | 145 | 6.4 | 14.5 | 0.00 | 0.00 | 0.00 | 75 | 1016.7 |
| 20260507035419 | 19 | 233 | 6.4 | 14.5 | 0.00 | 0.00 | 0.00 | 75 | 1016.7 |
| 20260507035319 | 19 | 274 | 4.8 | 12.9 | 0.00 | 0.00 | 0.00 | 74 | 1016.7 |
| 20260507035256 | 19 | 225 | 4.8 | 12.9 | 0.00 | 0.00 | 0.00 | 75 | 1016.7 |
| 20260507035219 | 19 | 233 | 4.8 | 12.9 | 0.00 | 0.00 | 0.00 | 74 | 1016.7 |
| 20260507035145 | 19 | 228 | 4.8 | 12.9 | 0.00 | 0.00 | 0.00 | 75 | 1016.7 |
| 20260507035019 | 19 | 264 | 4.8 | 11.3 | 0.00 | 0.00 | 0.00 | 75 | 1016.7 |
| 20260507034919 | 19 | 211 | 4.8 | 11.3 | 0.00 | 0.00 | 0.00 | 75 | 1016.7 |
| 20260507034819 | 20 | 228 | 4.8 | 14.5 | 0.00 | 0.00 | 0.00 | 75 | 1016.7 |
| 20260507034719 | 20 | 233 | 4.8 | 14.5 | 0.00 | 0.00 | 0.00 | 75 | 1016.7 |
| 20260507034619 | 20 | 239 | 4.8 | 17.7 | 0.00 | 0.00 | 0.00 | 74 | 1016.7 |
| 20260507034535 | 20 | 242 | 4.8 | 17.7 | 0.00 | 0.00 | 0.00 | 74 | 1016.7 |
| 20260507034519 | 20 | 233 | 4.8 | 17.7 | 0.00 | 0.00 | 0.00 | 74 | 1016.7 |
| 20260507034419 | 20 | 195 | 4.8 | 17.7 | 0.00 | 0.00 | 0.00 | 74 | 1016.6 |
| 20260507034319 | 20 | 248 | 4.8 | 17.7 | 0.00 | 0.00 | 0.00 | 74 | 1016.7 |
| 20260507034217 | 20 | 241 | 4.8 | 17.7 | 0.00 | 0.00 | 0.00 | 74 | 1016.6 |
| 20260507034115 | 20 | 211 | 4.8 | 17.7 | 0.00 | 0.00 | 0.00 | 74 | 1016.7 |
| 20260507034033 | 20 | 245 | 4.8 | 17.7 | 0.00 | 0.00 | 0.00 | 74 | 1016.7 |
| 20260507034015 | 20 | 259 | 4.8 | 17.7 | 0.00 | 0.00 | 0.00 | 74 | 1016.7 |
| 20260507033916 | 20 | 211 | 4.8 | 17.7 | 0.00 | 0.00 | 0.00 | 74 | 1016.6 |
| 20260507033816 | 20 | 239 | 4.8 | 17.7 | 0.00 | 0.00 | 0.00 | 74 | 1016.6 |
| 20260507033715 | 20 | 237 | 4.8 | 17.7 | 0.00 | 0.00 | 0.00 | 74 | 1016.6 |
| 20260507033615 | 20 | 242 | 3.2 | 8.0 | 0.00 | 0.00 | 0.00 | 74 | 1016.6 |
| 20260507033533 | 20 | 271 | 3.2 | 8.0 | 0.00 | 0.00 | 0.00 | 74 | 1016.6 |
| 20260507033513 | 20 | 169 | 3.2 | 9.7 | 0.00 | 0.00 | 0.00 | 74 | 1016.6 |
| 20260507033413 | 20 | 232 | 3.2 | 9.7 | 0.00 | 0.00 | 0.00 | 74 | 1016.6 |
| 20260507033313 | 20 | 212 | 3.2 | 9.7 | 0.00 | 0.00 | 0.00 | 74 | 1016.6 |
| 20260507033252 | 20 | 236 | 3.2 | 12.9 | 0.00 | 0.00 | 0.00 | 73 | 1016.6 |
| 20260507033213 | 20 | 236 | 3.2 | 9.7 | 0.00 | 0.00 | 0.00 | 73 | 1016.6 |
| 20260507033143 | 20 | 205 | 3.2 | 9.7 | 0.00 | 0.00 | 0.00 | 73 | 1016.6 |
| 20260507033014 | 20 | 260 | 3.2 | 12.9 | 0.00 | 0.00 | 0.00 | 73 | 1016.6 |
| 20260507032914 | 20 | 246 | 3.2 | 12.9 | 0.00 | 0.00 | 0.00 | 73 | 1016.6 |
| 20260507032811 | 20 | 248 | 3.2 | 12.9 | 0.00 | 0.00 | 0.00 | 73 | 1016.6 |
| 20260507032712 | 20 | 239 | 3.2 | 12.9 | 0.00 | 0.00 | 0.00 | 72 | 1016.5 |
| 20260507032612 | 20 | 250 | 3.2 | 12.9 | 0.00 | 0.00 | 0.00 | 72 | 1016.5 |
| 20260507032531 | 20 | 300 | 3.2 | 12.9 | 0.00 | 0.00 | 0.00 | 72 | 1016.6 |
| 20260507032512 | 20 | 240 | 3.2 | 12.9 | 0.00 | 0.00 | 0.00 | 72 | 1016.6 |
| 20260507032411 | 20 | 239 | 3.2 | 14.5 | 0.00 | 0.00 | 0.00 | 72 | 1016.5 |
| 20260507032312 | 20 | 287 | 3.2 | 14.5 | 0.00 | 0.00 | 0.00 | 72 | 1016.5 |
| 20260507032211 | 20 | 243 | 3.2 | 14.5 | 0.00 | 0.00 | 0.00 | 71 | 1016.5 |
| 20260507032111 | 21 | 233 | 3.2 | 14.5 | 0.00 | 0.00 | 0.00 | 71 | 1016.5 |
| 20260507032011 | 21 | 281 | 3.2 | 14.5 | 0.00 | 0.00 | 0.00 | 71 | 1016.4 |
| 20260507031910 | 21 | 250 | 3.2 | 14.5 | 0.00 | 0.00 | 0.00 | 71 | 1016.4 |
| 20260507031808 | 21 | 262 | 3.2 | 14.5 | 0.00 | 0.00 | 0.00 | 71 | 1016.4 |
| 20260507031707 | 21 | 287 | 3.2 | 14.5 | 0.00 | 0.00 | 0.00 | 70 | 1016.4 |
| 20260507031607 | 21 | 243 | 3.2 | 14.5 | 0.00 | 0.00 | 0.00 | 70 | 1016.4 |
| 20260507031529 | 21 | 260 | 3.2 | 14.5 | 0.00 | 0.00 | 0.00 | 70 | 1016.4 |
| 20260507031507 | 21 | 276 | 3.2 | 14.5 | 0.00 | 0.00 | 0.00 | 70 | 1016.4 |
| 20260507031407 | 21 | 235 | 3.2 | 9.7 | 0.00 | 0.00 | 0.00 | 70 | 1016.4 |
| 20260507031307 | 21 | 232 | 3.2 | 9.7 | 0.00 | 0.00 | 0.00 | 69 | 1016.3 |
| 20260507031253 | 21 | 228 | 3.2 | 14.5 | 0.00 | 0.00 | 0.00 | 69 | 1016.4 |
| 20260507031205 | 21 | 262 | 3.2 | 12.9 | 0.00 | 0.00 | 0.00 | 69 | 1016.4 |
| 20260507031141 | 21 | 280 | 3.2 | 12.9 | 0.00 | 0.00 | 0.00 | 69 | 1016.4 |
| 20260507031004 | 21 | 248 | 3.2 | 16.1 | 0.00 | 0.00 | 0.00 | 69 | 1016.4 |
| 20260507030903 | 21 | 236 | 3.2 | 16.1 | 0.00 | 0.00 | 0.00 | 69 | 1016.3 |
| 20260507030804 | 21 | 228 | 3.2 | 16.1 | 0.00 | 0.00 | 0.00 | 68 | 1016.4 |
| 20260507030752 | 21 | 253 | 3.2 | 16.1 | 0.00 | 0.00 | 0.00 | 68 | 1016.3 |
| 20260507030703 | 21 | 233 | 3.2 | 16.1 | 0.00 | 0.00 | 0.00 | 68 | 1016.3 |
| 20260507030640 | 21 | 274 | 3.2 | 16.1 | 0.00 | 0.00 | 0.00 | 68 | 1016.3 |
| 20260507030503 | 22 | 214 | 3.2 | 16.1 | 0.00 | 0.00 | 0.00 | 67 | 1016.3 |
| 20260507030401 | 22 | 250 | 3.2 | 16.1 | 0.00 | 0.00 | 0.00 | 67 | 1016.4 |
| 20260507030301 | 22 | 226 | 3.2 | 16.1 | 0.00 | 0.00 | 0.00 | 66 | 1016.3 |
| 20260507030243 | 22 | 287 | 3.2 | 8.0 | 0.00 | 0.00 | 0.00 | 64 | 1016.3 |
| 20260507030159 | 22 | 256 | 3.2 | 16.1 | 0.00 | 0.00 | 0.00 | 66 | 1016.3 |
| 20260507030135 | 22 | 193 | 3.2 | 16.1 | 0.00 | 0.00 | 0.00 | 64 | 1016.3 |
| 20260507025959 | 22 | 236 | 3.2 | 8.0 | 0.00 | 0.00 | 0.00 | 64 | 1016.3 |
| 20260507025859 | 22 | 198 | 3.2 | 8.0 | 0.00 | 0.00 | 0.00 | 64 | 1016.3 |
| 20260507025800 | 22 | 236 | 3.2 | 8.0 | 0.00 | 0.00 | 0.00 | 64 | 1016.2 |
| 20260507025659 | 22 | 240 | 1.6 | 8.0 | 0.00 | 0.00 | 0.00 | 64 | 1016.2 |
| 20260507025557 | 22 | 245 | 1.6 | 8.0 | 0.00 | 0.00 | 0.00 | 64 | 1016.2 |
| 20260507025521 | 22 | 240 | 1.6 | 8.0 | 0.00 | 0.00 | 0.00 | 64 | 1016.3 |
| 20260507025457 | 22 | 240 | 1.6 | 8.0 | 0.00 | 0.00 | 0.00 | 64 | 1016.3 |
| 20260507025357 | 22 | 221 | 1.6 | 6.4 | 0.00 | 0.00 | 0.00 | 64 | 1016.3 |
| 20260507025255 | 22 | 243 | 1.6 | 6.4 | 0.00 | 0.00 | 0.00 | 64 | 1016.3 |
| 20260507025152 | 22 | 217 | 0.0 | 6.4 | 0.00 | 0.00 | 0.00 | 64 | 1016.2 |
| 20260507025019 | 22 | 232 | 0.0 | 4.8 | 0.00 | 0.00 | 0.00 | 64 | 1016.3 |
| 20260507024947 | 22 | 242 | 0.0 | 4.8 | 0.00 | 0.00 | 0.00 | 64 | 1016.3 |
| 20260507024847 | 22 | 241 | 1.6 | 4.8 | 0.00 | 0.00 | 0.00 | 64 | 1016.3 |
| 20260507024747 | 22 | 242 | 1.6 | 4.8 | 0.00 | 0.00 | 0.00 | 63 | 1016.2 |
| 20260507024645 | 22 | 242 | 1.6 | 4.8 | 0.00 | 0.00 | 0.00 | 63 | 1016.2 |
| 20260507024530 | 22 | 243 | 1.6 | 4.8 | 0.00 | 0.00 | 0.00 | 63 | 1016.2 |
| 20260507024442 | 22 | 233 | 1.6 | 4.8 | 0.00 | 0.00 | 0.00 | 63 | 1016.2 |
| 20260507024341 | 22 | 233 | 1.6 | 4.8 | 0.00 | 0.00 | 0.00 | 63 | 1016.2 |
| 20260507024247 | 22 | 253 | 1.6 | 4.8 | 0.00 | 0.00 | 0.00 | 63 | 1016.2 |
| 20260507024241 | 22 | 233 | 1.6 | 4.8 | 0.00 | 0.00 | 0.00 | 63 | 1016.2 |
| 20260507024139 | 22 | 245 | 1.6 | 4.8 | 0.00 | 0.00 | 0.00 | 63 | 1016.2 |
| 20260507024127 | 22 | 252 | 1.6 | 4.8 | 0.00 | 0.00 | 0.00 | 63 | 1016.2 |
| 20260507023935 | 22 | 232 | 1.6 | 4.8 | 0.00 | 0.00 | 0.00 | 63 | 1016.2 |
| 20260507023836 | 22 | 231 | 0.0 | 4.8 | 0.00 | 0.00 | 0.00 | 63 | 1016.2 |
| 20260507023734 | 22 | 232 | 0.0 | 4.8 | 0.00 | 0.00 | 0.00 | 63 | 1016.2 |
| 20260507023634 | 22 | 232 | 0.0 | 4.8 | 0.00 | 0.00 | 0.00 | 62 | 1016.2 |
| 20260507023516 | 22 | 232 | 0.0 | 4.8 | 0.00 | 0.00 | 0.00 | 62 | 1016.2 |
| 20260507023325 | 22 | 232 | 0.0 | 4.8 | 0.00 | 0.00 | 0.00 | 62 | 1016.1 |
| 20260507023226 | 22 | 232 | 0.0 | 4.8 | 0.00 | 0.00 | 0.00 | 62 | 1016.1 |
| 20260507023126 | 22 | 233 | 0.0 | 4.8 | 0.00 | 0.00 | 0.00 | 62 | 1016.1 |
| 20260507023026 | 22 | 228 | 0.0 | 3.2 | 0.00 | 0.00 | 0.00 | 62 | 1016.1 |
| 20260507023015 | 22 | 228 | 0.0 | 1.6 | 0.00 | 0.00 | 0.00 | 62 | 1016.1 |
| 20260507022920 | 22 | 228 | 0.0 | 1.6 | 0.00 | 0.00 | 0.00 | 63 | 1016.1 |
| 20260507022819 | 22 | 228 | 0.0 | 0.0 | 0.00 | 0.00 | 0.00 | 62 | 1016.1 |
| 20260507022720 | 22 | 228 | 0.0 | 0.0 | 0.00 | 0.00 | 0.00 | 62 | 1016.1 |
| 20260507022619 | 22 | 228 | 0.0 | 0.0 | 0.00 | 0.00 | 0.00 | 62 | 1016.1 |
| 20260507022516 | 22 | 228 | 0.0 | 0.0 | 0.00 | 0.00 | 0.00 | 62 | 1016.0 |
| 20260507022413 | 22 | 227 | 0.0 | 0.0 | 0.00 | 0.00 | 0.00 | 62 | 1016.1 |
| 20260507022313 | 22 | 228 | 0.0 | 3.2 | 0.00 | 0.00 | 0.00 | 62 | 1016.0 |
| 20260507022211 | 22 | 229 | 0.0 | 3.2 | 0.00 | 0.00 | 0.00 | 61 | 1016.0 |
| 20260507022112 | 22 | 228 | 0.0 | 3.2 | 0.00 | 0.00 | 0.00 | 61 | 1016.0 |
| 20260507022007 | 22 | 228 | 0.0 | 3.2 | 0.00 | 0.00 | 0.00 | 61 | 1016.0 |
| 20260507021908 | 22 | 228 | 0.0 | 3.2 | 0.00 | 0.00 | 0.00 | 61 | 1015.9 |
| 20260507021807 | 22 | 228 | 0.0 | 3.2 | 0.00 | 0.00 | 0.00 | 61 | 1015.9 |
| 20260507021705 | 22 | 228 | 0.0 | 3.2 | 0.00 | 0.00 | 0.00 | 61 | 1016.0 |
| 20260507021603 | 23 | 228 | 1.6 | 4.8 | 0.00 | 0.00 | 0.00 | 61 | 1016.0 |
| 20260507021514 | 23 | 228 | 1.6 | 4.8 | 0.00 | 0.00 | 0.00 | 61 | 1016.0 |
| 20260507021459 | 23 | 228 | 1.6 | 4.8 | 0.00 | 0.00 | 0.00 | 60 | 1016.0 |
| 20260507021359 | 23 | 227 | 1.6 | 4.8 | 0.00 | 0.00 | 0.00 | 61 | 1016.0 |
| 20260507021259 | 23 | 221 | 0.0 | 4.8 | 0.00 | 0.00 | 0.00 | 61 | 1016.0 |
| 20260507021158 | 23 | 221 | 0.0 | 4.8 | 0.00 | 0.00 | 0.00 | 61 | 1016.0 |
| 20260507021056 | 23 | 221 | 1.6 | 4.8 | 0.00 | 0.00 | 0.00 | 61 | 1016.0 |
| 20260507021013 | 23 | 221 | 1.6 | 4.8 | 0.00 | 0.00 | 0.00 | 60 | 1015.9 |
| 20260507020951 | 23 | 221 | 1.6 | 4.8 | 0.00 | 0.00 | 0.00 | 60 | 1015.9 |
| 20260507020849 | 23 | 221 | 1.6 | 4.8 | 0.00 | 0.00 | 0.00 | 60 | 1015.9 |
| 20260507020749 | 23 | 221 | 1.6 | 4.8 | 0.00 | 0.00 | 0.00 | 60 | 1015.9 |
| 20260507020649 | 23 | 207 | 0.0 | 4.8 | 0.00 | 0.00 | 0.00 | 60 | 1015.9 |
| 20260507020549 | 23 | 232 | 0.0 | 3.2 | 0.00 | 0.00 | 0.00 | 60 | 1015.9 |
| 20260507020511 | 23 | 232 | 0.0 | 3.2 | 0.00 | 0.00 | 0.00 | 60 | 1015.9 |
| 20260507020444 | 23 | 232 | 0.0 | 3.2 | 0.00 | 0.00 | 0.00 | 60 | 1016.0 |
| 20260507020343 | 23 | 232 | 0.0 | 3.2 | 0.00 | 0.00 | 0.00 | 60 | 1016.0 |
| 20260507020243 | 23 | 232 | 0.0 | 3.2 | 0.00 | 0.00 | 0.00 | 60 | 1016.0 |
| 20260507020142 | 23 | 232 | 0.0 | 3.2 | 0.00 | 0.00 | 0.00 | 60 | 1016.0 |
| 20260507020041 | 23 | 231 | 0.0 | 3.2 | 0.00 | 0.00 | 0.00 | 61 | 1016.0 |
| 20260507020011 | 23 | 231 | 0.0 | 3.2 | 0.00 | 0.00 | 0.00 | 61 | 1016.0 |
| 20260507015939 | 23 | 231 | 0.0 | 3.2 | 0.00 | 0.00 | 0.00 | 61 | 1016.0 |
| 20260507015839 | 23 | 231 | 0.0 | 3.2 | 0.00 | 0.00 | 0.00 | 61 | 1016.0 |
| 20260507015739 | 23 | 231 | 0.0 | 3.2 | 0.00 | 0.00 | 0.00 | 61 | 1016.0 |
| 20260507015637 | 23 | 231 | 0.0 | 3.2 | 0.00 | 0.00 | 0.00 | 61 | 1016.1 |
| 20260507015535 | 23 | 231 | 0.0 | 3.2 | 0.00 | 0.00 | 0.00 | 60 | 1016.1 |
| 20260507015509 | 23 | 230 | 0.0 | 3.2 | 0.00 | 0.00 | 0.00 | 60 | 1016.1 |
| 20260507015431 | 23 | 231 | 0.0 | 3.2 | 0.00 | 0.00 | 0.00 | 60 | 1016.1 |
| 20260507015331 | 23 | 231 | 0.0 | 3.2 | 0.00 | 0.00 | 0.00 | 60 | 1016.1 |
| 20260507015234 | 23 | 160 | 0.0 | 3.2 | 0.00 | 0.00 | 0.00 | 60 | 1016.1 |
| 20260507015129 | 23 | 160 | 0.0 | 3.2 | 0.00 | 0.00 | 0.00 | 60 | 1016.1 |
| 20260507015028 | 23 | 160 | 0.0 | 3.2 | 0.00 | 0.00 | 0.00 | 60 | 1016.1 |
| 20260507015009 | 23 | 161 | 0.0 | 3.2 | 0.00 | 0.00 | 0.00 | 60 | 1016.1 |
| 20260507014923 | 23 | 160 | 0.0 | 3.2 | 0.00 | 0.00 | 0.00 | 60 | 1016.0 |
| 20260507014823 | 23 | 245 | 0.0 | 3.2 | 0.00 | 0.00 | 0.00 | 59 | 1016.0 |
| 20260507014724 | 23 | 245 | 0.0 | 3.2 | 0.00 | 0.00 | 0.00 | 60 | 1016.0 |
| 20260507014622 | 23 | 245 | 0.0 | 4.8 | 0.00 | 0.00 | 0.00 | 60 | 1016.0 |
| 20260507014509 | 23 | 245 | 0.0 | 4.8 | 0.00 | 0.00 | 0.00 | 60 | 1016.0 |
| 20260507014415 | 23 | 245 | 0.0 | 4.8 | 0.00 | 0.00 | 0.00 | 60 | 1016.0 |
| 20260507014313 | 23 | 245 | 0.0 | 4.8 | 0.00 | 0.00 | 0.00 | 60 | 1016.1 |
| 20260507014213 | 23 | 245 | 0.0 | 4.8 | 0.00 | 0.00 | 0.00 | 60 | 1016.1 |
| 20260507014112 | 23 | 230 | 0.0 | 4.8 | 0.00 | 0.00 | 0.00 | 60 | 1016.1 |
| 20260507014013 | 23 | 230 | 0.0 | 4.8 | 0.00 | 0.00 | 0.00 | 60 | 1016.0 |
| 20260507013910 | 23 | 214 | 0.0 | 4.8 | 0.00 | 0.00 | 0.00 | 60 | 1016.0 |
| 20260507013809 | 23 | 326 | 0.0 | 4.8 | 0.00 | 0.00 | 0.00 | 59 | 1016.1 |
| 20260507013709 | 23 | 326 | 0.0 | 4.8 | 0.00 | 0.00 | 0.00 | 60 | 1016.1 |
| 20260507013607 | 23 | 321 | 0.0 | 3.2 | 0.00 | 0.00 | 0.00 | 60 | 1016.0 |
| 20260507013507 | 23 | 321 | 0.0 | 3.2 | 0.00 | 0.00 | 0.00 | 60 | 1016.1 |
| 20260507013459 | 23 | 321 | 0.0 | 3.2 | 0.00 | 0.00 | 0.00 | 60 | 1016.0 |
| 20260507013401 | 23 | 321 | 0.0 | 3.2 | 0.00 | 0.00 | 0.00 | 60 | 1016.1 |
| 20260507013341 | 23 | 321 | 0.0 | 3.2 | 0.00 | 0.00 | 0.00 | 60 | 1016.1 |
| 20260507013158 | 23 | 321 | 0.0 | 3.2 | 0.00 | 0.00 | 0.00 | 60 | 1016.1 |
| 20260507013123 | 23 | 321 | 0.0 | 3.2 | 0.00 | 0.00 | 0.00 | 60 | 1016.1 |
| 20260507013001 | 23 | 321 | 0.0 | 3.2 | 0.00 | 0.00 | 0.00 | 60 | 1016.0 |
| 20260507012857 | 23 | 319 | 0.0 | 1.6 | 0.00 | 0.00 | 0.00 | 59 | 1016.0 |
| 20260507012755 | 23 | 319 | 0.0 | 1.6 | 0.00 | 0.00 | 0.00 | 59 | 1016.0 |
| 20260507012553 | 23 | 319 | 0.0 | 4.8 | 0.00 | 0.00 | 0.00 | 59 | 1016.0 |
| 20260507012506 | 23 | 319 | 0.0 | 4.8 | 0.00 | 0.00 | 0.00 | 59 | 1016.0 |
| 20260507012451 | 23 | 319 | 0.0 | 4.8 | 0.00 | 0.00 | 0.00 | 59 | 1016.0 |
| 20260507012351 | 23 | 319 | 0.0 | 4.8 | 0.00 | 0.00 | 0.00 | 59 | 1016.0 |
| 20260507012252 | 23 | 319 | 0.0 | 4.8 | 0.00 | 0.00 | 0.00 | 59 | 1016.0 |
| 20260507012151 | 23 | 319 | 0.0 | 4.8 | 0.00 | 0.00 | 0.00 | 59 | 1016.0 |
| 20260507012049 | 23 | 319 | 0.0 | 4.8 | 0.00 | 0.00 | 0.00 | 60 | 1016.0 |
| 20260507012008 | 23 | 319 | 0.0 | 4.8 | 0.00 | 0.00 | 0.00 | 60 | 1016.0 |
| 20260507011949 | 23 | 319 | 0.0 | 4.8 | 0.00 | 0.00 | 0.00 | 60 | 1016.0 |
| 20260507011847 | 23 | 319 | 0.0 | 4.8 | 0.00 | 0.00 | 0.00 | 60 | 1016.0 |
| 20260507011745 | 23 | 319 | 0.0 | 4.8 | 0.00 | 0.00 | 0.00 | 59 | 1016.0 |
| 20260507011643 | 23 | 310 | 0.0 | 4.8 | 0.00 | 0.00 | 0.00 | 59 | 1016.0 |
| 20260507011543 | 23 | 316 | 0.0 | 1.6 | 0.00 | 0.00 | 0.00 | 59 | 1016.1 |
| 20260507011505 | 23 | 316 | 0.0 | 1.6 | 0.00 | 0.00 | 0.00 | 60 | 1016.1 |
| 20260507011443 | 23 | 316 | 0.0 | 1.6 | 0.00 | 0.00 | 0.00 | 60 | 1016.0 |
| 20260507011344 | 23 | 316 | 0.0 | 1.6 | 0.00 | 0.00 | 0.00 | 60 | 1016.1 |
| 20260507011244 | 23 | 316 | 0.0 | 1.6 | 0.00 | 0.00 | 0.00 | 59 | 1016.0 |
| 20260507011232 | 23 | 316 | 0.0 | 8.0 | 0.00 | 0.00 | 0.00 | 59 | 1016.0 |
| 20260507011142 | 23 | 316 | 0.0 | 4.8 | 0.00 | 0.00 | 0.00 | 59 | 1016.0 |
| 20260507011043 | 23 | 316 | 0.0 | 8.0 | 0.00 | 0.00 | 0.00 | 59 | 1016.0 |
| 20260507010941 | 23 | 316 | 0.0 | 8.0 | 0.00 | 0.00 | 0.00 | 59 | 1016.0 |
| 20260507010841 | 23 | 316 | 0.0 | 8.0 | 0.00 | 0.00 | 0.00 | 59 | 1016.0 |
| 20260507010739 | 23 | 316 | 0.0 | 8.0 | 0.00 | 0.00 | 0.00 | 59 | 1016.1 |
| 20260507010639 | 23 | 316 | 0.0 | 8.0 | 0.00 | 0.00 | 0.00 | 59 | 1016.1 |
| 20260507010525 | 23 | 316 | 0.0 | 8.0 | 0.00 | 0.00 | 0.00 | 59 | 1016.1 |
| 20260507010440 | 23 | 316 | 0.0 | 8.0 | 0.00 | 0.00 | 0.00 | 59 | 1016.1 |
| 20260507010339 | 23 | 316 | 0.0 | 8.0 | 0.00 | 0.00 | 0.00 | 59 | 1016.1 |
| 20260507010239 | 23 | 316 | 0.0 | 8.0 | 0.00 | 0.00 | 0.00 | 58 | 1016.1 |
| 20260507010133 | 23 | 311 | 1.6 | 8.0 | 0.00 | 0.00 | 0.00 | 58 | 1016.1 |
| 20260507010033 | 23 | 307 | 1.6 | 8.0 | 0.00 | 0.00 | 0.00 | 58 | 1016.1 |
| 20260507010003 | 23 | 307 | 1.6 | 8.0 | 0.00 | 0.00 | 0.00 | 58 | 1016.1 |
| 20260507005933 | 23 | 307 | 1.6 | 8.0 | 0.00 | 0.00 | 0.00 | 58 | 1016.1 |
| 20260507005831 | 23 | 305 | 1.6 | 8.0 | 0.00 | 0.00 | 0.00 | 59 | 1016.1 |
| 20260507005734 | 23 | 305 | 1.6 | 8.0 | 0.00 | 0.00 | 0.00 | 59 | 1016.1 |
| 20260507005627 | 23 | 284 | 1.6 | 8.0 | 0.00 | 0.00 | 0.00 | 59 | 1016.1 |
| 20260507005525 | 23 | 285 | 1.6 | 8.0 | 0.00 | 0.00 | 0.00 | 59 | 1016.1 |
| 20260507005503 | 23 | 284 | 1.6 | 8.0 | 0.00 | 0.00 | 0.00 | 59 | 1016.1 |
| 20260507005425 | 23 | 284 | 1.6 | 8.0 | 0.00 | 0.00 | 0.00 | 59 | 1016.1 |
| 20260507005325 | 23 | 284 | 1.6 | 8.0 | 0.00 | 0.00 | 0.00 | 59 | 1016.1 |
| 20260507005226 | 23 | 284 | 1.6 | 8.0 | 0.00 | 0.00 | 0.00 | 59 | 1016.1 |
| 20260507005120 | 23 | 233 | 1.6 | 8.0 | 0.00 | 0.00 | 0.00 | 59 | 1016.1 |
| 20260507005021 | 23 | 315 | 1.6 | 8.0 | 0.00 | 0.00 | 0.00 | 58 | 1016.2 |
| 20260507005002 | 23 | 314 | 1.6 | 9.7 | 0.00 | 0.00 | 0.00 | 58 | 1016.2 |
| 20260507004920 | 23 | 315 | 1.6 | 11.3 | 0.00 | 0.00 | 0.00 | 58 | 1016.1 |
| 20260507004819 | 23 | 308 | 1.6 | 11.3 | 0.00 | 0.00 | 0.00 | 58 | 1016.1 |
| 20260507004717 | 23 | 208 | 1.6 | 11.3 | 0.00 | 0.00 | 0.00 | 59 | 1016.1 |
| 20260507004623 | 23 | 319 | 1.6 | 11.3 | 0.00 | 0.00 | 0.00 | 59 | 1016.1 |
| 20260507004515 | 23 | 124 | 1.6 | 11.3 | 0.00 | 0.00 | 0.00 | 58 | 1016.1 |
| 20260507004504 | 23 | 124 | 1.6 | 11.3 | 0.00 | 0.00 | 0.00 | 58 | 1016.1 |
| 20260507004415 | 23 | 226 | 1.6 | 11.3 | 0.00 | 0.00 | 0.00 | 58 | 1016.2 |
| 20260507004313 | 23 | 226 | 1.6 | 11.3 | 0.00 | 0.00 | 0.00 | 58 | 1016.1 |
| 20260507004211 | 23 | 226 | 1.6 | 11.3 | 0.00 | 0.00 | 0.00 | 57 | 1016.1 |
| 20260507004107 | 23 | 231 | 1.6 | 11.3 | 0.00 | 0.00 | 0.00 | 57 | 1016.1 |
| 20260507004013 | 23 | 235 | 1.6 | 11.3 | 0.00 | 0.00 | 0.00 | 58 | 1016.1 |
| 20260507004003 | 23 | 235 | 1.6 | 11.3 | 0.00 | 0.00 | 0.00 | 58 | 1016.1 |
| 20260507003907 | 23 | 263 | 1.6 | 8.0 | 0.00 | 0.00 | 0.00 | 58 | 1016.1 |
| 20260507003805 | 23 | 263 | 1.6 | 8.0 | 0.00 | 0.00 | 0.00 | 58 | 1016.1 |
| 20260507003704 | 23 | 236 | 1.6 | 9.7 | 0.00 | 0.00 | 0.00 | 59 | 1016.1 |
| 20260507003600 | 23 | 328 | 1.6 | 9.7 | 0.00 | 0.00 | 0.00 | 58 | 1016.1 |
| 20260507003457 | 24 | 15 | 1.6 | 9.7 | 0.00 | 0.00 | 0.00 | 57 | 1016.1 |
| 20260507003358 | 24 | 319 | 1.6 | 9.7 | 0.00 | 0.00 | 0.00 | 57 | 1016.1 |
| 20260507003255 | 24 | 319 | 1.6 | 9.7 | 0.00 | 0.00 | 0.00 | 57 | 1016.0 |
| 20260507003155 | 24 | 319 | 1.6 | 9.7 | 0.00 | 0.00 | 0.00 | 56 | 1016.1 |
| 20260507003049 | 24 | 298 | 1.6 | 9.7 | 0.00 | 0.00 | 0.00 | 57 | 1016.1 |
| 20260507003002 | 24 | 297 | 1.6 | 9.7 | 0.00 | 0.00 | 0.00 | 57 | 1016.1 |
| 20260507002949 | 24 | 298 | 1.6 | 9.7 | 0.00 | 0.00 | 0.00 | 56 | 1016.1 |
| 20260507002849 | 24 | 298 | 1.6 | 9.7 | 0.00 | 0.00 | 0.00 | 56 | 1016.1 |
| 20260507002750 | 24 | 11 | 1.6 | 9.7 | 0.00 | 0.00 | 0.00 | 56 | 1016.1 |
| 20260507002649 | 24 | 226 | 1.6 | 6.4 | 0.00 | 0.00 | 0.00 | 56 | 1016.1 |
| 20260507002545 | 24 | 226 | 1.6 | 6.4 | 0.00 | 0.00 | 0.00 | 57 | 1016.1 |
| 20260507002457 | 24 | 226 | 1.6 | 6.4 | 0.00 | 0.00 | 0.00 | 56 | 1016.1 |
| 20260507002443 | 24 | 228 | 1.6 | 6.4 | 0.00 | 0.00 | 0.00 | 56 | 1016.1 |
| 20260507002343 | 25 | 245 | 0.0 | 4.8 | 0.00 | 0.00 | 0.00 | 56 | 1016.1 |
| 20260507002241 | 25 | 242 | 0.0 | 4.8 | 0.00 | 0.00 | 0.00 | 56 | 1016.0 |
| 20260507002141 | 25 | 242 | 0.0 | 4.8 | 0.00 | 0.00 | 0.00 | 55 | 1016.1 |
| 20260507002035 | 25 | 316 | 0.0 | 4.8 | 0.00 | 0.00 | 0.00 | 55 | 1016.1 |
| 20260507001956 | 25 | 235 | 0.0 | 4.8 | 0.00 | 0.00 | 0.00 | 55 | 1016.1 |
| 20260507001935 | 25 | 235 | 1.6 | 4.8 | 0.00 | 0.00 | 0.00 | 56 | 1016.0 |
| 20260507001836 | 25 | 234 | 1.6 | 11.3 | 0.00 | 0.00 | 0.00 | 55 | 1016.0 |
| 20260507001735 | 25 | 235 | 1.6 | 11.3 | 0.00 | 0.00 | 0.00 | 56 | 1016.0 |
| 20260507001633 | 25 | 228 | 1.6 | 11.3 | 0.00 | 0.00 | 0.00 | 56 | 1016.0 |
| 20260507001534 | 25 | 228 | 1.6 | 11.3 | 0.00 | 0.00 | 0.00 | 56 | 1016.1 |
| 20260507001450 | 25 | 231 | 1.6 | 11.3 | 0.00 | 0.00 | 0.00 | 56 | 1016.1 |
| 20260507001431 | 25 | 231 | 3.2 | 11.3 | 0.00 | 0.00 | 0.00 | 56 | 1016.1 |
| 20260507001329 | 25 | 225 | 3.2 | 11.3 | 0.00 | 0.00 | 0.00 | 56 | 1016.0 |
| 20260507001230 | 25 | 283 | 3.2 | 11.3 | 0.00 | 0.00 | 0.00 | 55 | 1016.1 |
| 20260507001127 | 25 | 271 | 3.2 | 11.3 | 0.00 | 0.00 | 0.00 | 54 | 1016.1 |
| 20260507001021 | 25 | 302 | 3.2 | 11.3 | 0.00 | 0.00 | 0.00 | 54 | 1016.1 |
| 20260507000942 | 25 | 225 | 1.6 | 11.3 | 0.00 | 0.00 | 0.00 | 53 | 1016.1 |
| 20260507000921 | 25 | 231 | 1.6 | 11.3 | 0.00 | 0.00 | 0.00 | 53 | 1016.1 |
| 20260507000822 | 25 | 229 | 1.6 | 8.0 | 0.00 | 0.00 | 0.00 | 54 | 1016.1 |
| 20260507000719 | 25 | 204 | 3.2 | 8.0 | 0.00 | 0.00 | 0.00 | 53 | 1016.1 |
| 20260507000619 | 25 | 153 | 3.2 | 9.7 | 0.00 | 0.00 | 0.00 | 53 | 1016.1 |
| 20260507000513 | 25 | 168 | 3.2 | 9.7 | 0.00 | 0.00 | 0.00 | 54 | 1016.2 |
| 20260507000442 | 25 | 240 | 3.2 | 9.7 | 0.00 | 0.00 | 0.00 | 54 | 1016.1 |
| 20260507000413 | 25 | 238 | 1.6 | 9.7 | 0.00 | 0.00 | 0.00 | 53 | 1016.1 |
| 20260507000314 | 25 | 203 | 1.6 | 9.7 | 0.00 | 0.00 | 0.00 | 53 | 1016.2 |
| 20260507000213 | 25 | 160 | 1.6 | 9.7 | 0.00 | 0.00 | 0.00 | 54 | 1016.2 |
| 20260507000113 | 25 | 283 | 1.6 | 9.7 | 0.00 | 0.00 | 0.00 | 54 | 1016.2 |
| 20260507000009 | 25 | 283 | 3.2 | 9.7 | 0.00 | 0.00 | 0.00 | 54 | 1016.2 |
| 20260506235939 | 25 | 283 | 3.2 | 9.7 | 0.00 | 0.00 | 0.00 | 54 | 1016.2 |
| 20260506235907 | 25 | 283 | 3.2 | 9.7 | 0.00 | 0.00 | 0.00 | 54 | 1016.2 |
| 20260506235808 | 25 | 316 | 3.2 | 14.5 | 0.00 | 0.00 | 0.00 | 54 | 1016.2 |
| 20260506235706 | 25 | 231 | 3.2 | 14.5 | 0.00 | 0.00 | 0.00 | 53 | 1016.2 |
| 20260506235605 | 25 | 248 | 3.2 | 14.5 | 0.00 | 0.00 | 0.00 | 54 | 1016.2 |
| 20260506235459 | 25 | 210 | 3.2 | 14.5 | 0.00 | 0.00 | 0.00 | 55 | 1016.2 |
| 20260506235439 | 25 | 210 | 3.2 | 14.5 | 0.00 | 0.00 | 0.00 | 53 | 1016.2 |
| 20260506235359 | 25 | 210 | 3.2 | 14.5 | 0.00 | 0.00 | 0.00 | 54 | 1016.2 |
| 20260506235259 | 25 | 201 | 3.2 | 14.5 | 0.00 | 0.00 | 0.00 | 54 | 1016.2 |
| 20260506235159 | 25 | 312 | 3.2 | 14.5 | 0.00 | 0.00 | 0.00 | 54 | 1016.2 |
| 20260506235100 | 25 | 231 | 3.2 | 14.5 | 0.00 | 0.00 | 0.00 | 54 | 1016.2 |
| 20260506234953 | 25 | 263 | 3.2 | 14.5 | 0.00 | 0.00 | 0.00 | 54 | 1016.2 |
| 20260506234937 | 25 | 263 | 1.6 | 14.5 | 0.00 | 0.00 | 0.00 | 52 | 1016.2 |
| 20260506234853 | 25 | 219 | 1.6 | 14.5 | 0.00 | 0.00 | 0.00 | 52 | 1016.2 |
| 20260506234754 | 25 | 243 | 1.6 | 8.0 | 0.00 | 0.00 | 0.00 | 53 | 1016.3 |
| 20260506234653 | 25 | 139 | 1.6 | 8.0 | 0.00 | 0.00 | 0.00 | 52 | 1016.3 |
| 20260506234551 | 25 | 134 | 0.0 | 8.0 | 0.00 | 0.00 | 0.00 | 53 | 1016.3 |
| 20260506234437 | 25 | 276 | 1.6 | 8.0 | 0.00 | 0.00 | 0.00 | 53 | 1016.3 |
| 20260506234349 | 25 | 267 | 1.6 | 8.0 | 0.00 | 0.00 | 0.00 | 53 | 1016.3 |
| 20260506234251 | 25 | 267 | 1.6 | 8.0 | 0.00 | 0.00 | 0.00 | 54 | 1016.3 |
| 20260506234159 | 25 | 102 | 1.6 | 8.0 | 0.00 | 0.00 | 0.00 | 54 | 1016.3 |
| 20260506234149 | 25 | 267 | 1.6 | 8.0 | 0.00 | 0.00 | 0.00 | 54 | 1016.3 |
| 20260506234056 | 25 | 273 | 1.6 | 8.0 | 0.00 | 0.00 | 0.00 | 54 | 1016.3 |
| 20260506234047 | 25 | 102 | 1.6 | 8.0 | 0.00 | 0.00 | 0.00 | 54 | 1016.3 |
| 20260506233849 | 25 | 219 | 1.6 | 8.0 | 0.00 | 0.00 | 0.00 | 54 | 1016.3 |
| 20260506233747 | 25 | 228 | 1.6 | 8.0 | 0.00 | 0.00 | 0.00 | 54 | 1016.3 |
| 20260506233647 | 25 | 298 | 3.2 | 8.0 | 0.00 | 0.00 | 0.00 | 54 | 1016.3 |
| 20260506233547 | 25 | 300 | 3.2 | 9.7 | 0.00 | 0.00 | 0.00 | 53 | 1016.3 |
| 20260506233500 | 25 | 278 | 3.2 | 9.7 | 0.00 | 0.00 | 0.00 | 53 | 1016.3 |
| 20260506233449 | 25 | 280 | 3.2 | 9.7 | 0.00 | 0.00 | 0.00 | 53 | 1016.3 |
| 20260506233347 | 25 | 312 | 3.2 | 9.7 | 0.00 | 0.00 | 0.00 | 53 | 1016.3 |
| 20260506233248 | 25 | 307 | 3.2 | 9.7 | 0.00 | 0.00 | 0.00 | 53 | 1016.3 |
| 20260506233147 | 25 | 300 | 3.2 | 9.7 | 0.00 | 0.00 | 0.00 | 52 | 1016.3 |
| 20260506233048 | 25 | 316 | 3.2 | 9.7 | 0.00 | 0.00 | 0.00 | 52 | 1016.3 |
| 20260506232947 | 25 | 339 | 1.6 | 9.7 | 0.00 | 0.00 | 0.00 | 53 | 1016.4 |
| 20260506232933 | 25 | 308 | 1.6 | 9.7 | 0.00 | 0.00 | 0.00 | 53 | 1016.3 |
| 20260506232847 | 25 | 309 | 1.6 | 9.7 | 0.00 | 0.00 | 0.00 | 53 | 1016.3 |
| 20260506232748 | 25 | 332 | 1.6 | 9.7 | 0.00 | 0.00 | 0.00 | 53 | 1016.3 |
| 20260506232648 | 25 | 332 | 1.6 | 9.7 | 0.00 | 0.00 | 0.00 | 52 | 1016.3 |
| 20260506232547 | 25 | 40 | 1.6 | 8.0 | 0.00 | 0.00 | 0.00 | 53 | 1016.3 |
| 20260506232446 | 25 | 229 | 1.6 | 8.0 | 0.00 | 0.00 | 0.00 | 52 | 1016.3 |
| 20260506232347 | 25 | 158 | 1.6 | 8.0 | 0.00 | 0.00 | 0.00 | 52 | 1016.3 |
| 20260506232245 | 25 | 233 | 1.6 | 8.0 | 0.00 | 0.00 | 0.00 | 53 | 1016.3 |
| 20260506232145 | 25 | 232 | 1.6 | 8.0 | 0.00 | 0.00 | 0.00 | 53 | 1016.4 |
| 20260506232045 | 25 | 340 | 1.6 | 8.0 | 0.00 | 0.00 | 0.00 | 52 | 1016.3 |
| 20260506231946 | 25 | 337 | 1.6 | 8.0 | 0.00 | 0.00 | 0.00 | 53 | 1016.3 |
| 20260506231933 | 25 | 336 | 1.6 | 8.0 | 0.00 | 0.00 | 0.00 | 53 | 1016.3 |
| 20260506231845 | 25 | 228 | 1.6 | 8.0 | 0.00 | 0.00 | 0.00 | 54 | 1016.3 |
| 20260506231745 | 25 | 190 | 1.6 | 8.0 | 0.00 | 0.00 | 0.00 | 54 | 1016.3 |
| 20260506231644 | 25 | 256 | 1.6 | 8.0 | 0.00 | 0.00 | 0.00 | 53 | 1016.3 |
| 20260506231543 | 25 | 340 | 1.6 | 6.4 | 0.00 | 0.00 | 0.00 | 53 | 1016.3 |
| 20260506231446 | 25 | 339 | 1.6 | 6.4 | 0.00 | 0.00 | 0.00 | 53 | 1016.4 |
| 20260506231436 | 25 | 309 | 1.6 | 6.4 | 0.00 | 0.00 | 0.00 | 53 | 1016.4 |
| 20260506231343 | 25 | 309 | 1.6 | 6.4 | 0.00 | 0.00 | 0.00 | 53 | 1016.4 |
| 20260506231243 | 25 | 320 | 1.6 | 6.4 | 0.00 | 0.00 | 0.00 | 53 | 1016.4 |
| 20260506231153 | 25 | 325 | 1.6 | 6.4 | 0.00 | 0.00 | 0.00 | 53 | 1016.5 |
| 20260506231143 | 25 | 317 | 1.6 | 6.4 | 0.00 | 0.00 | 0.00 | 52 | 1016.4 |
| 20260506231050 | 25 | 304 | 1.6 | 6.4 | 0.00 | 0.00 | 0.00 | 53 | 1016.5 |
| 20260506231042 | 25 | 325 | 1.6 | 6.4 | 0.00 | 0.00 | 0.00 | 53 | 1016.5 |